[[{"header":{"parameterUnit":"m.s-1","parameterCategory":1,"la1":30.6,"la2":28.766,"lo1":-90.7593,"lo2":-88.6598,"dy":0.0162,"dx":0.0183,"nx":116,"ny":114,"refTime":"2024-05-21T00:00:00:Z","depth":0,"parameterNumber":2,"parameterNumberName":"U-component_of_WINDS"},"data":[0.0,0.0,0.0,0.0,0.0,0.0,0.0,0.0,0.0,0.0,0.0,0.0,0.0,0.0,0.0,0.0,0.0,0.0,0.0,0.0,0.0,0.0,0.0,0.0,0.0,0.0,0.0,0.0,0.0,0.0,0.0,0.0,0.0,0.0,0.0,0.0,0.0,0.0,0.0,0.0,0.0,0.0,0.0,0.0,0.0,0.0,0.0,0.0,0.0,0.0,0.0,0.0,0.0,0.0,0.0,0.0,0.0,0.0,0.0,0.0,0.0,0.0,0.0,0.0,0.0,0.0,0.0,0.0,0.0,0.0,0.0,0.0,0.0,0.0,0.0,0.0,0.0,0.0,0.0,0.0,0.0,0.0,0.0,0.0,0.0,0.0,0.0,0.0,0.0,0.0,0.0,0.0,0.0,0.0,0.0,0.0,0.0,0.0,0.0,0.0,0.0,0.0,0.0,0.0,0.0,0.0,0.0,0.0,0.0,0.0,0.0,0.0,0.0,0.0,0.0,0.0,0.0,0.0,0.0,0.0,0.0,0.0,0.0,0.0,0.0,0.0,0.0,0.0,0.0,0.0,0.0,0.0,0.0,0.0,0.0,0.0,0.0,0.0,0.0,0.0,0.0,0.0,0.0,0.0,0.0,0.0,0.0,0.0,0.0,0.0,0.0,0.0,0.0,0.0,0.0,0.0,0.0,0.0,0.0,0.0,0.0,0.0,0.0,0.0,0.0,0.0,0.0,0.0,0.0,0.0,0.0,0.0,0.0,0.0,0.0,0.0,0.0,0.0,0.0,0.0,0.0,0.0,0.0,0.0,0.0,0.0,0.0,0.0,0.0,0.0,0.0,0.0,0.0,0.0,0.0,0.0,0.0,0.0,0.0,0.0,0.0,0.0,0.0,0.0,0.0,0.0,0.0,0.0,0.0,0.0,0.0,0.0,0.0,0.0,0.0,0.0,0.0,0.0,0.0,0.0,0.0,0.0,0.0,0.0,0.0,0.0,0.0,0.0,0.0,0.0,0.0,0.0,0.0,0.0,0.0,0.0,0.0,0.0,0.0,0.0,0.0,0.0,0.0,0.0,0.0,0.0,0.0,0.0,0.0,0.0,0.0,0.0,0.0,0.0,0.0,0.0,0.0,0.0,0.0,0.0,0.0,0.0,0.0,0.0,0.0,0.0,0.0,0.0,0.0,0.0,0.0,0.0,0.0,0.0,0.0,0.0,0.0,0.0,0.0,0.0,0.0,0.0,0.0,0.0,0.0,0.0,0.0,0.0,0.0,0.0,0.0,0.0,0.0,0.0,0.0,0.0,0.0,0.0,0.0,0.0,0.0,0.0,0.0,0.0,0.0,0.0,0.0,0.0,0.0,0.0,0.0,0.0,0.0,0.0,0.0,0.0,0.0,0.0,0.0,0.0,0.0,0.0,0.0,0.0,0.0,0.0,0.0,0.0,0.0,0.0,0.0,0.0,0.0,0.0,0.0,0.0,0.0,0.0,0.0,0.0,0.0,0.0,0.0,0.0,0.0,0.0,0.0,0.0,0.0,0.0,0.0,0.0,0.0,0.0,0.0,0.0,0.0,0.0,0.0,0.0,0.0,0.0,0.0,0.0,0.0,0.0,0.0,0.0,0.0,0.0,0.0,0.0,0.0,0.0,0.0,0.0,0.0,0.0,0.0,0.0,0.0,0.0,0.0,0.0,0.0,0.0,0.0,0.0,0.0,0.0,0.0,0.0,0.0,0.0,0.0,0.0,0.0,0.0,0.0,0.0,0.0,0.0,0.0,0.0,0.0,0.0,0.0,0.0,0.0,0.0,0.0,0.0,0.0,0.0,0.0,0.0,0.0,0.0,0.0,0.0,0.0,0.0,0.0,0.0,0.0,0.0,0.0,0.0,0.0,0.0,0.0,0.0,0.0,0.0,0.0,0.0,0.0,0.0,0.0,0.0,0.0,0.0,0.0,0.0,0.0,0.0,0.0,0.0,0.0,0.0,0.0,0.0,0.0,0.0,0.0,0.0,0.0,0.0,0.0,0.0,0.0,0.0,0.0,0.0,0.0,0.0,0.0,0.0,0.0,0.0,0.0,0.0,0.0,0.0,0.0,0.0,0.0,0.0,0.0,0.0,0.0,0.0,0.0,0.0,0.0,0.0,0.0,0.0,0.0,0.0,0.0,0.0,0.0,0.0,0.0,0.0,0.0,0.0,0.0,0.0,0.0,0.0,0.0,0.0,0.0,0.0,0.0,0.0,0.0,0.0,0.0,0.0,0.0,0.0,0.0,0.0,0.0,0.0,0.0,0.0,0.0,0.0,0.0,0.0,0.0,0.0,0.0,0.0,0.0,0.0,0.0,0.0,0.0,0.0,0.0,0.0,0.0,0.0,0.0,0.0,0.0,0.0,0.0,0.0,0.0,0.0,0.0,0.0,0.0,0.0,0.0,0.0,0.0,0.0,0.0,0.0,0.0,0.0,0.0,0.0,0.0,0.0,0.0,0.0,0.0,0.0,0.0,0.0,0.0,0.0,0.0,0.0,0.0,0.0,0.0,0.0,0.0,0.0,0.0,0.0,0.0,0.0,0.0,0.0,0.0,0.0,0.0,0.0,0.0,0.0,0.0,0.0,0.0,0.0,0.0,0.0,0.0,0.0,0.0,0.0,0.0,0.0,0.0,0.0,0.0,0.0,0.0,0.0,0.0,0.0,0.0,0.0,0.0,0.0,0.0,0.0,0.0,0.0,0.0,0.0,0.0,0.0,0.0,0.0,0.0,0.0,0.0,0.0,0.0,0.0,0.0,0.0,0.0,0.0,0.0,0.0,0.0,0.0,0.0,0.0,0.0,0.0,0.0,0.0,0.0,0.0,0.0,0.0,0.0,0.0,0.0,0.0,0.0,0.0,0.0,0.0,0.0,0.0,0.0,0.0,0.0,0.0,0.0,0.0,0.0,0.0,0.0,0.0,0.0,0.0,0.0,0.0,0.0,0.0,0.0,0.0,0.0,0.0,0.0,0.0,0.0,0.0,0.0,0.0,0.0,0.0,0.0,0.0,0.0,0.0,0.0,0.0,0.0,0.0,0.0,0.0,0.0,0.0,0.0,0.0,0.0,0.0,0.0,0.0,0.0,0.0,0.0,0.0,0.0,0.0,0.0,0.0,0.0,0.0,0.0,0.0,0.0,0.0,0.0,0.0,0.0,0.0,0.0,0.0,0.0,0.0,0.0,0.0,0.0,0.0,0.0,0.0,0.0,0.0,0.0,0.0,0.0,0.0,0.0,0.0,0.0,0.0,0.0,0.0,0.0,0.0,0.0,0.0,0.0,0.0,0.0,0.0,0.0,0.0,0.0,0.0,0.0,0.0,0.0,0.0,0.0,0.0,0.0,0.0,0.0,0.0,0.0,0.0,0.0,0.0,0.0,0.0,0.0,0.0,0.0,0.0,0.0,0.0,0.0,0.0,0.0,0.0,0.0,0.0,0.0,0.0,0.0,0.0,0.0,0.0,0.0,0.0,0.0,0.0,0.0,0.0,0.0,0.0,0.0,0.0,0.0,0.0,0.0,0.0,0.0,0.0,0.0,0.0,0.0,0.0,0.0,0.0,0.0,0.0,0.0,0.0,0.0,0.0,0.0,0.0,0.0,0.0,0.0,0.0,0.0,0.0,0.0,0.0,0.0,0.0,0.0,0.0,0.0,0.0,0.0,0.0,0.0,0.0,0.0,0.0,0.0,0.0,0.0,0.0,0.0,0.0,0.0,0.0,0.0,0.0,0.0,0.0,0.0,0.0,0.0,0.0,0.0,0.0,0.0,0.0,0.0,0.0,0.0,0.0,0.0,0.0,0.0,0.0,0.0,0.0,0.0,0.0,0.0,0.0,0.0,0.0,0.0,0.0,0.0,0.0,0.0,0.0,0.0,0.0,0.0,0.0,0.0,0.0,0.0,0.0,0.0,0.0,0.0,0.0,0.0,0.0,0.0,0.0,0.0,0.0,0.0,0.0,0.0,0.0,0.0,0.0,0.0,0.0,0.0,0.0,0.0,0.0,0.0,0.0,0.0,0.0,0.0,0.0,0.0,0.0,0.0,0.0,0.0,0.0,0.0,0.0,0.0,0.0,0.0,0.0,0.0,0.0,0.0,0.0,0.0,0.0,0.0,0.0,0.0,0.0,0.0,0.0,0.0,0.0,0.0,0.0,0.0,0.0,0.0,0.0,0.0,0.0,0.0,0.0,0.0,0.0,0.0,0.0,0.0,0.0,0.0,0.0,0.0,0.0,0.0,0.0,0.0,0.0,0.0,0.0,0.0,0.0,0.0,0.0,0.0,0.0,0.0,0.0,0.0,0.0,0.0,0.0,0.0,0.0,0.0,0.0,0.0,0.0,0.0,0.0,0.0,0.0,0.0,0.0,0.0,0.0,0.0,0.0,0.0,0.0,0.0,0.0,0.0,0.0,0.0,0.0,0.0,0.0,0.0,0.0,0.0,0.0,0.0,0.0,0.0,0.0,0.0,0.0,0.0,0.0,0.0,0.0,0.0,0.0,0.0,0.0,0.0,0.0,0.0,0.0,0.0,0.0,0.0,0.0,0.0,0.0,0.0,0.0,0.0,0.0,0.0,0.0,0.0,0.0,0.0,0.0,0.0,0.0,0.0,0.0,0.0,0.0,0.0,0.0,0.0,0.0,0.0,0.0,0.0,0.0,0.0,0.0,0.0,0.0,0.0,0.0,0.0,0.0,0.0,0.0,0.0,0.0,0.0,0.0,0.0,0.0,0.0,0.0,0.0,0.0,0.0,0.0,0.0,0.0,0.0,0.0,0.0,0.0,0.0,0.0,0.0,0.0,0.0,0.0,0.0,0.0,0.0,0.0,0.0,0.0,0.0,0.0,0.0,0.0,0.0,0.0,0.0,0.0,0.0,0.0,0.0,0.0,0.0,0.0,0.0,0.0,0.0,0.0,0.0,0.0,0.0,0.0,0.0,0.0,0.0,0.0,0.0,0.0,0.0,0.0,0.0,0.0,0.0,0.0,0.0,0.0,0.0,0.0,0.0,0.0,0.0,0.0,0.0,0.0,0.0,0.0,0.0,0.0,0.0,0.0,0.0,0.0,0.0,0.0,0.0,0.0,0.0,0.0,0.0,0.0,0.0,0.0,0.0,0.0,0.0,0.0,0.0,0.0,0.0,0.0,0.0,0.0,0.0,0.0,0.0,0.0,0.0,0.0,0.0,0.0,0.0,0.0,0.0,0.0,0.0,0.0,0.0,0.0,0.0,0.0,0.0,0.0,0.0,0.0,0.0,0.0,0.0,0.0,0.0,0.0,0.0,0.0,0.0,0.0,0.0,0.0,0.0,0.0,0.0,0.0,0.0,0.0,0.0,0.0,0.0,0.0,0.0,0.0,0.0,0.0,0.0,0.0,0.0,0.0,0.0,0.0,0.0,0.0,0.0,0.0,0.0,0.0,0.0,0.0,0.0,0.0,0.0,0.0,0.0,0.0,0.0,0.0,0.0,0.0,0.0,0.0,0.0,0.0,0.0,0.0,0.0,0.0,0.0,0.0,0.0,0.0,0.0,0.0,0.0,0.0,0.0,0.0,0.0,0.0,0.0,0.0,0.0,0.0,0.0,0.0,0.0,0.0,0.0,0.0,0.0,0.0,0.0,0.0,0.0,0.0,0.0,0.0,0.0,0.0,0.0,0.0,0.0,0.0,0.0,0.0,0.0,0.0,0.0,0.0,0.0,0.0,0.0,0.0,0.0,0.0,0.0,0.0,0.0,0.0,0.0,0.0,0.0,0.0,0.0,0.0,0.0,0.0,0.0,0.0,0.0,0.0,0.0,0.0,0.0,0.0,0.0,0.0,0.0,0.0,0.0,0.0,0.0,0.0,0.0,0.0,0.0,0.0,0.0,0.0,0.0,0.0,0.0,0.0,0.0,0.0,0.0,0.0,0.0,0.0,0.0,0.0,0.0,0.0,0.0,0.0,0.0,0.0,0.0,0.0,0.0,0.0,0.0,0.0,0.0,0.0,0.0,0.0,0.0,0.0,0.0,0.0,0.0,0.0,0.0,0.0,0.0,0.0,0.0,0.0,0.0,0.0,0.0,0.0,0.0,0.0,-0.2007,-0.1239,0.0,0.0,0.0,0.0,0.0,0.0,0.0,0.0,0.0,0.0,0.0,0.0,0.0,0.0,0.0,0.0,0.0,0.0,0.0,0.0,0.0,0.0,0.0,-0.4205,-0.4436,-0.4436,-0.4846,-0.4916,-0.4454,0.0,0.0,0.0,0.0,0.0,-0.4824,-0.4824,-0.5135,-0.5744,-0.5861,-0.623,-0.6845,-0.6231,-0.5382,-0.4329,0.0,0.0,0.0,0.0,0.0,0.0,0.0,0.0,0.0,0.0,0.0,0.0,0.0,0.0,0.0,0.0,0.0,0.0,0.0,0.0,0.0,0.0,0.0,0.0,0.0,0.0,0.0,0.0,0.0,0.0,0.0,0.0,0.0,0.0,0.0,0.0,0.0,0.0,0.0,0.0,0.0,0.0,0.0,0.0,0.0,0.0,0.0,0.0,0.0,0.0,0.0,0.0,0.0,0.0,0.0,0.0,0.0,0.0,0.0,0.0,0.0,0.0,0.0,0.0,0.0,0.0,0.0,0.0,0.0,0.0,-0.3427,-0.2199,0.0,0.0,0.0,0.0,0.0,0.0,0.0,0.0,0.0,0.0,0.0,0.0,0.0,0.0,0.0,0.0,0.0,0.0,0.0,0.0,0.0,-0.438,-0.4416,-0.4817,-0.5134,-0.5275,-0.5763,-0.5847,-0.5324,-0.5465,0.0,0.0,0.0,-0.5181,-0.5567,-0.5651,-0.6238,-0.7372,-0.7454,-0.7899,-0.8685,-0.8884,-0.8132,-0.6546,-0.5394,0.0,0.0,0.0,0.0,0.0,0.0,0.0,0.0,0.0,0.0,0.0,0.0,0.0,0.0,0.0,0.0,0.0,0.0,0.0,0.0,0.0,0.0,0.0,0.0,0.0,0.0,0.0,0.0,0.0,0.0,0.0,0.0,0.0,0.0,0.0,0.0,0.0,0.0,0.0,0.0,0.0,0.0,0.0,0.0,0.0,0.0,0.0,0.0,0.0,0.0,0.0,0.0,0.0,0.0,0.0,0.0,0.0,0.0,0.0,0.0,0.0,0.0,0.0,-0.7435,-0.7555,-0.7699,-0.7699,-0.7644,-0.7389,-0.5289,-0.3817,-0.2885,-0.2615,0.0,0.0,0.0,0.0,0.0,0.0,0.0,0.0,0.0,0.0,0.0,0.0,0.0,0.0,0.0,0.0,0.0,0.0,0.0,-0.4718,-0.4893,-0.5171,-0.5647,-0.6404,-0.6404,-0.6385,-0.6463,-0.6338,0.0,0.0,-0.6053,-0.6201,-0.6259,-0.6668,-0.7133,-0.7652,-0.9122,-1.0089,-1.0543,-1.0522,-1.0376,-1.0034,-0.781,-0.6617,-0.617,0.0,0.0,0.0,0.0,0.0,0.0,0.0,0.0,0.0,0.0,0.0,0.0,0.0,0.0,0.0,0.0,0.0,0.0,0.0,0.0,0.0,0.0,0.0,0.0,0.0,0.0,0.0,0.0,0.0,0.0,0.0,0.0,0.0,0.0,0.0,0.0,0.0,0.0,0.0,0.0,0.0,-0.5758,-0.6823,0.0,0.0,0.0,0.0,0.0,0.0,0.0,0.0,0.0,0.0,0.0,0.0,0.0,-0.8606,-0.889,-0.9398,-0.9653,-0.9672,-0.9958,-1.0102,-1.0135,-1.0135,-0.9787,-0.917,-0.8838,0.0,-0.5624,-0.4833,0.0,0.0,0.0,0.0,0.0,0.0,0.0,0.0,0.0,0.0,0.0,0.0,0.0,0.0,0.0,0.0,0.0,0.0,0.0,0.0,0.0,-0.6568,-0.7339,-0.7942,-0.8354,-0.8328,-0.7698,-0.7574,-0.7133,-0.6265,-0.6333,-0.6628,-0.7125,-0.7588,-0.8512,-0.9901,-1.1367,-1.2187,-1.2383,-1.255,-1.2653,-1.259,-1.1161,-0.9316,-0.726,-0.6287,0.0,0.0,0.0,0.0,0.0,0.0,0.0,0.0,0.0,0.0,0.0,0.0,0.0,0.0,0.0,0.0,0.0,0.0,0.0,0.0,0.0,0.0,0.0,0.0,0.0,0.0,0.0,0.0,0.0,0.0,0.0,0.0,0.0,0.0,0.0,0.0,0.0,0.0,0.0,-0.6912,-0.7764,-0.849,-0.803,-0.7656,0.0,0.0,0.0,0.0,0.0,0.0,0.0,0.0,0.0,-1.0432,-1.054,-1.0476,-1.0221,-1.0609,-1.0935,-1.1109,-1.1396,-1.1491,-1.133,-1.133,-1.1154,-1.0836,-1.0642,-1.0138,-0.9239,-0.7288,-0.6285,-0.5937,0.0,0.0,0.0,0.0,-0.5006,-0.4923,0.0,0.0,0.0,0.0,0.0,0.0,0.0,0.0,0.0,0.0,0.0,0.0,-0.6846,-0.7896,-0.8815,-0.9434,-0.998,-0.9941,-0.9099,-0.8737,-0.8111,-0.7106,-0.6973,-0.7334,-0.8239,-0.9147,-1.0444,-1.2165,-1.315,-1.3636,-1.3646,-1.3958,-1.4104,-1.4077,-1.3584,-1.1738,-0.8944,-0.7876,-0.6679,0.0,0.0,0.0,0.0,0.0,0.0,0.0,0.0,0.0,0.0,0.0,0.0,0.0,0.0,0.0,0.0,0.0,0.0,0.0,0.0,0.0,0.0,0.0,0.0,0.0,0.0,0.0,0.0,0.0,0.0,0.0,0.0,0.0,0.0,0.0,0.0,0.0,0.0,-0.8723,-0.9524,-1.0025,-1.006,-1.001,0.0,0.0,0.0,0.0,0.0,0.0,-1.2558,-1.3295,-1.3482,-1.2937,-1.2996,-1.2775,-1.2267,-1.2541,-1.2678,-1.2635,-1.282,-1.2709,-1.2211,-1.2211,-1.2211,-1.2234,-1.1977,-1.2004,-1.2025,-0.9373,-0.8251,-0.8213,-0.7643,-0.7424,-0.7445,-0.7536,-0.7517,-0.7382,0.0,0.0,0.0,0.0,0.0,0.0,0.0,0.0,0.0,0.0,0.0,-0.6855,-0.816,-0.8701,-0.9473,-1.0703,-1.0508,-1.042,0.0,-0.9648,-0.8945,-0.8877,-0.8502,-0.8763,-0.9777,-1.1803,-1.3139,-1.3682,-1.3935,-1.4075,-1.4075,-1.4094,-1.4104,-1.4104,-1.4051,-1.3391,-1.2145,-1.0254,-0.8874,-0.7817,0.0,0.0,0.0,0.0,0.0,0.0,0.0,0.0,0.0,0.0,0.0,0.0,0.0,0.0,0.0,0.0,0.0,0.0,0.0,0.0,0.0,0.0,0.0,0.0,0.0,0.0,0.0,0.0,0.0,0.0,0.0,0.0,0.0,0.0,0.0,0.0,0.0,0.0,0.0,-1.1585,-1.1626,0.0,0.0,0.0,0.0,-1.2148,-1.3283,-1.3764,-1.3369,-1.4649,-1.5085,-1.4424,-1.533,-1.5777,-1.5758,-1.6005,-1.5637,-1.4642,-1.4665,-1.4137,-1.314,-1.314,-1.314,-1.314,-1.3126,-1.3133,-1.2948,-1.0719,-0.9784,-0.9688,-0.87,-0.8345,-0.8345,-0.8329,-0.8324,-0.8318,0.0,0.0,0.0,0.0,0.0,-0.5098,-0.5098,-0.5361,-0.5616,-0.5783,-0.6898,-0.7974,-0.8701,-0.9921,-1.0947,-1.1677,-1.1875,-1.1945,-1.1932,-1.0855,-1.0448,-1.0972,-1.0233,-1.0716,-1.2623,-1.3716,-1.4658,-1.5466,-1.581,-1.5966,-1.5951,-1.5745,-1.5641,-1.5614,-1.5148,-1.4578,-1.3869,-1.1958,-1.0327,-0.898,-0.7866,-0.66,0.0,0.0,0.0,0.0,0.0,0.0,0.0,0.0,0.0,0.0,0.0,0.0,0.0,0.0,0.0,0.0,0.0,0.0,0.0,0.0,0.0,0.0,0.0,0.0,0.0,0.0,0.0,0.0,0.0,0.0,0.0,0.0,0.0,0.0,0.0,0.0,0.0,-1.363,-1.3949,0.0,-1.3849,-1.4042,-1.4459,-1.5095,-1.5531,-1.6042,-1.6707,-1.7224,-1.7257,-1.6706,-1.7042,-1.6913,-1.6254,-1.6584,-1.6536,-1.6155,-1.564,-1.5087,-1.4544,-1.3796,-1.3447,-1.344,-1.3287,-1.3313,-1.3393,-1.24,-1.1922,-1.1715,-1.1139,-1.0785,-1.0663,-1.0663,-1.0517,-1.0327,0.0,0.0,0.0,0.0,-0.4863,-0.5098,-0.5098,-0.5498,-0.5911,-0.6203,-0.7798,-0.9097,-0.9588,-1.1114,-1.228,-1.2686,-1.302,-1.3211,-1.3227,-1.2299,-1.1977,-1.2522,-1.2298,-1.2971,-1.4706,-1.551,-1.6237,-1.6917,-1.7308,-1.7501,-1.7513,-1.7464,-1.7435,-1.7406,-1.6942,-1.6408,-1.5785,-1.4223,-1.25,-1.068,-0.9545,-0.8309,-0.7079,0.0,0.0,0.0,0.0,0.0,0.0,0.0,0.0,0.0,0.0,0.0,0.0,0.0,0.0,0.0,0.0,0.0,0.0,0.0,0.0,0.0,0.0,0.0,0.0,0.0,0.0,0.0,0.0,0.0,0.0,0.0,0.0,0.0,0.0,-1.3311,-1.4258,-1.5146,-1.5723,-1.6074,-1.6074,-1.6201,-1.656,-1.7291,-1.734,-1.7779,-1.8763,-1.8958,-1.8899,-1.8574,-1.8723,-1.8578,-1.8035,-1.8121,-1.811,-1.8003,-1.6917,-1.6121,-1.558,-1.4421,-1.384,-1.374,-1.3587,-1.3614,-1.3733,-1.3587,-1.3387,-1.3199,-1.2759,-1.2492,-1.2325,-1.2325,-1.2198,-1.2024,0.0,0.0,0.0,-0.5001,-0.5088,-0.5098,-0.5098,-0.5508,-0.6125,-0.6982,-0.8745,-1.0176,-1.0853,-1.2238,-1.3298,-1.3784,-1.3815,-1.4073,-1.4698,-1.3909,-1.344,-1.3472,-1.4633,-1.5469,-1.5893,-1.7254,-1.7966,-1.7989,-1.8407,-1.8589,-1.86,-1.9104,-1.9342,-1.9342,-1.9301,-1.8824,-1.7994,-1.7122,-1.5399,-1.3114,-1.1645,-1.0668,-0.9916,0.0,0.0,0.0,0.0,0.0,0.0,0.0,0.0,0.0,0.0,0.0,0.0,0.0,0.0,0.0,0.0,0.0,0.0,0.0,0.0,0.0,0.0,0.0,0.0,0.0,0.0,0.0,0.0,0.0,0.0,0.0,0.0,0.0,-1.2983,-1.4089,-1.5204,-1.6056,-1.6936,-1.7474,-1.7474,-1.7812,-1.8223,-1.8607,-1.8637,-1.8867,-1.9307,-1.9727,-1.9951,-1.9951,-2.0381,-2.082,-2.121,-2.082,-2.0518,-2.0238,-1.865,-1.7341,-1.636,-1.5159,-1.4462,-1.4235,-1.4157,-1.4151,-1.4186,-1.4144,-1.4095,-1.4035,-1.346,-1.3233,-1.3227,-1.3227,-1.322,-1.3213,0.0,0.0,-0.4406,-0.4745,-0.4971,-0.5098,-0.5098,-0.5751,-0.6445,-0.7021,-0.8898,-1.0558,-1.1529,-1.2812,-1.3841,-1.4411,-1.4445,-1.471,-1.532,-1.4443,-1.4281,-1.5095,-1.6205,-1.7204,-1.8089,-1.8883,-1.9477,-1.9924,-2.0425,-2.0673,-2.0685,-2.0265,-2.0105,-2.0076,-1.9549,-1.9164,-1.8903,-1.8002,-1.7269,-1.6405,-1.3626,-1.2017,-1.1136,0.0,0.0,0.0,0.0,0.0,0.0,0.0,0.0,0.0,0.0,0.0,0.0,0.0,0.0,0.0,0.0,0.0,0.0,0.0,0.0,0.0,0.0,0.0,0.0,0.0,0.0,0.0,0.0,0.0,0.0,0.0,-1.405,-1.5107,-1.4766,-1.584,-1.6865,-1.7412,-1.8232,-1.876,-1.876,-1.8867,-1.9111,-1.9494,-1.9524,-1.9756,-2.0233,-2.0635,-2.083,-2.083,-2.1299,-2.1582,-2.1709,-2.1582,-2.1518,-2.1441,-2.0147,-1.9404,-1.9057,-1.7054,-1.6583,-1.7274,-1.5486,-1.5106,-1.5638,-1.4733,-1.4282,-1.4075,-1.3908,-1.3714,-1.3487,-1.3487,-1.3353,-1.3213,0.0,-0.4191,-0.4416,-0.4795,-0.5001,-0.5098,-0.5098,-0.5848,-0.6628,-0.7271,-0.9301,-1.1048,-1.2034,-1.3355,-1.4422,-1.5028,-1.5085,-1.5239,-1.5614,-1.5315,-1.5507,-1.6438,-1.7501,-1.848,-1.9334,-1.9886,-2.0465,-2.1043,-2.1556,-2.1832,-2.1832,-2.1625,-2.1536,-2.1506,-2.1081,-2.0693,-2.0308,-1.924,-1.858,-1.804,-1.5575,-1.3991,-1.2947,-1.2009,-1.1376,-1.0936,-1.0377,-0.998,-0.9684,-0.9367,0.0,0.0,0.0,0.0,0.0,0.0,0.0,0.0,0.0,0.0,0.0,0.0,0.0,0.0,0.0,0.0,0.0,0.0,0.0,0.0,0.0,0.0,0.0,0.0,-1.5596,-1.6682,-1.6716,-1.7422,-1.8135,-1.874,-1.9248,-1.9619,-1.9842,-2.0,-2.0205,-2.0449,-2.0635,-2.085,-2.1143,-2.1367,-2.1504,-2.1504,-2.1758,-2.1973,-2.2148,-2.1973,-2.206,-2.2402,-2.107,-2.0458,-2.0406,-1.8586,-1.8077,-1.8501,-1.7121,-1.6796,-1.7157,-1.5973,-1.5359,-1.5176,0.0,0.0,0.0,0.0,-1.3721,-1.3581,0.0,-0.4323,-0.4507,-0.501,-0.5098,-0.5098,-0.5098,-0.5848,-0.6706,-0.7579,-0.964,-1.1379,-1.233,-1.374,-1.4891,-1.5482,-1.564,-1.576,0.0,0.0,-1.6898,-1.7561,-1.8481,-1.9271,-1.9886,-2.049,-2.1056,-2.1581,-2.2133,-2.2397,-2.2393,-2.2882,-2.3108,-2.3108,-2.3108,-2.2702,-2.1947,-2.068,-1.9618,-1.8701,-1.7431,-1.615,-1.4906,-1.3781,-1.2966,-1.2361,-1.2067,-1.1549,-1.095,-1.0714,0.0,0.0,0.0,0.0,0.0,0.0,0.0,0.0,0.0,0.0,0.0,0.0,0.0,0.0,0.0,0.0,0.0,0.0,0.0,0.0,0.0,0.0,0.0,0.0,-1.7024,-1.7881,-1.8637,-1.8783,-1.9085,-1.9824,-2.0,-2.0215,-2.0644,-2.1045,-2.1268,-2.1268,-2.167,-2.1885,-2.1885,-2.1934,0.0,0.0,0.0,-2.2207,-2.2578,-2.2217,-2.2402,-2.3091,-2.1668,-2.1049,-2.1092,-1.9903,-1.9196,-1.8877,-1.8626,-1.8471,-1.8343,-1.7123,-1.6624,-1.6448,-1.4807,-1.4115,-1.4088,-1.4088,-1.4088,-1.4088,0.0,-0.4466,-0.4716,-0.504,-0.5098,-0.5098,-0.5098,-0.5848,-0.6706,-0.7579,-0.899,-1.0456,-1.1854,-1.3321,-1.4465,-1.5054,-1.585,-1.6529,0.0,0.0,-1.7664,-1.8644,-1.8895,-1.9497,-2.0503,-2.1069,-2.1606,-2.2159,-2.2681,-2.2945,-2.2945,-2.3058,-2.3108,-2.3108,-2.3108,-2.3005,-2.2811,-2.1894,-2.1026,-2.0081,-1.8754,-1.7263,-1.5805,-1.5187,-1.4658,-1.423,-1.3774,-1.3544,-1.3428,-1.3368,-1.2782,-1.1997,-1.1565,0.0,0.0,0.0,0.0,0.0,0.0,0.0,0.0,0.0,0.0,0.0,0.0,0.0,0.0,0.0,0.0,0.0,0.0,0.0,0.0,-1.6975,-1.8135,-1.9092,-1.96,-1.9971,-2.0127,-1.9932,-2.0508,-2.0976,-2.1094,-2.1504,-2.1758,-2.1758,-2.1836,-2.1885,-2.1885,-2.2207,-2.2393,-2.2393,-2.2715,-2.2896,-2.2974,-2.2896,-2.2935,-2.3091,-2.2775,0.0,-2.265,-2.1415,-2.0829,-2.066,-1.871,-1.7735,-1.7378,-1.6151,-1.552,-1.5274,-1.4657,-1.4295,-1.4088,-1.4088,-1.4088,-1.4088,-0.4446,-0.4606,-0.4736,-0.4883,-0.4903,-0.4903,-0.4903,-0.5638,-0.6499,-0.7297,-0.8678,-1.0096,-1.1418,-1.2423,-1.3425,-1.446,-1.5241,0.0,0.0,-1.7234,-1.7877,-1.8958,-1.956,-2.0238,-2.1081,-2.1619,-2.2171,-2.2694,-2.297,-2.3108,-2.3108,-2.3108,-2.3108,-2.3108,-2.3108,-2.3108,-2.3047,-2.2249,-2.1396,-2.0504,-1.9404,-1.8075,-1.6682,-1.6016,-1.5635,-1.539,-1.4932,-1.4611,-1.4463,-1.4463,-1.3982,-1.3351,-1.3117,-1.2153,-1.1019,0.0,0.0,0.0,0.0,0.0,0.0,0.0,0.0,0.0,0.0,0.0,0.0,0.0,0.0,-1.499,0.0,0.0,-1.7461,-1.8805,-1.9549,-2.0156,-2.081,-2.1084,-2.1064,-2.0625,-2.0927,-2.1278,-2.1543,-2.1943,-2.2197,-2.2197,-2.2393,-2.251,-2.251,-2.2672,-2.2779,-2.2779,-2.2984,-2.3091,-2.3091,-2.3091,-2.3091,-2.3091,-2.3091,-2.3091,-2.3091,-2.2492,-2.2217,-2.2076,-2.0305,-1.9426,-1.9109,-1.7292,-1.6031,-1.5164,-1.5017,-1.4689,-1.4282,-1.4142,-1.4088,-1.4088,-0.4656,-0.4696,-0.4696,-0.4696,-0.4656,-0.4616,-0.4616,-0.5339,-0.6157,-0.6928,-0.8312,-0.9631,-1.0667,-1.1301,-1.2271,0.0,0.0,0.0,0.0,-1.7225,-1.8028,-1.9108,-2.0163,-2.0943,-2.1481,-2.2033,-2.2556,-2.3108,-2.3108,-2.3108,-2.3108,-2.3108,-2.3108,-2.3108,-2.3108,-2.3108,-2.3078,-2.2414,-2.1647,-2.0782,-1.9911,-1.8827,-1.7655,-1.6617,-1.6173,-1.6036,-1.5566,-1.5146,-1.4795,-1.4883,-1.4619,-1.4231,-1.4231,-1.3466,-1.2487,-1.2255,-1.1221,0.0,0.0,0.0,0.0,0.0,0.0,0.0,0.0,0.0,-1.425,-1.4757,-1.5781,-1.6838,-1.7607,-1.8164,-1.8984,-2.0498,-2.0801,-2.1114,-2.1787,-2.1885,-2.1787,-2.1473,-2.1444,-2.158,-2.1973,-2.2383,-2.2637,-2.2637,-2.2906,-2.3091,-2.3091,-2.3091,-2.3091,-2.3091,-2.3091,-2.3091,-2.3091,-2.3091,-2.3091,-2.3091,-2.3091,-2.3091,-2.3091,-2.3091,-2.296,-2.2677,-2.1212,-2.0477,-2.007,-1.8126,-1.6614,-1.5478,-1.5418,-1.511,-1.4656,-1.4362,-1.4255,-1.4255,0.0,-0.4696,-0.4696,-0.4696,-0.4496,-0.4354,-0.4354,-0.4986,-0.577,-0.6626,-0.7425,-0.8242,-0.9138,-1.0144,-1.15,-1.3407,0.0,0.0,-1.7174,-1.7802,-1.8593,-1.966,-2.0352,-2.0943,-2.1481,-2.2033,-2.2556,-2.3108,-2.3108,-2.3108,-2.3108,-2.3108,-2.3108,-2.3108,-2.3108,-2.3108,-2.3095,-2.3005,-2.2506,-2.169,-2.0814,-1.9912,-1.8901,-1.726,-1.6406,-1.6036,-1.5566,-1.5146,-1.4844,-1.5215,-1.5059,-1.4717,-1.4717,-1.4611,-1.4264,-1.3128,0.0,-1.2426,-1.2026,-1.2246,-1.2803,-1.3617,-1.3821,-1.4338,0.0,0.0,-1.657,-1.7369,-1.7954,-1.8461,-1.8984,-1.9774,-2.0469,-2.1025,-2.1484,-2.1768,-2.1875,-2.1885,-2.2002,-2.2334,-2.2363,-2.2393,-2.2441,-2.2822,-2.3023,-2.3023,-2.3062,-2.3091,-2.3091,-2.3091,-2.3091,-2.3091,-2.3091,-2.3091,-2.3091,-2.3091,-2.3091,-2.3091,-2.3091,-2.3091,-2.3091,-2.3091,-2.2536,-2.1382,-1.9093,-1.7444,-1.6379,-1.6103,-1.59,-1.5752,-1.5498,-1.5357,-1.5264,-1.5022,-1.4908,-1.4908,0.0,-0.4567,-0.4416,-0.4262,-0.414,-0.4068,-0.4068,-0.4693,-0.5435,-0.6202,-0.7105,-0.7944,-0.8574,-0.9509,-1.0394,-1.1221,0.0,0.0,-1.5911,-1.7389,-1.8543,-1.9296,-2.0214,-2.0943,-2.1481,-2.2033,-2.2556,-2.3108,-2.3108,-2.3108,-2.3108,-2.3108,-2.3108,-2.3108,-2.3108,-2.3108,-2.3108,-2.3108,-2.2641,-2.1815,-2.0942,-1.9899,-1.873,-1.7262,-1.6299,-1.5625,-1.5195,-1.4932,0.0,0.0,-1.4523,-1.4377,-1.4377,-1.4238,-1.3936,-1.3398,-1.3242,0.0,-1.3633,-1.4228,-1.4834,-1.5181,-1.6247,-1.7278,-1.7367,-1.7871,-1.8322,-1.8345,-1.888,-1.9512,-1.9989,-2.0537,-2.1182,0.0,-2.2129,-2.2334,-2.2578,-2.2402,-2.2314,-2.249,-2.2295,-2.2344,-2.2789,-2.2994,-2.3091,-2.3091,-2.3091,-2.3091,-2.3091,-2.3091,-2.3091,-2.3091,-2.3091,-2.3091,-2.3091,-2.3091,-2.3091,-2.3091,-2.3091,-2.3091,-2.3091,-2.3091,-2.2448,-2.1203,-1.9488,-1.8041,-1.685,-1.6109,-1.5784,-1.5771,-1.5698,-1.5651,-1.5591,-1.5182,-1.5008,-1.5008,0.0,-0.4476,-0.4222,-0.3952,-0.3838,-0.3786,-0.3786,-0.4364,-0.5069,-0.5786,-0.6738,-0.7564,-0.8135,-0.8775,-0.9291,-0.9672,-1.163,0.0,0.0,-1.6696,-1.81,-1.897,-1.9924,-2.0717,-2.1282,-2.1945,-2.2406,-2.2656,-2.2957,-2.3032,-2.2882,-2.3032,-2.3108,-2.3108,-2.3108,-2.3108,-2.3108,-2.3108,-2.2676,-2.1939,-2.105,-1.993,-1.8594,-1.7174,-1.6117,-1.5352,-1.4932,-1.4666,0.0,0.0,-1.3938,-1.3938,-1.3938,-1.3802,-1.3682,-1.3682,-1.3769,-1.4047,-1.4902,-1.5908,-1.6772,-1.7111,-1.8428,-1.9449,-1.867,-1.908,-1.953,-1.9226,-1.9658,-2.0225,-2.0664,-2.1113,-2.166,-2.2393,-2.2607,-2.275,-2.3052,-2.274,-2.251,-2.251,-2.2139,-2.2168,-2.2847,-2.2925,-2.2974,-2.3081,-2.3091,-2.3091,-2.3091,-2.3091,-2.3091,-2.3091,-2.3091,-2.3091,-2.3091,-2.3091,-2.3091,-2.3091,-2.3091,-2.3091,-2.3091,-2.3091,-2.2448,-2.1248,-2.0034,-1.8818,-1.7598,-1.6339,-1.5784,-1.5784,-1.5784,-1.5784,-1.5731,-1.5357,-1.5204,-1.5204,0.0,0.0,-0.4222,-0.3952,-0.3689,-0.3517,-0.3517,-0.398,-0.463,-0.5493,-0.6086,-0.6765,-0.7627,-0.7739,-0.8284,-0.9576,-1.0666,-1.2324,-1.4836,-1.5903,-1.7218,-1.8933,-1.9547,-2.01,-2.0704,-2.1757,-2.2058,-2.1543,-2.2581,-2.2832,-2.2347,-2.2857,-2.3108,-2.3108,-2.3108,-2.3108,-2.3108,-2.3108,-2.2794,-2.2218,-2.1344,-2.0236,-1.8903,-1.7158,-1.6056,-1.5352,-1.4932,0.0,0.0,0.0,-1.3525,-1.3525,-1.3525,-1.3773,0.0,-1.4085,-1.4414,-1.4941,-1.5808,-1.708,-1.8434,-1.968,-2.0041,-2.0297,-2.1108,-2.0569,-2.0018,-2.0458,-2.0566,-2.0684,-2.1093,-2.1572,-2.2012,-2.2441,-2.2808,-2.3081,-2.3091,-2.274,-2.251,-2.251,-2.2139,-2.206,-2.249,-2.2529,-2.2705,-2.3062,-2.3091,-2.3091,-2.3091,-2.3091,-2.3091,-2.3091,-2.3091,-2.3091,-2.3091,-2.3091,-2.3091,-2.3091,-2.3091,-2.3091,-2.3091,-2.3091,-2.2448,-2.1248,-2.0034,-1.8818,-1.7598,-1.6339,-1.5784,-1.5784,-1.5784,-1.5784,-1.5778,-1.5764,-1.5758,-1.5758,0.0,0.0,0.0,-0.3678,-0.3559,-0.3495,-0.3495,-0.4219,-0.4964,-0.5527,-0.6331,0.0,0.0,0.0,0.0,0.0,0.0,-1.1274,-1.2407,-1.4685,-1.6254,-1.6848,-1.8075,-1.9171,-2.0075,-2.0464,-2.0916,-2.1493,-2.1857,-2.1945,-2.1769,-2.1958,-2.2046,-2.2046,-2.2046,-2.2046,-2.2046,-2.2046,-2.2146,-2.216,-2.0579,-1.9488,-1.8587,-1.7027,-1.5469,-1.4131,0.0,0.0,0.0,0.0,-1.2827,-1.3096,-1.3096,0.0,0.0,-1.3938,-1.4443,-1.5055,-1.6188,-1.7678,-1.9048,-1.9442,-2.0711,-2.166,-2.1029,-2.1075,-2.1154,-2.0682,-2.0332,-2.0264,-2.0703,-2.0908,-2.129,-2.1982,-2.2451,-2.2822,-2.3052,-2.274,-2.2412,-2.2129,-2.1973,0.0,0.0,-2.2344,-2.2685,-2.3062,-2.3091,-2.3091,-2.3091,-2.3091,-2.3091,-2.3091,-2.3091,-2.3091,-2.3091,-2.3091,-2.3091,-2.3091,-2.3091,-2.3091,-2.3091,-2.3091,-2.2862,-2.2448,-2.1212,-1.9988,-1.8818,-1.7591,-1.6574,-1.5784,-1.5784,-1.5784,-1.5784,-1.5784,-1.5784,-1.5784,0.0,0.0,0.0,0.0,0.0,0.0,0.0,0.0,0.0,0.0,0.0,0.0,0.0,0.0,0.0,0.0,0.0,0.0,0.0,0.0,-1.4695,-1.5454,-1.6315,-1.7334,-1.8549,-1.8635,-1.9095,-2.0024,-2.0413,-2.0614,-2.0614,-2.079,-2.0891,-2.0891,-2.0891,-2.0891,-2.0891,-2.066,-2.0665,-2.0656,-1.9187,-1.8107,-1.728,-1.6152,-1.472,0.0,0.0,0.0,0.0,-1.2227,-1.2285,-1.2694,0.0,0.0,-1.3882,-1.4904,-1.5336,-1.5821,-1.7394,-1.8829,-1.9947,-2.038,-2.1479,-2.2213,-2.1314,-2.1298,-2.1286,-2.0515,-1.999,-1.9775,-2.0096,-1.998,-2.0264,-2.1465,-2.1875,-2.2272,-2.2994,-2.274,-2.2412,-2.2139,-2.1982,-2.1943,0.0,0.0,-2.2685,-2.3062,-2.3091,-2.3091,-2.3091,-2.3091,-2.3091,-2.3091,-2.3091,-2.3091,-2.3091,-2.3091,-2.3091,-2.3091,-2.3091,-2.3091,-2.3091,-2.3091,-2.3091,-2.3047,-2.18,-2.0845,-2.0034,-1.8365,-1.7225,-1.6433,-1.5967,-1.5784,-1.5784,-1.5784,-1.5784,-1.5784,0.0,0.0,0.0,0.0,0.0,0.0,0.0,0.0,0.0,0.0,0.0,0.0,0.0,0.0,0.0,0.0,0.0,0.0,0.0,0.0,0.0,-1.462,-1.4357,-1.4838,-1.6265,-1.6417,-1.6741,-1.7307,-1.8321,-1.8834,-1.8871,-1.9408,-1.9659,-1.9659,-1.9685,-1.9723,-1.9697,-1.9077,-1.855,-1.803,-1.7396,-1.6354,-1.5126,-1.4722,0.0,0.0,0.0,0.0,0.0,0.0,0.0,0.0,0.0,0.0,-1.5441,-1.6827,-1.7032,-1.7231,-1.9338,-2.0331,-2.1076,-2.2314,-2.2278,-2.1914,-2.1893,-2.1191,-2.0439,-1.9941,-1.9512,-1.9209,0.0,0.0,-1.9153,-2.082,-2.1171,-2.1668,-2.2916,-2.275,-2.2539,0.0,0.0,0.0,0.0,0.0,-2.2672,-2.3062,-2.3091,-2.3091,-2.3091,-2.3091,-2.3091,-2.3091,-2.3091,-2.3091,-2.3091,-2.3091,-2.3091,-2.3091,-2.3091,-2.3091,-2.3091,-2.3091,-2.3091,-2.3047,-2.1889,-2.1337,-2.1025,-1.8726,-1.7738,-1.7505,-1.6244,-1.5784,-1.5784,-1.5784,-1.5784,-1.5784,0.0,0.0,0.0,0.0,0.0,0.0,0.0,0.0,0.0,0.0,0.0,0.0,0.0,0.0,0.0,0.0,0.0,0.0,0.0,0.0,0.0,0.0,0.0,-1.3977,-1.4737,-1.4792,0.0,0.0,0.0,-1.6724,-1.7083,-1.7663,-1.7933,-1.7958,-1.8399,-1.8606,-1.8557,-1.7958,-1.7854,-1.797,0.0,-1.5507,-1.4836,0.0,0.0,0.0,0.0,0.0,0.0,0.0,0.0,0.0,0.0,-1.6214,-1.6493,-1.7501,-1.7743,-1.7993,-1.9482,-2.0267,-2.0791,-2.1425,-2.1258,-2.0883,-2.0516,-2.0258,-1.9873,-1.9085,-1.8623,-1.8144,0.0,0.0,0.0,-1.9658,-2.0869,0.0,-2.2964,-2.3003,0.0,-2.2549,0.0,-2.2744,-2.2539,-2.275,-2.2984,-2.3091,-2.3091,-2.3091,-2.3091,-2.3091,-2.3091,-2.3091,-2.3091,-2.3091,-2.3091,-2.3091,-2.3091,-2.3091,-2.3091,-2.3091,-2.3091,-2.3091,-2.3091,-2.3091,-2.2765,-2.1632,-1.9898,-1.9314,-1.7948,-1.6244,-1.592,-1.5784,-1.5784,-1.5784,-1.5784,-1.5784,0.0,0.0,0.0,0.0,0.0,0.0,0.0,0.0,0.0,0.0,0.0,0.0,0.0,0.0,0.0,0.0,0.0,0.0,0.0,0.0,0.0,0.0,0.0,-1.2157,-1.3079,-1.309,0.0,0.0,0.0,0.0,0.0,-1.5429,-1.5576,-1.5599,-1.5938,-1.6094,-1.6049,0.0,0.0,0.0,0.0,0.0,0.0,0.0,0.0,0.0,0.0,0.0,0.0,0.0,0.0,-1.6094,-1.7562,-1.7748,-1.7621,-1.8731,0.0,-1.9092,-2.0157,-2.0674,-2.0918,-2.1132,-2.0752,-2.0117,-1.9502,-1.9173,-1.8779,-1.7725,-1.7168,-1.6719,-1.621,-1.6707,-1.7584,0.0,0.0,0.0,-2.2685,-2.2984,-2.3013,0.0,-2.2955,0.0,-2.2812,-2.2955,-2.3091,-2.3091,-2.3091,-2.3091,-2.3091,-2.3091,-2.3091,-2.3091,-2.3091,-2.3091,-2.3091,-2.3091,-2.3091,-2.3091,-2.3091,-2.3091,-2.3091,-2.3091,-2.3091,-2.3091,-2.3091,-2.2315,-2.0998,-1.9943,-1.8672,-1.7343,-1.6244,-1.5784,-1.5784,-1.5784,-1.5784,-1.5784,0.0,0.0,0.0,0.0,0.0,0.0,0.0,0.0,0.0,0.0,0.0,0.0,0.0,0.0,0.0,0.0,0.0,0.0,0.0,0.0,0.0,0.0,0.0,-1.0188,-1.1487,-1.1508,0.0,0.0,0.0,0.0,0.0,0.0,0.0,0.0,0.0,0.0,0.0,0.0,0.0,0.0,0.0,0.0,0.0,0.0,0.0,0.0,0.0,0.0,0.0,0.0,-1.6287,-1.6924,-1.8703,-1.8982,-1.8868,-2.0145,-2.0266,-2.0195,-2.1044,-2.1278,-2.1278,-2.1278,-2.0654,-1.9746,-1.8734,-1.8223,-1.7539,-1.6202,0.0,-1.5293,-1.5186,-1.5342,-1.6152,-1.811,0.0,-2.0518,-2.2266,-2.2779,-2.3033,-2.3091,-2.3091,-2.3091,-2.3091,-2.3091,-2.3091,-2.3091,-2.3091,-2.3091,-2.3091,-2.3091,-2.3091,-2.3091,-2.3091,-2.3091,-2.3091,-2.3091,-2.3091,-2.3091,-2.3091,-2.3091,-2.3091,-2.3091,-2.3091,-2.3091,-2.3091,-2.3003,-2.2677,-2.0449,-1.9405,-1.9039,-1.6702,-1.5784,-1.5784,-1.5784,-1.5784,-1.5784,0.0,0.0,0.0,0.0,0.0,0.0,0.0,0.0,0.0,0.0,-0.5741,-0.5404,0.0,0.0,0.0,0.0,0.0,0.0,0.0,0.0,0.0,0.0,0.0,0.0,0.0,0.0,0.0,0.0,0.0,0.0,0.0,0.0,0.0,0.0,0.0,0.0,0.0,0.0,0.0,0.0,0.0,0.0,0.0,0.0,0.0,0.0,0.0,0.0,0.0,0.0,-1.7085,-1.8003,-1.9675,-2.0192,-2.0292,-2.0907,-2.0794,-2.0683,-2.1533,-2.1777,-2.1777,-2.1777,-2.1103,-2.0077,-1.8477,-1.7793,0.0,0.0,-1.4951,-1.4678,-1.3965,-1.5,-1.6339,-1.7422,-1.8906,-2.0518,-2.2266,-2.2578,-2.2711,0.0,-2.3091,-2.3091,-2.3091,-2.3091,-2.3091,-2.3091,-2.3091,-2.3091,-2.3091,-2.3091,-2.3091,-2.3091,-2.3091,-2.3091,-2.3091,-2.3091,-2.3091,-2.3091,-2.3091,-2.3091,-2.3091,-2.3091,-2.3091,-2.3091,-2.3091,-2.2536,-2.148,-2.0079,-1.891,-1.787,-1.6386,-1.5784,-1.5784,-1.5784,-1.5784,-1.5784,0.0,0.0,0.0,0.0,0.0,0.0,0.0,-0.6654,-0.7073,-0.699,-0.6642,-0.6162,-0.5571,-0.5557,-0.5585,0.0,0.0,0.0,0.0,0.0,0.0,0.0,0.0,0.0,0.0,0.0,0.0,0.0,0.0,0.0,0.0,0.0,0.0,0.0,0.0,0.0,0.0,0.0,0.0,0.0,0.0,0.0,0.0,0.0,0.0,0.0,0.0,0.0,0.0,0.0,-1.6087,-1.739,-1.9489,-2.017,-2.0293,-2.0457,-2.0885,-2.1388,-2.1768,-2.1885,-2.1885,-2.1885,-2.0713,-1.917,-1.7686,0.0,0.0,0.0,-1.3815,-1.3672,-1.3262,-1.4209,0.0,-1.6221,-1.7617,-1.9277,-2.123,-2.1699,-2.2126,-2.2994,-2.3091,-2.3091,-2.3091,-2.3091,-2.3091,-2.3091,-2.3091,-2.3091,-2.3091,-2.3091,-2.3091,-2.3091,-2.3091,-2.3091,-2.3091,-2.3091,-2.3091,-2.3091,-2.3091,-2.3091,-2.3091,-2.3091,-2.3091,-2.3057,-2.2448,-2.1845,-2.1159,-1.9314,-1.8234,-1.7544,-1.6292,-1.5784,-1.5784,-1.5784,-1.5784,-1.5784,0.0,0.0,0.0,0.0,0.0,0.0,0.0,-0.7275,-0.7714,-0.7972,-0.7894,-0.7368,-0.6226,-0.5739,-0.5434,0.0,0.0,0.0,0.0,0.0,0.0,0.0,0.0,0.0,0.0,0.0,0.0,0.0,0.0,0.0,0.0,0.0,0.0,0.0,0.0,0.0,0.0,0.0,0.0,0.0,0.0,0.0,0.0,0.0,0.0,0.0,0.0,0.0,0.0,0.0,-1.4814,-1.6058,-1.8248,-1.9264,-1.9658,-1.9756,-2.0644,-2.1621,-2.1719,-2.1816,-2.1865,-2.1768,-2.0254,-1.8383,-1.7009,-1.5723,0.0,-1.3169,-1.2905,-1.2905,-1.2905,-1.3496,-1.428,0.0,-1.6445,-1.7988,-2.0165,-2.0889,-2.1629,0.0,-2.3042,0.0,-2.3091,-2.3091,-2.3091,-2.3091,-2.3091,-2.3091,-2.3091,-2.3091,-2.3091,-2.3091,-2.3091,-2.3091,-2.3091,-2.3091,-2.3091,-2.3091,-2.3091,-2.3091,-2.3091,-2.3091,-2.296,-2.2677,-2.1712,-2.1159,-2.0755,-1.8596,-1.7692,-1.7544,-1.6292,-1.5784,-1.5784,-1.5784,-1.5784,-1.5784,0.0,0.0,0.0,0.0,0.0,0.0,0.0,-0.8374,-0.9356,-0.9322,-0.9218,-0.8687,-0.754,-0.6637,-0.5894,0.0,0.0,0.0,0.0,0.0,0.0,0.0,0.0,0.0,0.0,0.0,0.0,0.0,0.0,0.0,0.0,0.0,0.0,0.0,0.0,0.0,0.0,0.0,0.0,0.0,0.0,0.0,0.0,0.0,0.0,0.0,0.0,0.0,0.0,0.0,0.0,-1.4445,-1.5497,-1.7142,-1.8792,-1.9228,0.0,0.0,-2.1182,-2.1582,-2.1787,-2.1356,-2.0254,-1.8789,-1.7087,0.0,-1.4451,-1.3169,-1.2905,-1.2905,-1.2905,-1.3262,-1.3965,-1.5205,0.0,-1.7506,-1.9668,-2.0664,-2.1522,-2.2461,0.0,0.0,-2.3091,-2.3091,-2.3091,-2.3091,-2.3091,-2.3091,-2.3091,-2.3091,-2.3091,-2.3091,-2.3091,-2.3091,-2.3091,-2.3091,-2.3091,-2.3091,-2.3091,-2.3091,-2.3091,-2.3091,-2.2492,-2.148,-2.1337,-2.0666,-1.9534,-1.8234,-1.7692,-1.7544,-1.6292,-1.5784,-1.5784,-1.5784,-1.5784,-1.5784,0.0,0.0,0.0,0.0,0.0,0.0,-0.7671,-0.8447,-0.9121,-0.9767,-0.9397,-0.8725,-0.7863,-0.713,-0.6299,-0.5373,0.0,0.0,0.0,0.0,0.0,0.0,0.0,0.0,0.0,0.0,0.0,0.0,0.0,0.0,0.0,0.0,0.0,0.0,0.0,0.0,0.0,0.0,0.0,0.0,0.0,0.0,0.0,0.0,0.0,0.0,0.0,0.0,0.0,0.0,0.0,0.0,-1.4016,-1.5205,0.0,0.0,-1.9111,-2.0273,-2.0713,-2.1162,-2.1414,-2.1239,-1.9863,-1.8203,-1.697,0.0,-1.4111,-1.3111,-1.2905,-1.2905,-1.2905,-1.3042,-1.3467,-1.4455,-1.4913,-1.5888,-1.8086,-1.8906,-1.9865,-2.1512,-2.2129,0.0,0.0,-2.3091,-2.3091,-2.3091,-2.3091,-2.3091,-2.3091,-2.3091,-2.3091,-2.3091,-2.3091,-2.3091,-2.3091,-2.3091,-2.3091,-2.3091,-2.3091,-2.3091,-2.3091,-2.3091,-2.2448,-2.1248,-2.0522,-1.9943,-1.936,-1.735,-1.699,-1.7544,-1.6292,-1.5784,-1.5784,-1.5784,-1.5784,-1.5784,0.0,0.0,0.0,0.0,0.0,-0.6332,-0.7797,-0.8444,-0.9097,-1.0036,-0.9605,-0.8963,-0.8372,-0.7491,-0.6561,-0.5645,-0.5394,0.0,0.0,0.0,0.0,0.0,0.0,0.0,0.0,0.0,0.0,0.0,0.0,0.0,0.0,0.0,0.0,0.0,0.0,0.0,0.0,0.0,0.0,0.0,0.0,0.0,0.0,0.0,0.0,0.0,0.0,0.0,0.0,0.0,0.0,0.0,0.0,0.0,0.0,0.0,-1.8018,-1.9316,-2.0038,-2.042,-2.0654,-2.0781,-1.9326,-1.7531,-1.6465,-1.511,-1.3808,-1.278,-1.2749,-1.2905,-1.2905,-1.2905,-1.3115,-1.3802,-1.4133,-1.4962,-1.6924,-1.7773,-1.8822,-2.0596,0.0,-2.1973,-2.2705,-2.2945,-2.3091,-2.3091,-2.3091,-2.3091,-2.3091,-2.3091,-2.3091,-2.3091,-2.3091,-2.3091,-2.3091,-2.3091,-2.3091,-2.3091,-2.3091,-2.3091,-2.3091,-2.3091,-2.2448,-2.1248,-2.0034,-1.9497,-1.9314,-1.6835,-1.6574,-1.7544,-1.6292,-1.5784,-1.5784,-1.5784,-1.5784,-1.5784,0.0,0.0,0.0,0.0,0.0,0.0,-0.7041,-0.8519,-0.9757,-1.0234,-1.0067,-0.9738,-0.9332,-0.7792,-0.664,-0.6219,-0.5652,0.0,0.0,0.0,0.0,0.0,0.0,0.0,0.0,0.0,0.0,-0.9311,0.0,0.0,0.0,0.0,0.0,0.0,0.0,0.0,0.0,0.0,0.0,0.0,0.0,0.0,0.0,0.0,0.0,0.0,0.0,0.0,0.0,0.0,0.0,0.0,0.0,0.0,0.0,0.0,-1.6741,-1.7686,-1.8955,-1.9307,-1.9404,-1.9824,-1.8652,-1.6986,-1.5476,-1.4592,-1.3667,-1.2136,-1.2393,-1.2905,-1.2905,-1.2905,-1.3042,-1.3447,-1.4228,-1.5234,-1.6521,-1.7798,-1.8909,0.0,-2.0664,-2.1375,-2.1855,-2.2646,-2.3091,-2.3091,-2.3091,-2.3091,-2.3091,-2.3091,-2.3091,-2.3091,-2.3091,-2.3091,-2.3091,-2.3091,-2.3091,-2.3091,-2.3091,-2.3091,-2.3091,-2.3091,-2.2448,-2.1248,-2.0034,-1.9497,-1.9314,-1.6835,-1.6574,-1.7544,-1.6292,-1.5784,-1.5784,-1.5784,-1.5784,-1.5784,0.0,0.0,0.0,0.0,0.0,0.0,0.0,-0.7788,-0.8577,-0.9316,-0.871,-0.8243,-0.8405,-0.7209,-0.6419,-0.6471,-0.5919,0.0,0.0,0.0,0.0,0.0,0.0,0.0,0.0,0.0,-0.8633,-0.929,-1.0441,-1.12,0.0,0.0,0.0,0.0,0.0,0.0,0.0,0.0,0.0,0.0,0.0,0.0,0.0,0.0,0.0,0.0,0.0,0.0,0.0,0.0,0.0,0.0,0.0,0.0,0.0,0.0,0.0,0.0,-1.7005,-1.7562,-1.7949,-1.775,-1.6885,-1.5819,-1.508,-1.4278,-1.3468,-1.2698,-1.2749,-1.2905,-1.2905,-1.2905,-1.3336,-1.46,-1.5039,0.0,-1.6992,0.0,0.0,-1.9844,-2.1424,-2.2545,-2.2734,-2.2945,-2.3091,-2.3091,-2.3091,-2.3091,-2.3091,-2.3091,-2.3091,-2.3091,-2.3091,-2.3091,-2.3091,-2.3091,-2.3091,-2.3091,-2.3091,-2.3091,-2.3091,-2.3091,-2.1996,-2.0034,-1.9679,-1.9497,-1.9314,-1.6835,-1.7023,-1.8726,-1.6615,-1.5784,-1.5784,-1.5784,-1.5784,-1.5784,0.0,0.0,0.0,0.0,0.0,0.0,0.0,-0.7476,-0.8102,-0.8494,-0.7962,-0.7603,-0.775,-0.6756,-0.6224,-0.6566,-0.6159,0.0,0.0,0.0,0.0,0.0,0.0,0.0,0.0,-0.8177,-0.8907,-0.9145,-1.0862,-1.1552,-1.1311,-1.1928,-1.1652,0.0,0.0,0.0,0.0,0.0,0.0,0.0,0.0,0.0,0.0,0.0,0.0,0.0,0.0,0.0,0.0,0.0,0.0,0.0,0.0,0.0,0.0,0.0,-1.3638,-1.4907,0.0,-1.6221,-1.6611,-1.6504,-1.582,-1.5002,-1.4324,-1.3818,-1.3313,-1.263,-1.27,-1.2905,-1.2905,-1.2905,-1.3248,-1.4287,-1.4727,-1.5391,-1.6731,0.0,-1.9209,-2.0245,-2.1748,-2.2734,-2.2847,-2.3003,-2.3091,-2.3091,-2.3091,-2.3091,-2.3091,-2.3091,-2.3091,-2.3091,-2.3091,-2.3091,-2.3091,-2.3091,-2.3091,-2.3091,-2.3091,-2.3091,-2.3091,-2.3091,-2.2041,-2.0169,-1.9716,-1.9497,0.0,-1.6835,-1.6976,-1.8634,-1.6608,-1.5784,-1.5784,-1.5784,-1.5784,-1.5784,0.0,0.0,0.0,0.0,0.0,0.0,0.0,-0.748,-0.8181,-0.7844,-0.7764,-0.7644,-0.7356,-0.6479,-0.6079,-0.6538,0.0,0.0,0.0,0.0,0.0,0.0,0.0,0.0,0.0,-0.8528,-0.9211,-0.8966,-1.1162,-1.1811,-1.0965,-1.1792,-1.1527,-1.0356,0.0,0.0,0.0,0.0,0.0,0.0,0.0,0.0,0.0,0.0,0.0,0.0,0.0,0.0,0.0,0.0,0.0,0.0,0.0,0.0,0.0,0.0,0.0,0.0,0.0,-1.5225,-1.5371,-1.5772,-1.5263,-1.4403,-1.334,-1.3287,0.0,-1.2106,-1.2421,-1.2915,-1.2944,-1.2925,-1.2954,-1.3111,-1.376,-1.4708,-1.6095,-1.7393,-1.9014,-2.1083,-2.1728,-2.2129,-2.2519,-2.2867,-2.3091,-2.3091,-2.3091,-2.3091,-2.3091,-2.3091,-2.3091,-2.3091,-2.3091,-2.3091,-2.3091,-2.3091,-2.3091,-2.3091,-2.3091,-2.3091,-2.3091,-2.3003,-2.2306,-2.1114,-1.9988,-1.9443,-1.9177,-1.6889,-1.6622,-1.7544,-1.6292,-1.5784,-1.5784,-1.5784,-1.5784,-1.5784,0.0,0.0,0.0,0.0,0.0,0.0,0.0,0.0,0.0,0.0,-0.7463,-0.7127,-0.6755,-0.6222,-0.6009,0.0,0.0,0.0,0.0,0.0,0.0,0.0,0.0,0.0,0.0,-0.8805,-0.9717,-0.9672,-1.1738,-1.2619,-1.2412,-1.2036,-1.1833,-1.171,-1.1311,0.0,0.0,0.0,0.0,0.0,0.0,0.0,0.0,0.0,0.0,0.0,-1.0813,-1.0525,0.0,0.0,0.0,0.0,0.0,0.0,0.0,0.0,-1.202,-1.2182,-1.3202,0.0,-1.3906,-1.3707,-1.3502,-1.3276,0.0,-1.2997,-1.2973,-1.2695,-1.2774,-1.3003,-1.3301,-1.3096,-1.3443,-1.5077,-1.5508,-1.6172,-1.7803,-1.9407,-2.0986,-2.2477,-2.274,-2.2838,-2.2935,-2.3033,-2.3091,-2.3091,-2.3091,-2.3091,-2.3091,-2.3091,-2.3091,-2.3091,-2.3091,-2.3091,-2.3091,-2.3091,-2.3091,-2.3091,-2.3091,-2.3091,-2.3047,-2.212,-2.1069,-1.9898,-1.9625,-1.9001,-1.8095,-1.7498,-1.7412,-1.7544,-1.6292,-1.5784,-1.5784,-1.5784,-1.5784,-1.5784,0.0,0.0,0.0,0.0,0.0,0.0,0.0,0.0,0.0,0.0,0.0,0.0,0.0,0.0,0.0,0.0,0.0,0.0,0.0,0.0,0.0,0.0,0.0,0.0,-0.7,-0.8898,-0.974,-0.9443,-1.1429,-1.2073,-1.1468,-1.1375,-1.1089,-1.0639,-1.0721,0.0,0.0,0.0,0.0,0.0,0.0,0.0,0.0,0.0,0.0,0.0,-1.0913,-1.0768,0.0,-1.0065,-0.9916,-0.9788,0.0,0.0,0.0,0.0,-1.1591,-1.1575,-1.2618,-1.3184,-1.3447,-1.3223,-1.3164,-1.3164,-1.3164,0.0,0.0,0.0,0.0,-1.2974,-1.3174,-1.3193,-1.3613,-1.4961,-1.5703,-1.6907,-1.9199,-2.0684,-2.1892,-2.2964,-2.3091,-2.3091,-2.3091,-2.3091,-2.3091,-2.3091,-2.3091,-2.3091,-2.3091,-2.3091,-2.3091,-2.3091,-2.3091,-2.3091,-2.3091,-2.3091,-2.3091,-2.3091,-2.3091,-2.3091,-2.3091,-2.2403,-2.1489,-2.035,-2.035,-1.9314,-1.7692,-1.7692,-1.7365,-1.6763,-1.6062,-1.5784,-1.5784,-1.5784,-1.5784,-1.5784,0.0,0.0,0.0,0.0,0.0,0.0,0.0,0.0,0.0,0.0,0.0,0.0,0.0,0.0,0.0,0.0,0.0,0.0,0.0,0.0,0.0,0.0,0.0,-0.7209,-0.7356,-0.9018,-0.965,-0.912,-1.0958,-1.1226,-1.0044,-1.052,-1.0092,-0.8995,-0.9934,0.0,0.0,0.0,0.0,0.0,0.0,0.0,0.0,0.0,0.0,0.0,0.0,0.0,0.0,-1.0337,-1.0148,-0.9987,-0.9893,0.0,0.0,0.0,0.0,0.0,-1.2596,-1.3281,-1.3574,-1.3447,-1.3457,-1.3486,-1.3428,0.0,0.0,0.0,0.0,0.0,0.0,-1.3418,-1.3877,-1.4416,-1.5723,-1.765,-2.0419,-2.1505,-2.2266,-2.3003,-2.3091,-2.3091,-2.3091,-2.3091,-2.3091,-2.3091,-2.3091,-2.3091,-2.3091,-2.3091,-2.3091,-2.3091,-2.3091,-2.3091,-2.3091,-2.3091,-2.3091,-2.3091,-2.3091,-2.3091,-2.3091,-2.2906,-2.2262,-2.1293,-2.1114,-1.9761,-1.7692,-1.7692,-1.6943,-1.5784,-1.5784,-1.5784,-1.5784,-1.5784,-1.5784,-1.5784,0.0,0.0,0.0,0.0,0.0,0.0,0.0,0.0,0.0,0.0,0.0,0.0,0.0,0.0,0.0,0.0,0.0,0.0,0.0,0.0,0.0,0.0,-0.8008,-0.8137,-0.892,-0.957,-0.9981,-1.0178,-1.1556,-1.1826,-1.1072,-1.0601,-1.0109,-0.9677,-1.0637,-1.1131,0.0,0.0,0.0,0.0,0.0,0.0,0.0,0.0,0.0,0.0,0.0,0.0,0.0,-1.0606,-1.0748,-1.0889,-1.0319,0.0,0.0,0.0,0.0,0.0,-1.2938,-1.3695,-1.3841,-1.3154,-1.3242,-1.3418,-1.3057,0.0,0.0,0.0,0.0,0.0,0.0,-1.4297,-1.4971,-1.6112,-1.8018,-1.9873,-2.1465,-2.2109,-2.2598,-2.3033,-2.3091,-2.3091,-2.3091,-2.3091,-2.3091,-2.3091,-2.3091,-2.3091,-2.3091,-2.3091,-2.3091,-2.3091,-2.3091,-2.3091,-2.3091,-2.3091,-2.3091,-2.3091,-2.3091,-2.3091,-2.3057,-2.2031,-2.148,-2.1248,-2.0215,-1.9001,-1.7692,-1.7692,-1.6943,-1.5784,-1.5784,-1.5784,-1.5784,-1.5784,-1.5784,-1.5784,0.0,0.0,0.0,0.0,0.0,0.0,0.0,0.0,0.0,0.0,0.0,0.0,0.0,0.0,0.0,0.0,0.0,0.0,0.0,0.0,0.0,-0.9019,-0.9069,-0.9144,-0.929,-1.0432,-1.1118,-1.1254,-1.1808,-1.1927,-1.1592,-1.0307,-0.9741,-0.9806,-1.0248,-1.064,-1.1024,0.0,0.0,0.0,0.0,0.0,0.0,0.0,0.0,0.0,0.0,0.0,0.0,0.0,-1.0665,-1.1072,-1.0405,0.0,0.0,0.0,0.0,0.0,-1.2847,-1.3477,-1.3701,-1.3311,-1.3711,-1.4209,-1.4238,-1.4072,0.0,0.0,0.0,0.0,0.0,-1.5352,-1.6406,-1.813,-1.964,-2.0966,-2.207,-2.2393,-2.2666,-2.3042,-2.3091,-2.3091,-2.3091,-2.3091,-2.3091,-2.3091,-2.3091,-2.3091,-2.3091,-2.3091,-2.3091,-2.3091,-2.3091,-2.3091,-2.3091,-2.3091,-2.3091,-2.3091,-2.3091,-2.3091,-2.3091,-2.2545,-2.2262,-2.2217,-2.0989,-1.9807,-1.8634,-1.7963,-1.6943,-1.5784,-1.5784,-1.5784,-1.5784,-1.5784,-1.5784,-1.5784,0.0,0.0,0.0,0.0,0.0,0.0,0.0,0.0,0.0,0.0,0.0,0.0,0.0,0.0,0.0,0.0,0.0,0.0,0.0,0.0,-0.9488,-0.9495,-0.9975,-1.0181,-0.9987,-1.1313,-1.2054,-1.212,-1.2034,-1.1789,-1.1335,-0.9967,-0.9412,-0.9562,-0.9744,-1.009,-1.0618,0.0,0.0,0.0,0.0,0.0,0.0,0.0,0.0,0.0,0.0,0.0,0.0,0.0,0.0,0.0,0.0,0.0,0.0,-1.1641,-1.1789,-1.199,-1.2806,-1.3262,-1.3525,-1.3633,-1.4072,-1.4648,-1.5264,-1.5088,-1.4961,0.0,0.0,0.0,0.0,-1.657,-1.7964,-2.0039,-2.1025,-2.1756,-2.2549,-2.2656,-2.274,-2.3052,-2.3091,-2.3091,-2.3091,-2.3091,-2.3091,-2.3091,-2.3091,-2.3091,-2.3091,-2.3091,-2.3091,-2.3091,-2.3091,-2.3091,-2.3091,-2.3091,-2.3091,-2.3091,-2.3091,-2.3091,-2.3091,-2.3091,-2.3091,-2.3003,-2.1534,-2.035,-1.936,-1.7863,-1.6669,-1.5784,-1.5784,-1.5784,-1.5784,-1.5784,-1.5784,-1.5784,0.0,0.0,0.0,0.0,0.0,0.0,0.0,0.0,0.0,0.0,0.0,0.0,0.0,0.0,0.0,0.0,0.0,0.0,0.0,0.0,-0.965,-1.0026,-1.0504,-1.1133,-1.1958,-1.1998,-1.2141,-1.2461,-1.2394,-1.1515,-0.9853,-0.9717,-0.9373,-0.891,-0.951,-0.9814,0.0,0.0,0.0,0.0,0.0,0.0,0.0,0.0,0.0,0.0,0.0,0.0,0.0,0.0,0.0,0.0,0.0,0.0,-1.174,-1.1789,-1.1789,-1.2054,-1.3163,-1.3486,-1.3603,-1.3968,-1.3821,-1.3916,-1.5137,-1.5088,0.0,-1.6356,0.0,0.0,0.0,-1.7988,-1.9687,-2.1455,-2.2119,-2.2578,-2.2984,-2.3052,-2.3062,-2.3091,-2.3091,-2.3091,-2.3091,-2.3091,-2.3091,-2.3091,-2.3091,-2.3091,-2.3091,-2.3091,-2.3091,-2.3091,-2.3091,-2.3091,-2.3091,-2.3091,-2.3091,-2.3091,-2.3091,-2.3091,-2.3091,-2.3091,-2.3091,-2.296,-2.0629,-1.9579,-1.9314,-1.6929,-1.5879,-1.5784,-1.5784,-1.5784,-1.5784,-1.5784,-1.5784,-1.5784,0.0,0.0,0.0,0.0,0.0,0.0,0.0,0.0,0.0,0.0,0.0,0.0,0.0,0.0,0.0,0.0,0.0,0.0,0.0,0.0,-1.0041,-1.0101,-1.0866,-1.1455,-1.1807,-1.2786,-1.3516,-1.3944,-1.3,-1.1821,-1.0429,-0.9713,-0.9164,-0.8804,-0.9061,0.0,0.0,0.0,0.0,0.0,0.0,0.0,0.0,0.0,0.0,0.0,0.0,0.0,0.0,0.0,-1.1007,-1.1543,0.0,-1.1694,-1.2429,-1.2139,-1.204,-1.2206,-1.2915,-1.3311,-1.3613,-1.4007,-1.4387,0.0,0.0,-1.6523,-1.7158,-1.8447,-1.8676,0.0,0.0,-1.965,-2.0801,-2.1738,-2.2461,-2.2916,-2.3071,-2.3091,-2.3091,-2.3091,-2.3091,-2.3091,-2.3091,-2.3091,-2.3091,-2.3091,-2.3091,-2.3091,-2.3091,-2.3091,-2.3091,-2.3091,-2.3091,-2.3091,-2.3091,-2.3091,-2.3091,-2.3091,-2.3091,-2.3091,-2.3091,-2.3091,-2.3091,-2.296,-2.0539,-1.9497,-1.9314,-1.6835,-1.5784,-1.5784,-1.5784,-1.5784,-1.5784,-1.5784,-1.5784,-1.5784,0.0,0.0,0.0,0.0,0.0,0.0,0.0,0.0,0.0,0.0,0.0,0.0,0.0,0.0,0.0,0.0,0.0,0.0,0.0,-0.9226,-0.9901,-1.0101,-1.0606,-1.1236,-1.1985,-1.2951,-1.3751,-1.4385,-1.3197,-1.1938,-1.0692,-0.9681,-0.9058,-0.8804,0.0,0.0,0.0,0.0,0.0,0.0,0.0,0.0,0.0,0.0,0.0,0.0,0.0,0.0,0.0,0.0,-1.089,-1.1369,0.0,0.0,0.0,-1.2291,-1.2301,-1.2447,-1.2627,-1.2988,-1.3447,-1.3968,0.0,0.0,-1.6843,-1.7695,-1.8623,-2.0001,-2.0215,-2.0156,-2.0303,-2.0791,-2.1337,-2.1816,-2.2598,-2.3091,-2.3091,-2.3091,-2.3091,-2.3091,-2.3091,-2.3091,-2.3091,-2.3091,-2.3091,-2.3091,-2.3091,-2.3091,-2.3091,-2.3091,-2.3091,-2.3091,-2.3091,-2.3091,-2.3091,-2.3091,-2.3091,-2.3091,-2.3091,-2.3091,-2.3091,-2.3091,-2.2906,-2.2403,-2.0404,-1.9268,-1.8772,-1.6662,-1.5784,-1.5784,-1.5784,-1.5784,-1.5784,-1.5784,-1.5784,-1.5784,0.0,0.0,0.0,0.0,0.0,0.0,0.0,0.0,0.0,0.0,0.0,0.0,0.0,0.0,0.0,0.0,0.0,0.0,-0.8227,-0.8603,-0.9196,-1.0062,-0.9589,-1.0445,-1.2832,-1.2304,-1.2485,-1.3516,-1.2877,-1.1809,-1.0314,-0.9556,-0.9058,-0.8811,0.0,0.0,0.0,0.0,0.0,0.0,0.0,0.0,0.0,0.0,0.0,0.0,0.0,0.0,0.0,0.0,-1.0908,-1.1044,0.0,0.0,0.0,-1.2203,-1.2539,-1.2783,-1.233,-1.2559,-1.3096,-1.3909,0.0,0.0,-1.7637,-1.8369,-1.9206,-2.0849,-2.0898,-2.0752,-2.1112,-2.121,-2.1346,-2.1816,-2.2598,-2.3091,-2.3091,-2.3091,-2.3091,-2.3091,-2.3091,-2.3091,-2.3091,-2.3091,-2.3091,-2.3091,-2.3091,-2.3091,-2.3091,-2.3091,-2.3091,-2.3091,-2.3091,-2.3091,-2.3091,-2.3091,-2.3091,-2.3091,-2.3091,-2.3091,-2.3091,-2.3101,-2.2448,-2.1248,-2.0034,-1.8818,-1.7598,-1.6339,-1.5784,-1.5784,-1.5784,-1.5784,-1.5784,-1.5784,-1.5784,-1.5784,0.0,0.0,0.0,0.0,0.0,0.0,0.0,0.0,0.0,0.0,0.0,0.0,0.0,0.0,0.0,0.0,0.0,0.0,0.0,-0.9601,-0.9963,-1.0231,-1.0679,-1.1094,-1.1472,-1.1742,-1.2547,-1.3919,-1.222,-1.1559,-1.1798,-0.9843,-0.9117,-0.951,0.0,0.0,0.0,0.0,0.0,0.0,0.0,0.0,0.0,0.0,0.0,0.0,0.0,0.0,0.0,0.0,0.0,0.0,-1.1199,0.0,0.0,-1.2203,-1.2301,-1.2461,-1.2637,-1.3213,-1.3938,-1.4796,0.0,0.0,0.0,-1.9687,0.0,0.0,-2.2031,-2.1885,-2.1728,-2.1934,-2.2178,-2.2305,-2.274,-2.3091,-2.3091,-2.3091,-2.3091,-2.3091,-2.3091,-2.3091,-2.3091,-2.3091,-2.3091,-2.3091,-2.3091,-2.3091,-2.3091,-2.3091,-2.3091,-2.3091,-2.3091,-2.3091,-2.3091,-2.3091,-2.3091,-2.3091,-2.3091,-2.3091,-2.3047,-2.2217,-2.1658,-2.1203,-1.9131,-1.8048,-1.7598,-1.6339,-1.5784,-1.5784,-1.5784,-1.5784,-1.5784,-1.5784,-1.5784,-1.5784,0.0,0.0,0.0,0.0,0.0,0.0,0.0,0.0,0.0,0.0,0.0,0.0,0.0,0.0,0.0,0.0,0.0,0.0,0.0,0.0,-1.0176,-1.0518,-1.0576,-1.0518,-1.0303,-1.0893,-1.1722,-1.2781,-1.1404,-1.1109,-1.1782,-1.0204,-0.95,-0.9599,0.0,-1.0215,0.0,0.0,0.0,0.0,-1.009,-1.0388,-1.0604,0.0,0.0,0.0,0.0,0.0,0.0,0.0,0.0,0.0,-1.0859,0.0,0.0,-1.1914,-1.2067,-1.2301,-1.2764,-1.3496,-1.4397,-1.5605,-1.6982,-1.8486,-2.0283,0.0,0.0,0.0,-2.2627,-2.2432,-2.2178,-2.2344,-2.251,-2.251,-2.2818,-2.3091,-2.3091,-2.3091,-2.3091,-2.3091,-2.3091,-2.3091,-2.3091,-2.3091,-2.3091,-2.3091,-2.3091,-2.3091,-2.3091,-2.3091,-2.3091,-2.3091,-2.3091,-2.3091,-2.3091,-2.3091,-2.3091,-2.3091,-2.3091,-2.2862,-2.2359,-2.1614,-2.1025,-2.044,-1.7994,-1.6943,-1.6897,-1.6109,-1.5784,-1.5784,-1.5784,-1.5784,-1.5784,-1.5784,-1.5784,-1.5784,0.0,0.0,0.0,0.0,0.0,0.0,0.0,0.0,0.0,0.0,0.0,0.0,0.0,0.0,0.0,0.0,0.0,0.0,0.0,0.0,-1.004,-1.0849,-0.9872,-0.9384,-0.9604,-1.0034,-1.045,-1.0889,-1.0534,-1.0553,-1.0872,0.0,-1.007,-0.9577,0.0,-1.1414,0.0,0.0,0.0,-0.9865,-1.0542,-1.0389,-0.979,-0.9786,0.0,0.0,0.0,0.0,0.0,0.0,0.0,0.0,-1.0781,-1.0908,-1.1006,-1.1506,-1.1914,-1.232,-1.2852,-1.3584,-1.4591,-1.6375,-1.7584,-1.8984,-2.1348,-2.2236,-2.2676,-2.3013,-2.2789,-2.2568,-2.2568,-2.2568,-2.2568,-2.2568,-2.2847,-2.3091,-2.3091,-2.3091,-2.3091,-2.3091,-2.3091,-2.3091,-2.3091,-2.3091,-2.3091,-2.3091,-2.3091,-2.3091,-2.3091,-2.3091,-2.3091,-2.3091,-2.3091,-2.3091,-2.3091,-2.3091,-2.3091,-2.3091,-2.3091,-2.2492,-2.1293,-2.1203,-2.0395,-1.9039,-1.6796,-1.5784,-1.5784,-1.5784,-1.5784,-1.5784,-1.5784,-1.5784,-1.5784,-1.5784,-1.5784,-1.5784,0.0,0.0,0.0,0.0,0.0,0.0,0.0,0.0,0.0,0.0,0.0,0.0,0.0,0.0,0.0,0.0,0.0,0.0,0.0,0.0,-1.0371,-1.0889,-1.0807,-1.0918,-1.1286,-1.0377,-1.0468,-1.1591,-1.0162,-1.0208,0.0,0.0,0.0,-1.178,0.0,-1.1387,0.0,0.0,-1.0989,-0.9865,-1.0542,-1.0389,-0.9841,-1.0254,-1.0193,0.0,0.0,0.0,0.0,0.0,0.0,0.0,-1.0781,-1.0908,-1.1044,-1.1833,-1.2125,-1.2447,-1.3539,-1.4248,0.0,-1.7217,-1.9404,-2.1201,-2.1758,-2.2471,-2.2984,-2.3081,-2.3023,-2.2955,-2.2955,-2.2955,-2.2955,-2.2955,-2.3033,-2.3091,-2.3091,-2.3091,-2.3091,-2.3091,-2.3091,-2.3091,-2.3091,-2.3091,-2.3091,-2.3091,-2.3091,-2.3091,-2.3091,-2.3091,-2.3091,-2.3091,-2.3091,-2.3091,-2.3091,-2.3091,-2.3091,-2.3091,-2.3091,-2.2492,-2.1248,-2.0305,-1.8664,-1.6567,-1.6008,-1.5784,-1.5784,-1.5784,-1.5784,-1.5784,-1.5784,-1.5784,-1.5784,-1.5784,-1.5784,-1.5784,0.0,0.0,0.0,0.0,0.0,0.0,0.0,0.0,0.0,0.0,0.0,0.0,0.0,0.0,0.0,0.0,0.0,0.0,0.0,0.0,-1.0437,-1.0735,-1.1241,-1.1436,-1.1308,-1.0456,-1.0423,-1.1316,-1.0226,-1.0405,0.0,0.0,0.0,-1.2234,0.0,-1.2671,0.0,0.0,-1.1903,-1.0813,-1.1509,-1.1081,-1.0038,-1.0519,-1.0312,-0.9761,-0.9573,0.0,0.0,0.0,0.0,0.0,0.0,0.0,-1.0742,-1.1385,-1.1748,-1.2197,-1.3486,-1.4453,0.0,-1.8027,0.0,-2.1631,-2.1836,-2.2383,-2.2847,-2.3052,-2.3091,-2.3091,-2.3091,-2.3091,-2.3091,-2.3091,-2.3091,-2.3091,-2.3091,-2.3091,-2.3091,-2.3091,-2.3091,-2.3091,-2.3091,-2.3091,-2.3091,-2.3091,-2.3091,-2.3091,-2.3091,-2.3091,-2.3091,-2.3091,-2.3091,-2.3091,-2.3091,-2.3091,-2.3091,-2.3091,-2.2492,-2.1302,-1.9534,-1.891,-1.7584,-1.5784,-1.5784,-1.5784,-1.5784,-1.5784,-1.5784,-1.5784,-1.5784,-1.5784,-1.5784,-1.5784,-1.5784,-1.5784,0.0,0.0,0.0,0.0,0.0,0.0,0.0,0.0,0.0,0.0,0.0,0.0,0.0,0.0,0.0,0.0,0.0,0.0,0.0,-1.0371,-1.048,-1.0635,-1.1261,-1.1323,-1.078,-1.0318,-1.0343,-1.0873,-1.0547,0.0,0.0,0.0,0.0,-1.2355,0.0,0.0,0.0,0.0,-1.2601,-1.1592,-1.2368,-1.1621,-1.0129,-1.0629,-1.0388,-0.9737,-0.9562,-0.9784,-1.0157,-1.0157,0.0,0.0,0.0,0.0,-1.0381,-1.0781,-1.1242,-1.1848,-1.3066,-1.4492,-1.6211,-1.8584,-2.0156,0.0,-2.167,-2.2158,-2.2607,-2.2916,-2.3042,-2.3091,-2.3091,-2.3091,-2.3091,-2.3091,-2.3091,-2.3091,-2.3091,-2.3091,-2.3091,-2.3091,-2.3091,-2.3091,-2.3091,-2.3091,-2.3091,-2.3091,-2.3091,-2.3091,-2.3091,-2.3091,-2.3091,-2.3091,-2.3091,-2.3091,-2.3091,-2.3091,-2.3091,-2.3091,-2.1667,-1.9852,-1.7684,-1.7458,-1.6803,-1.5784,-1.5784,-1.5784,-1.5784,-1.5784,-1.5784,-1.5784,-1.5784,-1.5784,-1.5784,-1.5784,-1.5784,-1.5784,0.0,0.0,0.0,0.0,0.0,0.0,0.0,0.0,0.0,0.0,0.0,-0.8857,-0.8916,-0.9279,0.0,0.0,0.0,0.0,-1.0303,0.0,0.0,-1.0862,-1.0791,-1.0722,-1.0632,-0.9954,-1.0104,-1.1143,-1.1099,0.0,0.0,0.0,0.0,-1.38,0.0,0.0,0.0,0.0,-1.1628,-1.0495,-1.1414,-1.089,-0.9681,-1.0569,-1.0194,-0.9226,-0.9432,-0.9538,-0.9597,-0.9597,-0.9922,0.0,0.0,0.0,-1.0381,-1.0781,-1.1242,-1.1812,-1.2729,0.0,-1.6872,0.0,-1.9697,-2.0771,0.0,0.0,-2.2529,-2.2588,-2.2847,-2.3091,-2.3091,-2.3091,-2.3091,-2.3091,-2.3091,-2.3091,-2.3091,-2.3091,-2.3091,-2.3091,-2.3091,-2.3091,-2.3091,-2.3091,-2.3091,-2.3091,-2.3091,-2.3091,-2.3091,-2.3091,-2.3091,-2.3091,-2.3091,-2.3091,-2.3091,-2.3091,-2.3091,-2.3047,-2.0809,-1.8993,-1.7645,-1.6574,-1.5967,-1.5784,-1.5784,-1.5784,-1.5784,-1.5784,-1.5784,-1.5784,-1.5784,-1.5784,-1.5784,-1.5784,-1.5784,-1.5784,0.0,0.0,0.0,0.0,0.0,0.0,0.0,0.0,0.0,0.0,0.0,-0.9004,-0.9004,-0.9367,0.0,0.0,0.0,0.0,-1.0303,-1.0674,0.0,0.0,-1.1061,-1.1148,-1.1148,-1.0587,-1.0779,-1.1757,0.0,0.0,0.0,-1.3839,-1.4138,0.0,0.0,0.0,0.0,0.0,0.0,-1.0395,-1.1251,-1.1004,-1.0164,-1.0705,-1.0551,-1.0046,-0.998,-0.9942,-0.9942,-0.9942,-1.0252,-1.0596,-1.0371,0.0,0.0,0.0,-1.0859,-1.1543,-1.3145,-1.4941,-1.667,0.0,-1.9072,-2.0067,-2.0703,-2.1348,-2.1865,-2.2109,-2.2305,-2.2578,-2.3013,-2.3091,-2.3091,-2.3091,-2.3091,-2.3091,-2.3091,-2.3091,-2.3091,-2.3091,-2.3091,-2.3091,-2.3091,-2.3091,-2.3091,-2.3091,-2.3091,-2.3091,-2.3091,-2.3091,-2.3091,-2.3091,-2.3091,-2.3091,-2.3091,-2.3091,-2.2413,-2.1087,-1.9997,-1.8488,-1.6622,-1.6062,-1.5784,-1.5784,-1.5784,-1.5784,-1.5784,-1.5784,-1.5784,-1.5784,-1.5784,-1.5784,-1.5784,-1.5784,-1.5784,-1.5784,0.0,0.0,0.0,0.0,0.0,0.0,0.0,0.0,0.0,0.0,0.0,0.0,-0.9326,0.0,0.0,0.0,0.0,0.0,-1.0303,0.0,0.0,0.0,0.0,-1.1273,-1.1273,-1.0939,-1.1133,-1.1872,0.0,0.0,-1.4813,-1.4893,-1.5557,0.0,-1.5139,-1.4218,0.0,0.0,0.0,0.0,-1.1662,-1.1625,-1.1206,-1.1591,-1.1672,-1.1577,-1.1121,-1.0958,-1.0929,-1.0704,-1.0742,-1.085,-1.0557,-1.0586,0.0,0.0,0.0,-1.1201,0.0,0.0,-1.5654,-1.7139,-1.8164,-1.9053,0.0,-2.0674,-2.1191,-2.1631,-2.1807,-2.208,-2.2662,-2.2867,-2.2935,-2.2935,-2.3023,-2.3091,-2.3091,-2.3091,-2.3091,-2.3091,-2.3091,-2.3091,-2.3091,-2.3091,-2.3091,-2.3091,-2.3091,-2.3091,-2.3091,-2.3091,-2.3091,-2.3091,-2.3091,-2.3091,-2.3091,-2.3091,-2.2041,-1.9943,-1.9633,-1.8357,-1.6244,-1.5967,-1.5784,-1.5784,-1.5784,-1.5784,-1.5784,-1.5784,-1.5784,-1.5784,-1.5784,-1.5784,-1.5784,-1.5784,-1.5784,-1.5784,0.0,0.0,0.0,0.0,0.0,0.0,0.0,0.0,0.0,0.0,0.0,0.0,0.0,0.0,0.0,0.0,0.0,0.0,0.0,0.0,0.0,0.0,0.0,0.0,0.0,-1.0352,-1.0537,0.0,0.0,0.0,-1.4795,-1.5195,-1.6279,-1.7871,-1.6947,-1.5286,-1.3141,0.0,0.0,0.0,0.0,-1.2817,-1.2851,-1.363,-1.3941,-1.3837,-1.3032,-1.2768,-1.2641,-1.18,-1.1252,-1.0908,-1.0879,-1.0615,-1.0332,0.0,0.0,0.0,0.0,-1.3023,0.0,-1.5664,-1.6858,-1.7846,0.0,-2.0038,-2.0772,-2.1132,-2.1592,-2.1894,-2.1943,-2.2275,-2.2549,-2.2549,-2.2838,-2.3091,-2.3091,-2.3091,-2.3091,-2.3091,-2.3091,-2.3091,-2.3091,-2.3091,-2.3091,-2.3091,-2.3091,-2.3091,-2.3091,-2.3091,-2.3091,-2.3091,-2.3091,-2.3091,-2.3091,-2.3091,-2.2448,-2.1203,-2.0034,-1.8818,-1.7552,-1.6339,-1.5784,-1.5784,-1.5784,-1.5784,-1.5784,-1.5784,-1.5784,-1.5784,-1.5784,-1.5784,-1.5784,-1.5784,-1.5784,-1.5784,0.0,0.0,0.0,0.0,0.0,0.0,0.0,0.0,0.0,0.0,0.0,0.0,0.0,-1.0303,-1.0303,-1.0303,0.0,0.0,0.0,0.0,0.0,0.0,0.0,0.0,0.0,-1.0547,0.0,0.0,0.0,-1.2109,-1.3975,-1.4687,-1.5342,-1.5937,-1.5436,-1.4898,-1.4266,-1.2702,0.0,0.0,0.0,-1.2816,-1.2814,-1.3736,-1.3876,-1.3551,-1.3618,-1.2932,-1.1994,-1.2311,-1.2119,-1.1584,-1.0674,-1.0484,-1.0517,-0.9953,-1.0421,0.0,0.0,0.0,0.0,-1.4561,-1.5898,-1.7158,-1.79,-1.915,-2.0195,-2.0352,-2.0732,-2.1075,-2.1075,-2.1631,-2.2197,-2.2471,-2.2637,-2.2789,-2.3052,-2.3091,-2.3091,-2.3091,-2.3091,-2.3091,-2.3091,-2.3091,-2.3091,-2.3091,-2.3091,-2.3091,-2.3091,-2.3091,-2.3091,-2.3091,-2.3091,-2.3091,-2.3091,-2.3091,-2.2129,-2.0124,-1.9724,-1.8449,-1.648,-1.6015,-1.5784,-1.5784,-1.5784,-1.5784,-1.5784,-1.5784,-1.5784,-1.5784,-1.5784,-1.5784,-1.5784,-1.5784,-1.5784,-1.5784,0.0,0.0,0.0,0.0,0.0,0.0,0.0,0.0,0.0,-1.002,0.0,0.0,0.0,0.0,-1.0674,-1.0528,-1.0488,0.0,0.0,0.0,0.0,0.0,0.0,0.0,0.0,-1.0692,-1.0836,0.0,0.0,0.0,0.0,-1.4023,-1.459,-1.4962,-1.4516,-1.4644,0.0,0.0,0.0,-1.2555,-1.3578,-1.3894,-1.3903,-1.5144,-1.5269,-1.486,-1.5123,-1.4317,-1.3213,-1.3471,-1.3135,-1.2429,-1.1201,-1.0588,-1.0249,-0.9672,-1.0114,0.0,-1.1252,0.0,0.0,0.0,-1.4874,-1.5957,-1.7119,-1.8262,-1.9141,-1.9424,-1.9941,-2.039,-2.039,-2.0987,-2.1582,-2.2012,-2.2207,-2.2451,-2.2828,-2.2886,-2.2935,-2.3081,-2.3091,-2.3091,-2.3091,-2.3091,-2.3091,-2.3091,-2.3091,-2.3033,-2.2896,-2.2886,-2.2818,-2.2682,-2.2715,-2.2715,-2.2715,-2.2715,-2.1758,-1.9892,-1.9487,-1.8286,-1.6433,-1.5967,-1.5784,-1.5784,-1.5784,-1.5784,-1.5784,-1.5784,-1.5784,-1.5784,-1.5784,-1.5784,-1.5784,-1.5784,-1.5784,-1.5784,0.0,0.0,0.0,0.0,0.0,0.0,0.0,0.0,-1.0488,-1.0879,0.0,0.0,0.0,0.0,0.0,-1.0967,-1.0918,-1.0732,-1.0352,-1.0312,0.0,0.0,0.0,0.0,0.0,-1.0724,-1.0742,-1.0908,-1.1369,-1.2037,0.0,0.0,-1.415,-1.5303,-1.4475,-1.4582,-1.54,-1.5831,-1.5772,-1.543,-1.5889,-1.6085,-1.632,-1.7978,-1.8344,-1.7964,-1.7588,-1.7116,-1.651,-1.5293,-1.4287,-1.3383,-1.2458,-1.0938,-0.9475,-0.9475,-0.931,0.0,0.0,0.0,0.0,0.0,0.0,-1.418,-1.6709,-1.7314,-1.7578,-1.8393,-1.9231,-1.9863,-1.9893,-2.0254,-2.0723,-2.1083,-2.1572,-2.2012,-2.2432,-2.249,-2.2646,-2.3023,-2.3081,-2.3081,-2.3091,-2.3091,-2.3091,-2.3091,-2.3091,-2.2916,-2.2539,-2.25,-2.2305,-2.1894,-2.1885,-2.1885,-2.1843,-2.1843,-2.1423,-2.0567,-1.9341,-1.8377,-1.7584,-1.6386,-1.5784,-1.5784,-1.5784,-1.5784,-1.5784,-1.5784,-1.5784,-1.5784,-1.5784,-1.5784,-1.5784,-1.5784,-1.5784,-1.5784,0.0,0.0,0.0,0.0,0.0,0.0,-1.1253,-1.1253,-1.1292,0.0,0.0,0.0,-1.1596,-1.1606,-1.1557,-1.1408,-1.1094,-1.0859,-1.0742,-1.0449,-1.0303,-1.0303,-1.0841,-1.106,-1.0897,-1.1474,-1.1483,-1.0908,-1.1369,-1.1545,-1.1475,-1.2549,-1.3242,-1.3613,-1.4297,-1.4561,-1.4426,-1.3965,-1.4255,-1.4971,-1.5116,-1.5928,-1.7132,-1.7881,-1.8066,-1.7997,-1.8576,-1.7856,-1.6628,-1.6661,-1.5869,-1.4453,-1.2068,-1.023,-0.8917,-0.8917,-0.9388,0.0,-1.0548,0.0,0.0,0.0,0.0,0.0,-1.4845,-1.5762,-1.6711,-1.7549,-1.8164,-1.873,-1.9346,-1.9805,-2.0137,-2.0254,-2.0918,-2.1562,-2.2002,-2.206,-2.2217,-2.2637,-2.2685,-2.276,-2.3062,-2.3091,-2.3091,-2.3091,-2.3091,-2.2916,-2.2539,-2.2217,-2.2002,-2.1894,-2.1885,-2.1483,-2.0685,-2.0685,-1.9742,-1.7902,-1.7712,-1.7085,-1.6028,-1.5873,-1.5784,-1.5784,-1.5784,-1.5784,-1.5784,-1.5784,-1.5784,-1.5784,-1.5784,-1.5784,-1.5784,-1.5784,-1.5784,-1.5784,0.0,0.0,0.0,0.0,0.0,-1.1606,-1.1606,-1.1606,-1.1653,0.0,0.0,0.0,-1.2357,-1.2719,-1.2709,-1.2181,-1.1875,-1.1494,-1.0947,-1.0684,-1.0547,-1.0547,-1.0958,-1.1261,-1.1433,-1.1843,-1.1767,-1.1182,-1.1621,-1.1523,-1.0937,-1.208,-1.251,-1.2396,-1.3301,-1.3549,-1.3285,-1.2822,-1.3457,-1.4844,-1.5576,-1.6582,-1.7734,-1.8506,-1.8776,-1.8826,-1.9356,-1.8776,-1.7755,-1.7876,-1.6797,-1.4965,-1.2474,-1.0963,0.0,-0.9678,0.0,0.0,0.0,0.0,0.0,0.0,0.0,0.0,-1.4221,-1.4853,-1.5508,-1.6387,-1.7051,-1.7686,-1.8369,-1.8984,-1.9407,-1.9619,-2.0234,-2.0869,-2.1523,-2.1611,-2.1768,-2.2197,-2.2246,-2.2344,-2.2598,-2.2617,-2.2617,-2.2617,-2.2617,-2.2432,-2.196,-2.1572,-2.1378,-2.1378,-2.0914,-2.0367,-1.9716,-1.9212,-1.8154,-1.6517,-1.666,-1.6289,-1.5404,-1.5571,-1.5712,-1.5784,-1.5784,-1.5784,-1.5784,-1.5784,-1.5784,-1.5784,-1.5784,-1.5784,-1.5784,-1.5784,-1.5784,-1.5784,0.0,0.0,-1.1792,-1.1802,-1.18,-1.1851,-1.1949,-1.192,-1.2044,0.0,-1.2564,-1.2847,-1.3633,-1.4355,-1.4326,-1.3218,-1.2983,-1.2383,-1.1201,-1.0986,-1.0907,-1.0977,-1.0798,-1.1176,-1.2171,-1.2031,-1.1854,-1.1675,-1.1982,-1.1736,-1.0996,-1.1765,-1.1943,-1.1626,-1.2031,-1.2203,-1.2213,-1.2301,-1.333,-1.5019,-1.6623,-1.7607,-1.8291,-1.9521,-2.0049,-2.0137,-2.0137,-1.9863,-1.9424,-1.8851,-1.7298,-1.5264,-1.3532,-1.2629,-1.2038,-1.1188,-1.1075,0.0,0.0,0.0,0.0,0.0,-1.242,0.0,-1.414,-1.4282,-1.4319,-1.5089,-1.5868,-1.656,-1.707,-1.7852,-1.85,-1.8877,-1.9404,-2.0098,-2.0986,-2.1122,-2.1278,-2.1768,-2.1816,-2.1836,-2.1875,-2.1885,-2.1885,-2.1885,-2.1836,-2.1641,-2.122,-2.081,-2.0605,-2.0605,-1.9678,-1.9076,-1.8798,-1.7827,-1.6833,-1.5882,-1.5918,-1.5681,-1.5304,-1.5364,-1.5538,-1.5785,-1.5764,-1.5784,-1.5784,-1.5784,-1.5784,-1.5784,-1.5784,-1.5784,-1.5784,-1.5784,-1.5784,-1.5784,0.0,-1.2478,-1.2873,-1.3096,-1.3125,-1.3359,-1.4079,-1.3857,-1.388,-1.466,-1.4795,-1.4825,-1.5019,-1.4883,-1.4687,-1.4461,-1.3502,-1.2798,-1.2543,-1.1504,-1.1064,-1.1438,-1.1427,-1.1656,-1.2194,-1.2527,-1.2488,-1.2077,-1.1848,-1.1623,-1.1479,-1.1633,-1.1685,-1.1626,-1.2031,-1.2203,-1.2252,-1.2944,-1.4043,-1.5352,-1.6065,-1.7445,-1.9141,-2.0116,-2.0879,-2.1504,-2.1504,-2.1221,-2.0644,-1.9541,-1.8059,-1.6434,-1.5066,-1.4165,-1.3377,-1.2189,-1.2142,-1.2472,-1.2592,-1.221,0.0,-1.2377,-1.2923,0.0,-1.2534,-1.3256,-1.4153,-1.4319,-1.4494,-1.4845,-1.5654,-1.6482,-1.698,-1.677,-1.793,-1.927,-2.0527,-2.0732,-2.0859,-2.1309,-2.1317,-2.1504,-2.1846,-2.1885,-2.1885,-2.1885,-2.1562,-2.1288,-2.12,-2.081,-2.0605,-2.0605,-2.0401,-1.9432,-1.7666,-1.7423,-1.6353,-1.4501,-1.4697,-1.4744,-1.4703,-1.5184,-1.5431,-1.5491,-1.5732,-1.5784,-1.5784,-1.5784,-1.5784,-1.5784,-1.5784,-1.5784,-1.5784,-1.5784,-1.5784,-1.5784,0.0,-1.2789,-1.3226,-1.3936,-1.4058,-1.4338,-1.5233,-1.5145,-1.519,-1.5674,-1.6123,-1.6221,-1.5811,-1.5752,-1.5498,-1.4872,-1.4004,-1.3232,-1.2598,-1.1911,-1.1638,-1.1885,-1.1895,-1.21,-1.2549,-1.2773,-1.2666,-1.2203,-1.2002,-1.1692,-1.1271,-1.1689,-1.179,-1.1626,-1.2031,-1.233,-1.2568,-1.2759,-1.3578,-1.4894,-1.665,-1.8379,-2.0057,-2.0928,-2.1631,-2.2168,-2.1963,-2.1611,-2.0995,-1.9727,-1.8634,-1.7571,-1.6309,-1.58,-1.5432,-1.4116,-1.4081,-1.4257,-1.3359,-1.305,-1.3014,-1.3123,-1.3095,0.0,0.0,-1.2687,-1.2641,-1.3356,-1.3398,-1.3564,-1.4354,-1.5195,-1.583,-1.6065,-1.6973,-1.7954,-1.8893,-1.9568,-2.001,-2.0234,-2.0449,-2.0625,-2.0879,-2.1103,-2.1271,-2.1271,-2.1025,-2.0898,-2.0898,-2.0723,-2.0605,-2.0605,-2.0079,-1.8997,-1.7334,-1.6764,-1.567,-1.4088,-1.4235,-1.4382,-1.4536,-1.4977,-1.5257,-1.5411,-1.5705,-1.5784,-1.5784,-1.5784,-1.5784,-1.5784,-1.5784,-1.5784,-1.5784,-1.5784,-1.5784,-1.5784,0.0,-1.3089,-1.3524,-1.4402,-1.4747,-1.5207,-1.6058,-1.6207,-1.6385,-1.6769,-1.7516,-1.7767,-1.7063,-1.713,-1.6807,-1.5772,-1.5001,-1.4133,-1.3012,-1.2632,-1.2447,-1.2447,-1.2291,-1.2447,-1.2988,-1.2944,-1.2705,-1.233,-1.2164,-1.1755,-1.116,-1.1784,-1.1904,-1.1626,-1.2119,0.0,0.0,-1.2603,-1.3432,-1.5186,-1.7623,-1.917,-2.0126,-2.1299,-2.1973,-2.2246,-2.207,-2.1777,-2.1249,-1.9971,-1.9297,-1.8734,-1.7379,-1.7334,-1.7471,-1.6074,-1.6035,-1.608,-1.4287,-1.4148,-1.4373,-1.3912,-1.3348,-1.2978,0.0,0.0,0.0,-1.2289,-1.2308,-1.2343,-1.2937,-1.3774,-1.4559,-1.5158,-1.5925,-1.6512,-1.6728,-1.7861,-1.8766,-1.8896,-1.9365,-1.9631,-1.9631,-1.9912,-2.0214,-2.0458,-2.0331,-2.0341,-2.0595,-2.0605,-2.0605,-2.0605,-1.9766,-1.8669,-1.7293,-1.6437,-1.5387,-1.4088,-1.4088,-1.4208,-1.4449,-1.4803,-1.5135,-1.5331,-1.5678,-1.5784,-1.5784,-1.5784,-1.5784,-1.5784,-1.5784,-1.5784,-1.5784,-1.5784,-1.5784,-1.5784,-1.2983,-1.3752,-1.4482,-1.444,-1.53,-1.6295,-1.7191,-1.7363,-1.7889,-1.9279,-1.9904,-2.0236,-2.0271,-1.9515,-1.8936,-1.8789,-1.7344,-1.618,-1.5694,-1.4209,-1.3359,-1.3359,-1.2613,-1.2584,-1.3418,-1.3066,-1.2876,-1.2812,-1.2044,-1.1809,-1.2057,-1.18,-1.1633,-1.1636,-1.2455,-1.3037,0.0,-1.3363,-1.5176,-1.812,-1.8461,-1.8247,-1.8008,-2.04,-2.1298,-2.1434,-2.2187,-2.2412,-2.2168,-2.0859,-2.0429,-2.0096,-1.8389,-1.8418,-1.874,-1.7038,-1.7158,-1.7555,-1.6553,-1.61,-1.5538,-1.4145,-1.4047,-1.3745,-1.164,0.0,-1.1774,-1.1164,0.0,-1.1031,-1.1089,0.0,0.0,-1.233,-1.4126,-1.5312,-1.4582,-1.5615,-1.675,-1.75,-1.8301,-1.8744,-1.8744,-1.8486,-1.8769,-1.9902,-1.9241,-1.9355,-2.0546,-2.0605,-2.0605,-2.0605,-2.0479,-1.9392,-1.7334,-1.7172,-1.6083,-1.4088,-1.4088,-1.4108,-1.4155,-1.4754,-1.5028,-1.5089,-1.5591,-1.5784,-1.5784,-1.5784,-1.5784,-1.5784,-1.5784,-1.5784,-1.5784,-1.5784,-1.5784,-1.5784,-1.3467,-1.4107,0.0,-1.5468,-1.5969,-1.6739,-1.7955,-1.9297,-2.031,-2.0722,-2.1716,-2.2333,-2.2154,-2.0948,-2.0196,-2.0232,-1.854,-1.7187,-1.6494,-1.5293,0.0,-1.4609,-1.3529,-1.3227,-1.3831,-1.3223,-1.2905,-1.2905,-1.2256,-1.2018,-1.2203,-1.2031,-1.2217,-1.2725,-1.3619,-1.4383,-1.5019,-1.5019,-1.5674,-1.6804,-1.7598,-1.7549,-1.7393,-2.0937,-2.2292,-2.235,-2.2711,-2.2715,-2.2353,-2.1309,-2.0781,-2.0429,-1.9424,-1.9199,-1.9092,-1.8091,-1.7886,-1.7822,-1.6931,-1.6773,-1.6598,-1.543,-1.448,-1.3566,-1.2391,-1.1134,-1.0237,-1.0458,0.0,0.0,0.0,0.0,0.0,0.0,-1.2797,-1.3604,-1.3231,-1.4197,-1.5264,-1.6143,-1.6777,-1.7441,-1.8159,-1.8115,-1.8437,-1.9473,-1.8724,-1.8838,-2.0117,-2.0185,-2.0303,-2.0595,-2.0605,-1.9559,-1.7334,-1.7302,-1.6198,-1.4088,-1.4088,-1.4088,-1.4102,-1.4516,-1.4703,-1.4736,-1.5324,-1.5578,-1.5591,-1.5758,-1.5784,-1.5784,-1.5784,-1.5784,-1.5784,-1.5784,-1.5784,-1.5784,-1.4295,0.0,0.0,-1.6041,-1.6594,-1.7448,-1.9146,-2.0927,-2.2207,-2.2503,-2.3536,-2.4244,-2.4298,-2.3183,-2.229,-2.2067,-2.0509,-1.9033,-1.7842,-1.6738,-1.6123,-1.6123,-1.4775,-1.4143,-1.4445,-1.3662,-1.3105,-1.2905,-1.2418,-1.2203,-1.2203,-1.2203,-1.2535,-1.3213,-1.4414,-1.5439,-1.629,-1.6525,-1.6858,-1.7246,-1.7969,-1.835,-1.8754,-2.1522,-2.2789,-2.3091,-2.3091,-2.2896,-2.2516,-2.1658,-2.1191,-2.0869,-2.0264,-1.9883,-1.9551,-1.9075,-1.8734,-1.834,-1.7457,-1.7568,-1.7611,-1.6261,-1.4723,-1.3365,-1.2651,-1.0748,-0.9316,-0.9871,-1.0017,0.0,0.0,0.0,0.0,0.0,0.0,-1.2263,-1.2052,-1.2969,-1.3974,-1.4786,-1.54,-1.6163,-1.7197,-1.708,-1.7402,-1.8506,-1.7783,-1.7959,-1.9446,-1.9678,-1.9941,-2.0371,-2.0265,-1.9234,-1.7334,-1.7009,-1.5918,-1.4088,-1.4088,-1.4088,-1.4095,-1.4389,-1.4522,-1.4506,-1.5144,-1.5398,-1.5418,-1.5712,-1.5784,-1.5784,-1.5784,-1.5784,-1.5784,-1.5784,-1.5784,-1.5784,-1.5543,-1.5565,0.0,-1.5634,-1.7025,-1.8882,-2.1077,-2.1913,-2.3047,-2.5194,-2.5513,-2.601,-2.7236,-2.6771,-2.5997,-2.4956,-2.4025,-2.2633,-2.0614,-1.8867,-1.793,-1.793,-1.6269,-1.5361,-1.5371,-1.4504,-1.3665,-1.2905,-1.2418,-1.2203,-1.2203,0.0,0.0,0.0,-1.4426,-1.5849,-1.6736,-1.7564,-1.9394,-2.1611,-2.083,-2.1455,-2.2769,-2.1678,-2.2029,-2.3091,-2.3091,-2.3081,-2.2945,-2.2148,-2.1855,-2.1689,-2.086,-2.0576,-2.0478,-2.0,-1.9863,-1.9668,-1.8773,-1.8896,-1.8613,-1.6064,-1.4684,-1.3445,-1.1338,-1.045,-0.9913,-0.9352,-0.9943,-1.0396,-0.9831,0.0,0.0,0.0,0.0,0.0,0.0,-1.1843,-1.2804,-1.3487,-1.4316,-1.5,-1.5449,-1.4718,-1.4942,-1.6658,-1.5996,-1.6395,-1.8529,-1.9082,-1.9502,-1.9922,-1.9355,-1.847,-1.7293,-1.6273,-1.522,-1.4088,-1.4088,-1.4088,-1.4095,-1.4389,-1.4522,-1.4506,-1.5144,-1.5398,-1.5418,-1.5712,-1.5784,-1.5784,-1.5784,-1.5784,-1.5784,-1.5784,-1.5784,-1.5784,0.0,0.0,0.0,-1.6318,-1.7003,-1.8554,-2.1119,-2.3201,-2.5021,-2.6515,-2.7332,-2.8235,-2.9423,-2.8686,-2.8121,-2.8176,-2.62,-2.4388,-2.3112,-2.0979,-1.9734,-1.9734,-1.7783,-1.6846,-1.7129,-1.5683,-1.4533,-1.3685,-1.3256,-1.3051,0.0,0.0,0.0,0.0,-1.5137,-1.6494,-1.7613,-1.8789,-1.9775,-2.0586,-2.0605,-2.1602,-2.3052,-2.2613,-2.2721,-2.3091,-2.3091,-2.3091,-2.3052,-2.2812,-2.2529,-2.2246,-2.1943,-2.1465,-2.0986,-2.0791,-2.0576,-2.0283,-1.999,-2.0234,-2.005,-1.8022,-1.6501,-1.5052,-1.3205,-1.1725,-1.0608,-1.0035,-1.0297,-1.0412,-0.9822,0.0,0.0,0.0,0.0,0.0,0.0,-1.0852,-1.1473,-1.1702,-1.3257,-1.4387,-1.4523,-1.428,-1.4708,-1.6182,-1.5742,-1.621,-1.8091,-1.8896,-1.9482,-1.9902,-1.9307,-1.843,-1.7293,-1.6232,-1.5179,-1.4088,-1.4088,-1.4088,-1.4088,-1.4188,-1.4342,-1.4543,-1.4937,-1.5217,-1.5418,-1.5712,-1.5784,-1.5784,-1.5784,-1.5784,-1.5784,-1.5784,-1.5784,-1.5784,-1.7083,-1.767,-1.7978,-1.7215,-1.8078,-1.971,-2.2284,-2.4682,-2.6678,-2.7996,-2.8963,-2.9916,-3.106,-3.0511,-3.0084,-3.0097,-2.8425,-2.6572,-2.467,-2.2898,-2.164,-2.1085,-1.9451,-1.8574,-1.8682,-1.7285,-1.5956,-1.4814,-1.4394,-1.4033,0.0,0.0,0.0,0.0,0.0,-1.6907,-1.833,-1.9738,-2.0605,-2.1044,-2.1367,-2.2148,-2.3091,-2.3091,-2.3091,-2.3091,-2.3091,-2.3091,-2.3091,-2.3091,-2.2916,-2.2691,-2.2691,-2.2214,-2.1648,-2.1648,-2.1377,-2.1045,-2.085,-2.1016,-2.081,-1.9231,-1.7938,-1.6533,-1.468,-1.3163,-1.1929,-1.113,-1.0939,-1.0815,-1.0648,-1.0187,0.0,0.0,0.0,0.0,0.0,-1.0167,-1.0542,-1.0762,-1.2077,0.0,0.0,-1.3002,-1.3594,-1.4926,-1.4829,-1.5566,-1.7451,-1.7893,-1.8413,-1.9089,-1.8183,-1.7363,-1.6723,-1.567,-1.4776,-1.4088,-1.4088,-1.4088,-1.4088,-1.4088,-1.4249,-1.4536,-1.4836,-1.513,-1.5418,-1.5712,-1.5784,-1.5784,-1.5784,-1.5784,-1.5784,-1.5784,-1.5784,-1.5784,-1.8392,-1.838,-1.8468,-1.853,-2.0188,-2.2297,-2.4525,-2.6251,-2.7908,-2.9641,-3.0357,-3.111,-3.2177,-3.229,-3.1843,-3.0812,-3.0584,-2.902,-2.5413,-2.4629,-2.3619,-2.2105,-2.1182,-2.0507,-2.0049,-1.9104,-1.7842,-1.6193,-1.5654,-1.498,0.0,0.0,0.0,0.0,-1.5478,-1.7002,-1.8656,-2.042,-2.1912,-2.3091,-2.3091,-2.3091,-2.3091,-2.3091,-2.3091,-2.3091,-2.3091,-2.3091,-2.3091,-2.3091,-2.3091,-2.3091,-2.3091,-2.2818,-2.2539,-2.2539,-2.2266,-2.1855,-2.1405,-2.1288,-2.0986,-1.9766,-1.8944,-1.7885,-1.5808,-1.4799,-1.3947,-1.2692,-1.1997,-1.1747,-1.2237,-1.1156,-1.0254,0.0,0.0,0.0,0.0,0.0,-0.9994,-1.0635,-1.0703,0.0,0.0,-1.1028,-1.1702,-1.2969,-1.3323,-1.4408,-1.656,-1.6225,-1.6522,-1.7712,-1.6249,-1.5569,-1.5861,-1.4734,-1.4166,-1.4166,-1.413,-1.4088,-1.4088,-1.4102,-1.4269,-1.4556,-1.4901,-1.515,-1.5438,-1.5712,-1.5784,-1.5784,-1.5784,-1.5784,-1.5784,-1.5784,-1.5784,-1.5784,-1.9422,-2.07,-2.2105,-2.2945,-2.256,-2.2987,-2.5669,-2.6788,-2.8172,-3.0658,-3.1461,-3.2227,-3.3345,-3.347,-3.3208,-3.2537,-3.0767,-2.9172,-2.7911,-2.5643,-2.4172,-2.3769,-2.2646,-2.1963,-2.1846,-2.0059,-1.8594,-1.751,-1.6103,-1.5137,-1.4609,0.0,0.0,0.0,0.0,-1.6711,-1.7832,-1.9873,-2.167,-2.3091,-2.3091,-2.3091,-2.3091,-2.3091,-2.3091,-2.3091,-2.3091,-2.3091,-2.3091,-2.3091,-2.3091,-2.3091,-2.3091,-2.3023,-2.2935,-2.2935,-2.2857,-2.275,-2.2633,-2.2604,-2.2448,-2.1846,-2.0828,-1.9773,-1.8858,-1.7907,-1.6931,-1.5852,-1.4989,-1.4111,-1.3075,-1.1878,-1.0828,0.0,0.0,0.0,0.0,0.0,0.0,-0.9573,-0.9424,0.0,-1.0425,-1.0747,-1.142,-1.2711,-1.3046,-1.4091,-1.6152,-1.6751,-1.7422,-1.8333,-1.7803,-1.7721,-1.8141,-1.6232,-1.5296,-1.5296,-1.4489,-1.4088,-1.4095,-1.4309,-1.4569,-1.4914,-1.5157,-1.5451,-1.5678,-1.5751,-1.5784,-1.5784,-1.5784,-1.5784,-1.5784,-1.5784,-1.5784,-1.5784,-2.1227,-2.2819,-2.4537,-2.5699,-2.531,-2.5536,-2.7607,-2.8386,-2.9465,-3.1486,-3.224,-3.283,-3.347,-3.3972,-3.4135,-3.3822,-3.2523,-3.1149,-2.9778,-2.7815,-2.6154,-2.4982,-2.388,-2.3262,-2.3076,-2.1689,-2.0273,-1.8838,-1.7305,-1.6035,-1.5039,0.0,0.0,0.0,0.0,-1.6475,-1.7822,-2.0352,-2.208,-2.3091,-2.3091,-2.3091,0.0,-2.3091,-2.3091,-2.3091,-2.3091,-2.3091,-2.3091,-2.3091,-2.3091,-2.3091,-2.3091,-2.3091,-2.3091,-2.3091,-2.3091,-2.3091,-2.3091,-2.3091,-2.3042,-2.2799,-2.2236,-2.1484,-2.0674,-1.972,-1.8797,-1.7961,-1.6711,-1.5548,-1.4659,-1.3081,-1.1392,0.0,0.0,0.0,0.0,0.0,0.0,0.0,-0.8884,-0.8996,-0.9481,-0.9883,-1.0613,-1.1858,-1.2492,-1.3691,-1.5683,-1.6214,-1.6906,-1.7877,-1.758,-1.7424,-1.7568,-1.6314,-1.5455,-1.497,-1.437,-1.4088,-1.4095,-1.4389,-1.4683,-1.5022,-1.5271,-1.5565,-1.5784,-1.5784,-1.5784,-1.5784,-1.5784,-1.5784,-1.5784,-1.5784,-1.5784,-1.5784,-2.3509,-2.4845,-2.6251,-2.7306,-2.8072,-2.8913,-3.0055,-3.057,-3.1235,-3.239,-3.3043,-3.3395,-3.3395,-3.4261,-3.4756,-3.4726,-3.4577,-3.3506,-3.124,-3.0112,-2.8459,-2.6066,-2.5072,-2.4365,-2.3887,-2.334,-2.198,-1.9912,-1.8584,-1.7031,-1.5303,0.0,0.0,0.0,0.0,0.0,0.0,-2.1211,-2.2613,-2.3091,-2.3091,-2.3091,-2.3091,-2.3091,-2.3091,-2.3091,-2.3091,-2.3091,-2.3091,-2.3091,-2.3091,-2.3091,-2.3091,-2.3091,-2.3091,-2.3091,-2.3091,-2.3091,-2.3091,-2.3091,-2.3091,-2.3091,-2.3091,-2.2808,-2.1697,-2.0926,-2.0244,-1.9604,-1.8,-1.6652,-1.6443,-1.4273,-1.1831,0.0,-0.9351,-0.9251,-0.9065,0.0,0.0,0.0,0.0,0.0,-0.8489,-0.8869,-0.9657,-1.0923,-1.1799,-1.3157,-1.5206,-1.5331,-1.5809,-1.6884,-1.6582,-1.6233,-1.5895,-1.5779,-1.5213,-1.4292,-1.4206,-1.4142,-1.4155,-1.4482,-1.4776,-1.5082,-1.5331,-1.5591,-1.5784,-1.5784,-1.5784,-1.5784,-1.5784,-1.5784,-1.5784,-1.5784,-1.5784,-1.5784,-2.5732,-2.6841,-2.7871,-2.8524,-2.9842,-3.1198,-3.237,-3.2177,-3.2491,-3.4085,-3.4718,-3.5069,-3.5069,-3.5245,-3.5169,-3.4718,-3.3766,-3.3033,-3.2562,-3.0381,-2.8768,-2.7952,-2.6348,-2.5079,-2.4326,-2.3193,-2.1728,-1.9912,-1.8281,-1.6602,-1.4883,0.0,0.0,0.0,0.0,0.0,-2.0214,-2.1074,-2.2068,-2.3091,-2.3091,-2.3091,-2.3091,-2.3091,-2.3091,-2.3091,-2.3091,-2.3091,-2.3091,-2.3091,-2.3091,-2.3091,-2.3091,-2.3091,-2.3091,-2.3091,-2.3091,-2.3091,-2.3091,-2.3091,-2.3091,-2.3091,-2.3091,-2.3033,-2.2818,-2.2673,-2.2418,-2.1993,-2.062,-1.8974,-1.7263,-1.423,-1.1649,-1.0544,-1.012,-1.0027,-1.0258,0.0,0.0,0.0,0.0,-0.9024,-0.8758,-0.8809,-0.9452,-1.0881,-1.1057,-1.2219,-1.4768,-1.5216,-1.5714,-1.6482,-1.7096,-1.7304,-1.7001,-1.615,-1.5621,-1.5421,-1.4744,-1.4442,-1.4462,-1.4997,-1.5271,-1.5337,-1.5625,-1.5785,-1.5784,-1.5784,-1.5784,-1.5784,-1.5784,-1.5784,-1.5784,-1.5784,-1.5784,-1.5784,-2.8448,-2.9038,-2.9666,-3.0482,-3.1537,-3.2641,-3.3759,-3.4173,-3.4449,-3.4688,-3.4906,-3.5069,-3.5069,-3.5629,-3.5868,-3.5592,-3.5031,-3.4568,-3.4252,-3.2473,-3.0897,-2.9746,-2.8053,-2.6458,-2.5117,-2.4053,-2.2549,-2.0557,-1.8877,-1.7031,-1.5098,-1.4416,0.0,-1.3613,0.0,-1.8404,-2.0664,-2.1514,-2.234,-2.3091,-2.3091,-2.3091,-2.3091,-2.3091,-2.3091,-2.3091,-2.3091,-2.3091,-2.3091,-2.3091,-2.3091,-2.3091,-2.3091,-2.3091,-2.3091,-2.3091,-2.3091,-2.3091,-2.3091,-2.3091,-2.3091,-2.3091,-2.3091,-2.3091,-2.3091,-2.3091,-2.3042,-2.2838,-2.1419,-1.9315,-1.6434,-1.4639,-1.3086,-1.1533,-1.1106,-1.1112,-1.1464,-1.0451,-0.9914,0.0,0.0,0.0,-0.8838,-0.8804,-0.9174,-1.0094,-1.0785,-1.1973,-1.381,-1.4859,-1.5956,-1.7195,-1.7851,-1.8172,-1.8181,-1.709,-1.6317,-1.5908,-1.4947,-1.4603,-1.4763,-1.5197,-1.5398,-1.5411,-1.5705,-1.5784,-1.5784,-1.5784,-1.5784,-1.5784,-1.5784,-1.5784,-1.5784,-1.5784,-1.5784,-1.5784,-3.0821,-3.0959,-3.126,-3.2227,-3.3068,-3.3884,-3.4718,-3.5931,-3.6367,-3.5215,-3.5064,-3.5064,-3.5064,-3.5843,-3.6405,-3.6405,-3.6405,-3.6182,-3.5696,-3.4542,-3.3135,-3.1547,-2.9672,-2.7872,-2.6159,-2.5181,-2.3559,-2.1327,-1.9777,-1.7949,-1.5811,-1.4923,-1.4484,-1.458,-1.7139,-1.9238,-2.0957,-2.1943,-2.2676,-2.3101,-2.3198,-2.3227,-2.3227,-2.3227,-2.3227,-2.3218,-2.313,-2.3091,-2.3091,-2.3091,-2.3091,-2.3091,-2.3091,-2.3091,-2.3091,-2.3091,-2.3091,-2.3091,-2.3091,-2.3091,-2.3091,-2.3091,-2.3091,-2.3091,-2.3091,-2.3091,-2.3047,-2.2775,-2.0982,-1.8497,-1.5388,-1.4902,-1.4285,-1.2237,-1.1891,-1.2006,-1.2262,-1.109,-1.0413,0.0,0.0,0.0,-0.8898,-0.8791,-0.887,-0.923,-1.0569,-1.1867,-1.3032,-1.4487,-1.5904,-1.7331,-1.7963,-1.8303,-1.8372,-1.7496,-1.6721,-1.6097,-1.5147,-1.483,-1.5109,-1.5357,-1.5491,-1.5504,-1.5732,-1.5784,-1.5784,-1.5784,-1.5784,-1.5784,-1.5784,-1.5784,-1.5784,-1.5784,-1.5784,-1.5784,-3.1863,-3.2064,-3.2252,-3.288,-3.4286,-3.5307,-3.5408,-3.6822,-3.745,-3.6405,-3.6254,-3.6254,-3.6254,-3.6355,-3.6405,-3.6405,-3.6405,-3.6392,-3.6329,-3.5053,-3.4076,-3.3446,-3.0971,-2.895,-2.7521,-2.6242,-2.4365,-2.1826,-2.0899,-1.9323,-1.7178,-1.633,-1.6525,-1.7637,-1.8691,-2.0137,-2.1768,-2.1894,-2.2402,-2.313,-2.3574,-2.373,-2.373,-2.373,-2.373,-2.3682,-2.3237,-2.3091,-2.3091,-2.3091,-2.3091,-2.3091,-2.3091,-2.3091,-2.3091,-2.3091,-2.3091,-2.3091,-2.3091,-2.3091,-2.3091,-2.3091,-2.3091,-2.3091,-2.3091,-2.3091,-2.2775,-2.1702,-1.9167,-1.6656,-1.5074,-1.4458,-1.3709,-1.2163,-1.2089,-1.2195,-1.1994,-1.1155,-1.0665,-1.0965,0.0,0.0,-0.9204,-0.8724,-0.8561,-0.8823,-1.0097,-1.1515,-1.3014,-1.422,-1.502,-1.536,-1.6524,-1.6876,-1.6289,-1.6257,-1.6152,-1.6104,-1.5576,-1.5324,-1.5364,-1.5658,-1.5744,-1.5744,-1.5771,-1.5784,-1.5784,-1.5784,-1.5784,-1.5784,-1.5784,-1.5784,-1.5784,-1.5784,-1.5784,-1.5784,-3.4091,-3.4166,-3.4455,-3.5391,-3.5818,-3.6257,-3.6923,-3.7588,-3.7852,-3.7412,-3.7061,-3.6908,-3.6908,-3.6606,-3.6405,-3.6405,-3.6405,-3.6405,-3.6405,-3.5918,-3.5173,-3.4173,-3.2825,-3.1089,-2.8965,-2.7603,-2.5633,-2.3027,-2.1946,-2.0429,-1.8516,-1.8164,-1.8408,-1.9199,-2.0342,-2.1377,-2.2314,-2.3086,-2.3603,-2.3881,-2.4092,-2.417,-2.417,-2.417,-2.417,-2.4141,-2.3975,-2.375,-2.3525,-2.3525,-2.3315,-2.3091,-2.3091,-2.3091,-2.3091,-2.3091,-2.3091,-2.3091,-2.3091,-2.3091,-2.3091,-2.3091,-2.3091,-2.3091,-2.3091,-2.2536,-2.1889,-2.1391,-1.9387,-1.7087,-1.4805,-1.4849,-1.4793,-1.3431,-1.311,-1.3147,-1.3477,-1.2123,-1.128,-1.1786,0.0,-0.9566,-0.9244,-0.8871,-0.8751,-0.9018,-0.9995,-1.1015,-1.2085,-1.3576,-1.4573,-1.4975,-1.6052,-1.6523,-1.6249,-1.6134,-1.6193,-1.6401,-1.5729,-1.5484,-1.5658,-1.5724,-1.5784,-1.5784,-1.5784,-1.5784,-1.5784,-1.5784,-1.5784,-1.5784,-1.5784,-1.5784,-1.5784,-1.5784,-1.5784,-1.5784,-3.5947,-3.5984,-3.632,-3.7262,-3.7249,-3.741,-3.814,-3.8404,-3.8504,-3.8504,-3.8015,-3.7613,-3.745,-3.7073,-3.6832,-3.6669,-3.6656,-3.6581,-3.6417,-3.6405,-3.5966,-3.503,-3.427,-3.2764,-3.0342,-2.8953,-2.6975,-2.4365,-2.333,-2.1992,-2.042,-2.0293,-2.0459,-2.0869,-2.1973,-2.2676,-2.3135,-2.4033,-2.4414,-2.4424,-2.456,-2.4609,-2.4609,-2.4609,-2.4609,-2.459,-2.4463,-2.4228,-2.3975,-2.3975,-2.3769,-2.3422,-2.3179,-2.3091,-2.3091,-2.3091,-2.3091,-2.3091,-2.3091,-2.3091,-2.3091,-2.3091,-2.3091,-2.3091,-2.3091,-2.2164,-2.1042,-2.0137,-1.8893,-1.713,-1.4564,-1.4851,-1.5098,-1.4028,-1.3583,-1.3543,-1.387,-1.2483,-1.1546,-1.1945,-1.0627,-0.9566,-0.9244,-0.8951,-0.8965,-0.9311,-1.0068,-1.0881,-1.1791,-1.3132,-1.4212,-1.4944,-1.5743,-1.6182,-1.6287,-1.6275,-1.6364,-1.6595,-1.5874,-1.5631,-1.5784,-1.5784,-1.5784,-1.5784,-1.5784,-1.5784,-1.5784,-1.5784,-1.5784,-1.5784,-1.5784,-1.5784,-1.5784,-1.5784,-1.5784,-1.5784,-3.7061,-3.7161,-3.7337,-3.7902,-3.8467,-3.8894,-3.8906,-3.932,-3.9672,-3.9672,-3.9195,-3.863,-3.8065,-3.799,-3.7764,-3.7224,-3.7174,-3.6996,-3.6443,-3.6405,-3.6405,-3.6358,-3.5114,-3.3527,-3.1724,-3.0371,-2.8356,-2.5664,-2.5254,-2.4365,-2.3042,-2.2666,-2.2705,-2.3081,-2.3564,-2.4004,-2.4394,-2.4414,-2.4414,-2.4453,-2.4883,-2.5106,-2.5106,-2.5106,-2.5106,-2.5047,-2.457,-2.4414,-2.4414,-2.4414,-2.4404,-2.4248,-2.3364,-2.3091,-2.3091,-2.3091,-2.3091,-2.3091,-2.3091,-2.3091,-2.3091,-2.3091,-2.3091,-2.3091,-2.3091,-2.2164,-2.0438,-1.7471,-1.6858,-1.6271,-1.4443,-1.4124,-1.3929,-1.3313,-1.3206,-1.2993,-1.2398,-1.1797,-1.1282,-1.1062,-1.0251,-0.9566,-0.9244,-0.8951,-0.9051,-0.9633,-1.0308,-1.1235,-1.2535,-1.3102,-1.3921,-1.505,-1.5439,-1.5753,-1.5992,-1.6389,-1.6587,-1.6602,-1.6035,-1.5778,-1.5784,-1.5784,-1.5784,-1.5784,-1.5784,-1.5784,-1.5784,-1.5784,-1.5784,-1.5784,-1.5784,-1.5784,-1.5784,-1.5784,-1.5784,-1.5784,-3.8353,-3.863,-3.8944,-3.9132,-3.9308,-3.9433,-3.9433,-3.9584,-3.9697,-3.9697,-3.9534,-3.9358,-3.9182,-3.8467,-3.7939,-3.7764,-3.7751,-3.7663,-3.75,-3.7136,-3.6971,-3.6971,-3.6212,-3.4631,-3.2157,-3.1434,-2.9568,-2.6611,-2.6182,-2.5449,-2.4443,-2.4014,-2.3877,-2.4033,-2.4463,-2.4783,-2.4883,-2.5185,-2.5274,-2.5284,-2.5469,-2.5527,-2.5527,-2.5527,-2.5527,-2.5508,-2.5313,-2.5127,-2.4863,-2.4863,-2.4668,-2.4365,-2.4046,-2.3809,-2.3525,-2.3179,-2.3091,-2.3091,-2.3091,-2.3091,-2.3091,-2.3091,-2.3091,-2.3091,-2.3091,-2.2164,-2.024,-1.6619,-1.6358,-1.6286,-1.4659,-1.4222,-1.4028,-1.3841,-1.3474,-1.314,-1.2946,-1.2231,-1.1617,-1.1323,-1.0727,-1.0198,-0.9837,-0.9724,-0.9693,-0.9715,-1.0493,-1.1137,-1.1567,-1.2857,-1.342,-1.2985,-1.4132,-1.4647,-1.4351,-1.514,-1.5583,-1.5791,-1.5779,-1.5784,-1.5784,-1.5784,-1.5784,-1.5784,-1.5784,-1.5784,-1.5784,-1.5784,-1.5784,-1.5784,-1.5784,-1.5784,-1.5784,-1.5784,-1.5784,-1.5784,-3.9182,-3.9459,-3.9697,-3.9697,-3.9697,-3.9697,-3.9697,-3.9697,-3.9697,-3.9697,-3.9697,-3.9697,-3.9697,-3.9057,-3.8555,-3.8354,-3.8329,-3.8241,-3.8015,-3.7688,-3.75,-3.75,-3.7008,-3.5454,-3.2724,-3.219,-3.0414,-2.7256,-2.6826,-2.6338,-2.5791,-2.5518,-2.5391,-2.54,-2.5674,-2.5801,-2.582,-2.6094,-2.6171,-2.6171,-2.6171,-2.6171,-2.6152,-2.6045,-2.5977,-2.5967,-2.5742,-2.5557,-2.5322,-2.5322,-2.5137,-2.4883,-2.4717,-2.4482,-2.4189,-2.375,-2.3461,-2.3379,-2.3379,-2.3218,-2.3091,-2.3091,-2.3091,-2.2862,-2.1952,-2.1534,-2.0193,-1.6214,-1.6216,-1.6463,-1.4801,-1.4369,-1.4215,-1.4108,-1.3594,-1.3213,-1.3213,-1.2438,-1.1792,-1.1429,-1.1009,-1.064,-1.0314,-1.0481,-1.0534,-1.0354,-1.1214,-1.1687,-1.1574,-1.2623,-1.3103,-1.2758,-1.3734,-1.4185,-1.3926,-1.4743,-1.5217,-1.5398,-1.5691,-1.5784,-1.5784,-1.5784,-1.5784,-1.5784,-1.5784,-1.5784,-1.5784,-1.5784,-1.5784,-1.5784,-1.5784,-1.5784,-1.5784,-1.5784,-1.5784,-1.5784,-3.9697,-3.9697,-3.9697,-3.9697,-3.9697,-3.9697,-3.9697,-3.9697,-3.9697,-3.9697,-3.9697,-3.9697,-3.9697,-3.9697,-3.9484,-3.902,-3.8982,-3.8693,-3.8153,-3.809,-3.8065,-3.8065,-3.7538,-3.6051,-3.3413,-3.2684,-3.0847,-2.7767,-2.7275,-2.706,-2.706,-2.7031,-2.7012,-2.7012,-2.7012,-2.7012,-2.7012,-2.7012,-2.7012,-2.7012,-2.7012,-2.7012,-2.6973,-2.6582,-2.6435,-2.6377,-2.5937,-2.5732,-2.5732,-2.5703,-2.5693,-2.5615,-2.5244,-2.5165,-2.5019,-2.4551,-2.4141,-2.3828,-2.3799,-2.3496,-2.313,-2.3101,-2.3047,-2.2315,-1.9951,-2.0305,-2.0058,-1.6197,-1.638,-1.6668,-1.4889,-1.4549,-1.4429,-1.4162,-1.3607,-1.3213,-1.3213,-1.2472,-1.1859,-1.1489,-1.1269,-1.1035,-1.074,-1.1169,-1.1442,-1.1422,-1.2275,-1.263,-1.2318,-1.2466,-1.3004,-1.3951,-1.4062,-1.4269,-1.4576,-1.5124,-1.5404,-1.5431,-1.5698,-1.5784,-1.5784,-1.5784,-1.5784,-1.5784,-1.5784,-1.5784,-1.5784,-1.5784,-1.5784,-1.5784,-1.5784,-1.5784,-1.5784,-1.5784,-1.5784,-1.5784,-3.9697,-3.9697,-3.9697,-3.9697,-3.9697,-3.9697,-3.9697,-3.9697,-3.9697,-3.9697,-3.9697,-3.9697,-3.9697,-3.9697,-3.9647,-3.9509,-3.9496,-3.9446,-3.9308,-3.8894,-3.8668,-3.8668,-3.8115,-3.6825,-3.4772,-3.3583,-3.1393,-2.8144,-2.7715,-2.751,-2.751,-2.7168,-2.7012,-2.7012,-2.7012,-2.7012,-2.7012,-2.7012,-2.7012,-2.7012,-2.7012,-2.7012,-2.7002,-2.6904,-2.6865,-2.6807,-2.6387,-2.623,-2.6182,-2.5801,-2.5693,-2.5674,-2.5567,-2.5586,-2.543,-2.4648,-2.4346,-2.4199,-2.3877,-2.3711,-2.3555,-2.3179,-2.2403,-2.1078,-1.8688,-1.9039,-1.9099,-1.6289,-1.6483,-1.6807,-1.5431,-1.4823,-1.4496,-1.4429,-1.3741,-1.3213,-1.3213,-1.2864,-1.2462,-1.2131,-1.2275,-1.2254,-1.1917,-1.2011,-1.2004,-1.1819,-1.2164,-1.2378,-1.2305,-1.2973,-1.3444,-1.3701,-1.4159,-1.4669,-1.5184,-1.5324,-1.5504,-1.5732,-1.5751,-1.5784,-1.5784,-1.5784,-1.5784,-1.5784,-1.5784,-1.5784,-1.5784,-1.5784,-1.5784,-1.5784,-1.5784,-1.5784,-1.5784,-1.5784,-1.5784,-1.5784,-3.9697,-3.9697,-3.9697,-3.9697,-3.9697,-3.9697,-3.9697,-3.9697,-3.9697,-3.9697,-3.9697,-3.9697,-3.9697,-3.9697,-3.9697,-3.9697,-3.9697,-3.9697,-3.9697,-3.9421,-3.9245,-3.9245,-3.8705,-3.7616,-3.5989,-3.4308,-3.1878,-2.8574,-2.8154,-2.7949,-2.7949,-2.7705,-2.7598,-2.7598,-2.7598,-2.7598,-2.7598,-2.7598,-2.7598,-2.7598,-2.7598,-2.7598,-2.7578,-2.7383,-2.7314,-2.7256,-2.6826,-2.667,-2.6641,-2.6396,-2.6191,-2.6035,-2.6035,-2.5849,-2.5596,-2.5118,-2.4873,-2.4668,-2.4434,-2.4082,-2.3538,-2.2552,-2.18,-2.0666,-1.8226,-1.8187,-1.8133,-1.6197,-1.6201,-1.6313,-1.5556,-1.503,-1.4636,-1.4362,-1.3808,-1.3313,-1.3033,-1.3012,-1.2884,-1.2538,-1.2811,-1.2893,-1.2732,-1.2839,-1.2792,-1.2505,-1.2879,-1.312,-1.312,-1.3707,-1.3939,-1.3848,-1.4543,-1.5077,-1.5391,-1.5524,-1.5671,-1.5784,-1.5784,-1.5784,-1.5784,-1.5784,-1.5784,-1.5784,-1.5784,-1.5784,-1.5784,-1.5784,-1.5784,-1.5784,-1.5784,-1.5784,-1.5784,-1.5784,-1.5784,-1.5784,-3.9697,-3.9697,-3.9697,-3.9697,-3.9697,-3.9697,-3.9697,-3.9697,-3.9697,-3.9697,-3.9697,-3.9697,-3.9697,-3.9697,-3.9697,-3.9697,-3.9697,-3.9697,-3.9697,-3.9697,-3.9697,-3.9697,-3.9245,-3.8398,-3.716,-3.4964,-3.2244,-2.9023,-2.8594,-2.8389,-2.8389,-2.832,-2.8291,-2.8291,-2.8291,-2.8291,-2.8291,-2.8291,-2.8291,-2.8291,-2.8291,-2.8291,-2.8252,-2.7891,-2.7816,-2.7705,-2.7266,-2.7119,-2.71,-2.7041,-2.6777,-2.6484,-2.6484,-2.6182,-2.5791,-2.5791,-2.5518,-2.5204,-2.5135,-2.4341,-2.3188,-2.1752,-2.1069,-2.0215,-1.8187,-1.7552,-1.7131,-1.6015,-1.5784,-1.5752,-1.5504,-1.519,-1.4827,-1.4242,-1.3868,-1.3447,-1.2931,-1.308,-1.3193,-1.3012,-1.322,-1.3427,-1.3474,-1.3613,-1.3653,-1.3494,-1.3895,-1.4168,-1.4215,-1.4496,-1.4543,-1.4289,-1.501,-1.5418,-1.5464,-1.5705,-1.5784,-1.5784,-1.5784,-1.5784,-1.5784,-1.5784,-1.5784,-1.5784,-1.5784,-1.5784,-1.5784,-1.5784,-1.5784,-1.5784,-1.5784,-1.5784,-1.5784,-1.5784,-1.5784,-1.5784,-3.9697,-3.9697,-3.9697,-3.9697,-3.9697,-3.9697,-3.9697,-3.9697,-3.9697,-3.9697,-3.9697,-3.9697,-3.9697,-3.9697,-3.9697,-3.9697,-3.9697,-3.9697,-3.9697,-3.9697,-3.9697,-3.9697,-3.9609,-3.9243,-3.8603,-3.5445,-3.2405,-2.9473,-2.9033,-2.8818,-2.8818,-2.8457,-2.8291,-2.8291,-2.8291,-2.8291,-2.8291,-2.8291,-2.8291,-2.8291,-2.8291,-2.8291,-2.8281,-2.8223,-2.8193,-2.8135,-2.7715,-2.7568,-2.751,-2.7139,-2.6973,-2.6914,-2.6914,-2.6621,-2.6289,-2.6289,-2.5977,-2.5557,-2.5166,-2.3728,-2.2245,-2.1943,-2.0058,-1.8141,-1.7785,-1.685,-1.6062,-1.5825,-1.5784,-1.5764,-1.5772,-1.5324,-1.4901,-1.4509,-1.3959,-1.3487,-1.3186,-1.3353,-1.3613,-1.3854,-1.4142,-1.4416,-1.4713,-1.4502,-1.4469,-1.472,-1.4543,-1.4563,-1.4861,-1.5104,-1.5237,-1.5197,-1.5324,-1.5518,-1.5758,-1.5758,-1.5784,-1.5784,-1.5784,-1.5784,-1.5784,-1.5784,-1.5784,-1.5784,-1.5784,-1.5784,-1.5784,-1.5784,-1.5784,-1.5784,-1.5784,-1.5784,-1.5784,-1.5784,-1.5784,-1.5784,-3.9697,-3.9697,-3.9697,-3.9697,-3.9697,-3.9697,-3.9697,-3.9697,-3.9697,-3.9697,-3.9697,-3.9697,-3.9697,-3.9697,-3.9697,-3.9697,-3.9697,-3.9697,-3.9697,-3.9697,-3.9697,-3.9697,-3.9697,-3.8862,-3.7026,-3.5165,-3.2814,-2.9902,-2.9482,-2.9268,-2.9268,-2.9072,-2.8857,-2.8633,-2.8633,-2.8506,-2.8291,-2.8291,-2.8291,-2.8291,-2.8291,-2.8291,-2.8291,-2.8291,-2.8291,-2.8271,-2.8066,-2.7998,-2.7969,-2.7773,-2.7549,-2.7363,-2.7363,-2.707,-2.668,-2.6455,-2.6084,-2.5586,-2.5195,-2.439,-2.342,-2.2272,-2.0483,-1.8769,-1.7916,-1.6709,-1.5784,-1.5784,-1.5784,-1.5784,-1.5784,-1.5484,-1.5097,-1.481,-1.4396,-1.3919,-1.3467,-1.3786,-1.4108,-1.4088,-1.4482,-1.481,-1.4995,-1.4836,-1.4816,-1.4995,-1.4836,-1.489,-1.5177,-1.5324,-1.5471,-1.5625,-1.5631,-1.5691,-1.5784,-1.5784,-1.5784,-1.5784,-1.5784,-1.5784,-1.5784,-1.5784,-1.5784,-1.5784,-1.5784,-1.5784,-1.5784,-1.5784,-1.5784,-1.5784,-1.5784,-1.5784,-1.5784,-1.5784,-1.5784,-1.5784,-3.9697,-3.9697,-3.9697,-3.9697,-3.9697,-3.9697,-3.9697,-3.9697,-3.9697,-3.9697,-3.9697,-3.9697,-3.9697,-3.9697,-3.9697,-3.9697,-3.9697,-3.9697,-3.9697,-3.9697,-3.9697,-3.9697,-3.9362,-3.7979,-3.5354,-3.458,-3.2976,-3.0361,-2.9922,-2.9717,-2.9717,-2.9619,-2.9394,-2.9072,-2.9072,-2.8887,-2.8584,-2.8584,-2.8584,-2.8584,-2.8476,-2.8437,-2.8428,-2.833,-2.8291,-2.8291,-2.8291,-2.8291,-2.8291,-2.8291,-2.8076,-2.7812,-2.7812,-2.7519,-2.71,-2.6777,-2.6309,-2.5791,-2.5342,-2.4946,-2.4373,-2.3066,-2.1383,-1.9764,-1.8543,-1.7221,-1.6157,-1.5872,-1.5784,-1.5784,-1.5784,-1.5591,-1.5304,-1.5055,-1.477,-1.4442,-1.388,-1.4295,-1.4563,-1.4409,-1.479,-1.5135,-1.5157,-1.5209,-1.5209,-1.5209,-1.5209,-1.5264,-1.5484,-1.5498,-1.5598,-1.5771,-1.5784,-1.5784,-1.5784,-1.5784,-1.5784,-1.5784,-1.5784,-1.5784,-1.5784,-1.5784,-1.5784,-1.5784,-1.5784,-1.5784,-1.5784,-1.5784,-1.5784,-1.5784,-1.5784,-1.5784,-1.5784,-1.5784,-1.5784,-1.5784,-3.9697,-3.9697,-3.9697,-3.9697,-3.9697,-3.9697,-3.9697,-3.9697,-3.9697,-3.9697,-3.9697,-3.9697,-3.9697,-3.9697,-3.9697,-3.9697,-3.9697,-3.9697,-3.9697,-3.9697,-3.9697,-3.9697,-3.8413,-3.693,-3.5343,-3.3925,-3.2421,-3.084,-3.0371,-3.0156,-3.0137,-2.9756,-2.9551,-2.9521,-2.9521,-2.9502,-2.9473,-2.9473,-2.9473,-2.9443,-2.9033,-2.8877,-2.8828,-2.8437,-2.8291,-2.8291,-2.8291,-2.8291,-2.8291,-2.8291,-2.8271,-2.8252,-2.8252,-2.7959,-2.7669,-2.763,-2.6982,-2.625,-2.5752,-2.4591,-2.3675,-2.4649,-2.2494,-2.0063,-1.9945,-1.8676,-1.7225,-1.6062,-1.5784,-1.5784,-1.5784,-1.5591,-1.5304,-1.5055,-1.4988,-1.4823,-1.4496,-1.473,-1.5068,-1.5271,-1.5337,-1.5471,-1.5738,-1.5718,-1.5718,-1.5718,-1.5718,-1.5724,-1.5751,-1.5751,-1.5758,-1.5784,-1.5784,-1.5784,-1.5784,-1.5784,-1.5784,-1.5784,-1.5784,-1.5784,-1.5784,-1.5784,-1.5784,-1.5784,-1.5784,-1.5784,-1.5784,-1.5784,-1.5784,-1.5784,-1.5784,-1.5784,-1.5784,-1.5784,-1.5784,-1.5784,-3.9697,-3.9697,-3.9697,-3.9697,-3.9697,-3.9697,-3.9697,-3.9697,-3.9697,-3.9697,-3.9697,-3.9697,-3.9697,-3.9697,-3.9697,-3.9697,-3.9697,-3.9697,-3.9697,-3.9697,-3.9697,-3.9697,-3.8295,-3.6811,-3.5354,-3.3856,-3.2369,-3.0889,-3.0713,-3.0625,-3.0625,-3.0469,-3.0234,-2.9961,-2.9961,-2.9814,-2.9626,-2.9626,-2.9626,-2.956,-2.9385,-2.9316,-2.9307,-2.9141,-2.8916,-2.8682,-2.8682,-2.8516,-2.8291,-2.8291,-2.8291,-2.8291,-2.8291,-2.8184,-2.7998,-2.7796,-2.706,-2.6357,-2.6182,-2.5468,-2.4822,-2.5042,-2.3596,-2.1804,-2.0651,-1.9201,-1.7706,-1.6388,-1.5959,-1.5784,-1.5784,-1.5738,-1.5625,-1.5518,-1.5351,-1.519,-1.5077,-1.5164,-1.5277,-1.5384,-1.5558,-1.5705,-1.5771,-1.5784,-1.5784,-1.5784,-1.5784,-1.5784,-1.5784,-1.5784,-1.5784,-1.5784,-1.5784,-1.5784,-1.5784,-1.5784,-1.5784,-1.5784,-1.5784,-1.5784,-1.5784,-1.5784,-1.5784,-1.5784,-1.5784,-1.5784,-1.5784,-1.5784,-1.5784,-1.5784,-1.5784,-1.5784,-1.5784,-1.5784,-1.5784,-1.5784,-3.9697,-3.9697,-3.9697,-3.9697,-3.9697,-3.9697,-3.9697,-3.9697,-3.9697,-3.9697,-3.9697,-3.9697,-3.9697,-3.9697,-3.9697,-3.9697,-3.9697,-3.9697,-3.9697,-3.9697,-3.9697,-3.9697,-3.8295,-3.6811,-3.5354,-3.3856,-3.2369,-3.0889,-3.0889,-3.0889,-3.0889,-3.0889,-3.0723,-3.042,-3.042,-3.0254,-2.998,-2.998,-2.998,-2.9971,-2.9824,-2.9766,-2.9756,-2.9675,-2.9385,-2.9121,-2.9121,-2.8848,-2.8496,-2.8496,-2.8398,-2.8291,-2.8291,-2.8291,-2.8213,-2.7845,-2.7297,-2.6728,-2.6465,-2.6172,-2.584,-2.5391,-2.4584,-2.3419,-2.1826,-2.0518,-1.9137,-1.7285,-1.6773,-1.6402,-1.5893,-1.5784,-1.5784,-1.5784,-1.5665,-1.5531,-1.5531,-1.5531,-1.5531,-1.5531,-1.5705,-1.5784,-1.5784,-1.5784,-1.5784,-1.5784,-1.5784,-1.5784,-1.5784,-1.5784,-1.5784,-1.5784,-1.5784,-1.5784,-1.5784,-1.5784,-1.5784,-1.5784,-1.5784,-1.5784,-1.5784,-1.5784,-1.5784,-1.5784,-1.5784,-1.5784,-1.5784,-1.5784,-1.5784,-1.5784,-1.5784,-1.5784,-1.5784,-1.5784,-1.5784,-1.5784,-3.9697,-3.9697,-3.9697,-3.9697,-3.9697,-3.9697,-3.9697,-3.9697,-3.9697,-3.9697,-3.9697,-3.9697,-3.9697,-3.9697,-3.9697,-3.9697,-3.9697,-3.9697,-3.9697,-3.9697,-3.9685,-3.9685,-3.8243,-3.6811,-3.5288,-3.3856,-3.2369,-3.0889,-3.0889,-3.0889,-3.0889,-3.0889,-3.0889,-3.0889,-3.0889,-3.0889,-3.0889,-3.0889,-3.0889,-3.085,-3.0391,-3.0205,-3.0156,-2.9736,-2.9636,-2.957,-2.957,-2.9287,-2.8926,-2.8926,-2.8643,-2.8301,-2.8291,-2.8291,-2.8213,-2.7845,-2.7718,-2.7532,-2.6631,-2.6396,-2.6279,-2.5801,-2.54,-2.4774,-2.3558,-2.2951,-2.1781,-1.8907,-1.8313,-1.7787,-1.6116,-1.5832,-1.5784,-1.5784,-1.5784,-1.5784,-1.5784,-1.5784,-1.5784,-1.5784,-1.5784,-1.5784,-1.5784,-1.5784,-1.5784,-1.5784,-1.5784,-1.5784,-1.5784,-1.5784,-1.5784,-1.5784,-1.5784,-1.5784,-1.5784,-1.5784,-1.5784,-1.5784,-1.5784,-1.5784,-1.5784,-1.5784,-1.5784,-1.5784,-1.5784,-1.5784,-1.5784,-1.5784,-1.5784,-1.5784,-1.5784,-1.5784,-1.5784,-1.5784,-1.5784,-1.5784,-3.9697,-3.9697,-3.9697,-3.9697,-3.9697,-3.9697,-3.9697,-3.9697,-3.9697,-3.9697,-3.9697,-3.9697,-3.9697,-3.9697,-3.9697,-3.9697,-3.9697,-3.9697,-3.9697,-3.9697,-3.9245,-3.819,-3.6757,-3.5288,-3.38,-3.2311,-3.1325,-3.0889,-3.0889,-3.0889,-3.0889,-3.0889,-3.0889,-3.0889,-3.0889,-3.0889,-3.0889,-3.0889,-3.0889,-3.0879,-3.0742,-3.0684,-3.0674,-3.0547,-3.0293,-3.001,-3.001,-2.9736,-2.9375,-2.9375,-2.9092,-2.8682,-2.8389,-2.8291,-2.8271,-2.8144,-2.79,-2.766,-2.7405,-2.6846,-2.6279,-2.5801,-2.4925,-2.3757,-2.2453,-2.1906,-2.1112,-1.9311,-1.8762,-1.8361,-1.7658,-1.68,-1.6072,-1.5865,-1.5784,-1.5784,-1.5784,-1.5784,-1.5784,-1.5784,-1.5784,-1.5784,-1.5784,-1.5784,-1.5784,-1.5784,-1.5784,-1.5784,-1.5784,-1.5784,-1.5784,-1.5784,-1.5784,-1.5784,-1.5784,-1.5784,-1.5784,-1.5784,-1.5784,-1.5784,-1.5784,-1.5784,-1.5784,-1.5784,-1.5784,-1.5784,-1.5784,-1.5784,-1.5784,-1.5784,-1.5784,-1.5784,-1.5784,-1.5784,-1.5784,-1.5784,-3.9697,-3.9697,-3.9697,-3.9697,-3.9697,-3.9697,-3.9697,-3.9697,-3.9697,-3.9697,-3.9697,-3.9697,-3.9697,-3.9697,-3.9697,-3.9697,-3.9697,-3.9697,-3.9697,-3.9129,-3.819,-3.6703,-3.5233,-3.4013,-3.3134,-3.2207,-3.1498,-3.0889,-3.0889,-3.0889,-3.0889,-3.0889,-3.0889,-3.0889,-3.0889,-3.0889,-3.0889,-3.0889,-3.0889,-3.0889,-3.0889,-3.0889,-3.0889,-3.0889,-3.0713,-3.0469,-3.0469,-3.0185,-2.9824,-2.9824,-2.9531,-2.9101,-2.8672,-2.8545,-2.8506,-2.834,-2.8115,-2.7881,-2.7767,-2.7337,-2.6787,-2.6348,-2.5366,-2.4304,-2.3484,-2.2743,-2.1933,-2.1007,-2.0211,-1.9607,-1.9318,-1.806,-1.7015,-1.6825,-1.6232,-1.5784,-1.5784,-1.5784,-1.5784,-1.5784,-1.5784,-1.5784,-1.5784,-1.5784,-1.5784,-1.5784,-1.5784,-1.5784,-1.5784,-1.5784,-1.5784,-1.5784,-1.5784,-1.5784,-1.5784,-1.5784,-1.5784,-1.5784,-1.5784,-1.5784,-1.5784,-1.5784,-1.5784,-1.5784,-1.5784,-1.5784,-1.5784,-1.5784,-1.5784,-1.5784,-1.5784,-1.5784,-1.5784,-1.5784,-1.5784,-1.5784,-3.9697,-3.9697,-3.9697,-3.9697,-3.9697,-3.9697,-3.9697,-3.9697,-3.9697,-3.9697,-3.9697,-3.9697,-3.9697,-3.9697,-3.9697,-3.9697,-3.9697,-3.9697,-3.9697,-3.8295,-3.6811,-3.5343,-3.3912,-3.3021,-3.2918,-3.2907,-3.2264,-3.0889,-3.0889,-3.0889,-3.0889,-3.0889,-3.0889,-3.0889,-3.0889,-3.0889,-3.0889,-3.0889,-3.0889,-3.0889,-3.0889,-3.0889,-3.0889,-3.0889,-3.0889,-3.0889,-3.0889,-3.0625,-3.0254,-3.0205,-2.9941,-2.9551,-2.9111,-2.8945,-2.8848,-2.8467,-2.832,-2.8203,-2.7822,-2.7748,-2.762,-2.7178,-2.6405,-2.5791,-2.5596,-2.4529,-2.3435,-2.3232,-2.2051,-2.0991,-2.0734,-1.9309,-1.8197,-1.8167,-1.6881,-1.5851,-1.5872,-1.5824,-1.5811,-1.5784,-1.5784,-1.5784,-1.5784,-1.5784,-1.5784,-1.5784,-1.5784,-1.5784,-1.5784,-1.5784,-1.5784,-1.5784,-1.5784,-1.5784,-1.5784,-1.5784,-1.5784,-1.5784,-1.5784,-1.5784,-1.5784,-1.5784,-1.5784,-1.5784,-1.5784,-1.5784,-1.5784,-1.5784,-1.5784,-1.5784,-1.5784,-1.5784,-1.5784,-1.5784,-1.5784,-1.5784,-3.9697,-3.9697,-3.9697,-3.9697,-3.9697,-3.9697,-3.9697,-3.9697,-3.9697,-3.9697,-3.9697,-3.9697,-3.9697,-3.9697,-3.9697,-3.9697,-3.9697,-3.9697,-3.9697,-3.8295,-3.6811,-3.5343,-3.3912,-3.2587,-3.1383,-3.1383,-3.1218,-3.0889,-3.0889,-3.0889,-3.0889,-3.0889,-3.0889,-3.0889,-3.0889,-3.0889,-3.0889,-3.0889,-3.0889,-3.0889,-3.0889,-3.0889,-3.0889,-3.0889,-3.0889,-3.0889,-3.0889,-3.083,-3.0684,-3.0322,-3.0137,-2.999,-2.956,-2.9199,-2.8896,-2.8809,-2.8555,-2.8271,-2.8174,-2.792,-2.7699,-2.7549,-2.7129,-2.6338,-2.4941,-2.3338,-2.2139,-2.2055,-2.0929,-1.987,-1.9591,-1.839,-1.7328,-1.7088,-1.6751,-1.6433,-1.6206,-1.6179,-1.6092,-1.5804,-1.5784,-1.5784,-1.5784,-1.5784,-1.5784,-1.5784,-1.5784,-1.5784,-1.5784,-1.5784,-1.5784,-1.5784,-1.5784,-1.5784,-1.5784,-1.5784,-1.5784,-1.5784,-1.5784,-1.5784,-1.5784,-1.5784,-1.5784,-1.5784,-1.5784,-1.5784,-1.5784,-1.5784,-1.5784,-1.5784,-1.5784,-1.5784,-1.5784,-1.5784,-1.5784,-1.5784,-3.9697,-3.9697,-3.9697,-3.9697,-3.9697,-3.9697,-3.9697,-3.9697,-3.9697,-3.9697,-3.9697,-3.9697,-3.9697,-3.9697,-3.9697,-3.9697,-3.9697,-3.9697,-3.9697,-3.7648,-3.6108,-3.5354,-3.3201,-3.172,-3.0889,-3.0889,-3.0889,-3.0889,-3.0889,-3.0889,-3.0889,-3.0889,-3.0889,-3.0889,-3.0889,-3.0889,-3.0889,-3.0889,-3.0889,-3.0889,-3.0889,-3.0889,-3.0889,-3.0889,-3.0889,-3.0889,-3.0889,-3.0889,-3.0859,-3.0605,-3.0527,-3.0449,-3.001,-2.9717,-2.9443,-2.9043,-2.876,-2.8545,-2.835,-2.8135,-2.7969,-2.7969,-2.7646,-2.6994,-2.562,-2.4065,-2.3085,-2.352,-2.2517,-2.1702,-2.2227,-2.1089,-1.9825,-1.8994,-1.8159,-1.7379,-1.6599,-1.648,-1.6366,-1.6079,-1.6039,-1.5985,-1.5798,-1.5784,-1.5784,-1.5784,-1.5784,-1.5784,-1.5784,-1.5784,-1.5784,-1.5784,-1.5784,-1.5784,-1.5784,-1.5784,-1.5784,-1.5784,-1.5784,-1.5784,-1.5784,-1.5784,-1.5784,-1.5784,-1.5784,-1.5784,-1.5784,-1.5784,-1.5784,-1.5784,-1.5784,-1.5784,-1.5784,-1.5784,-1.5784,-1.5784,-3.9697,-3.9697,-3.9697,-3.9697,-3.9697,-3.9697,-3.9697,-3.9697,-3.9697,-3.9697,-3.9697,-3.9697,-3.9697,-3.9697,-3.9697,-3.9697,-3.9697,-3.9697,-3.9697,-3.6942,-3.5288,-3.5288,-3.2493,-3.0889,-3.0889,-3.0889,-3.0889,-3.0889,-3.0889,-3.0889,-3.0889,-3.0889,-3.0889,-3.0889,-3.0889,-3.0889,-3.0889,-3.0889,-3.0889,-3.0889,-3.0889,-3.0889,-3.0889,-3.0889,-3.0889,-3.0889,-3.0889,-3.0889,-3.0889,-3.0889,-3.0889,-3.082,-3.0439,-3.0264,-3.0059,-2.9346,-2.9033,-2.8848,-2.8496,-2.835,-2.8291,-2.8291,-2.8027,-2.762,-2.6787,-2.543,-2.4542,-2.5299,-2.4143,-2.3335,-2.4461,-2.3577,-2.2308,-2.1098,-1.9774,-1.8458,-1.7275,-1.6931,-1.6673,-1.638,-1.6346,-1.6246,-1.5999,-1.5931,-1.5911,-1.5912,-1.5905,-1.5838,-1.5784,-1.5784,-1.5784,-1.5784,-1.5784,-1.5784,-1.5784,-1.5784,-1.5784,-1.5784,-1.5784,-1.5784,-1.5784,-1.5784,-1.5784,-1.5784,-1.5784,-1.5784,-1.5784,-1.5784,-1.5784,-1.5784,-1.5784,-1.5784,-1.5784,-1.5784,-1.5784,-1.5784,-3.9697,-3.9697,-3.9697,-3.9697,-3.9697,-3.9697,-3.9697,-3.9697,-3.9697,-3.9697,-3.9697,-3.9697,-3.9697,-3.9697,-3.9697,-3.9697,-3.9697,-3.9697,-3.9697,-3.6942,-3.5288,-3.5288,-3.2493,-3.0889,-3.0889,-3.0889,-3.0889,-3.0889,-3.0889,-3.0889,-3.0889,-3.0889,-3.0889,-3.0889,-3.0889,-3.0889,-3.0889,-3.0889,-3.0889,-3.0889,-3.0889,-3.0889,-3.0889,-3.0889,-3.0889,-3.0889,-3.0889,-3.0889,-3.0889,-3.0889,-3.0889,-3.0879,-3.082,-3.0518,-3.0176,-3.0059,-2.9502,-2.8906,-2.8848,-2.8574,-2.8291,-2.8291,-2.8252,-2.8086,-2.765,-2.5834,-2.4361,-2.4459,-2.218,-2.0187,-2.0392,-2.0251,-2.0015,-1.9861,-1.9626,-1.9345,-1.8918,-1.784,-1.7032,-1.668,-1.6647,-1.6627,-1.6593,-1.6587,-1.6486,-1.6233,-1.6213,-1.6099,-1.5798,-1.5784,-1.5784,-1.5784,-1.5784,-1.5784,-1.5784,-1.5784,-1.5784,-1.5784,-1.5784,-1.5784,-1.5784,-1.5784,-1.5784,-1.5784,-1.5784,-1.5784,-1.5784,-1.5784,-1.5784,-1.5784,-1.5784,-1.5784,-1.5784,-1.5784,-1.5784,-1.5784,-3.9697,-3.9697,-3.9697,-3.9697,-3.9697,-3.9697,-3.9697,-3.9697,-3.9697,-3.9697,-3.9697,-3.9697,-3.9697,-3.9697,-3.9697,-3.9697,-3.9697,-3.9362,-3.8518,-3.6499,-3.4902,-3.4125,-3.2045,-3.0889,-3.0889,-3.0889,-3.0889,-3.0889,-3.0889,-3.0889,-3.0889,-3.0889,-3.0889,-3.0889,-3.0889,-3.0889,-3.0889,-3.0889,-3.0889,-3.0889,-3.0889,-3.0889,-3.0889,-3.0889,-3.0889,-3.0889,-3.0889,-3.0889,-3.0889,-3.0889,-3.0889,-3.0889,-3.0889,-3.0752,-3.0537,-3.0273,-2.9932,-2.9531,-2.9043,-2.8779,-2.8584,-2.835,-2.8291,-2.8242,-2.8057,-2.7093,-2.6102,-2.5875,-2.4508,-2.3148,-2.2366,-2.2046,-2.1405,-1.9826,-1.9576,-1.9324,-1.8426,-1.7798,-1.7333,-1.6987,-1.6807,-1.6707,-1.6707,-1.6707,-1.6653,-1.6526,-1.6513,-1.646,-1.6326,-1.6319,-1.6319,-1.6319,-1.6159,-1.6079,-1.6079,-1.5912,-1.5784,-1.5784,-1.5784,-1.5784,-1.5784,-1.5784,-1.5784,-1.5784,-1.5784,-1.5784,-1.5784,-1.5784,-1.5784,-1.5784,-1.5784,-1.5784,-1.5784,-1.5784,-1.5784,-1.5784]},{"header":{"parameterUnit":"m.s-1","parameterCategory":1,"la1":30.6,"la2":28.766,"lo1":-90.7593,"lo2":-88.6598,"dy":0.0162,"dx":0.0183,"nx":116,"ny":114,"refTime":"2024-05-21T00:00:00:Z","depth":0,"parameterNumber":3,"parameterNumberName":"V-component_of_WINDS"},"data":[0.0,0.0,0.0,0.0,0.0,0.0,0.0,0.0,0.0,0.0,0.0,0.0,0.0,0.0,0.0,0.0,0.0,0.0,0.0,0.0,0.0,0.0,0.0,0.0,0.0,0.0,0.0,0.0,0.0,0.0,0.0,0.0,0.0,0.0,0.0,0.0,0.0,0.0,0.0,0.0,0.0,0.0,0.0,0.0,0.0,0.0,0.0,0.0,0.0,0.0,0.0,0.0,0.0,0.0,0.0,0.0,0.0,0.0,0.0,0.0,0.0,0.0,0.0,0.0,0.0,0.0,0.0,0.0,0.0,0.0,0.0,0.0,0.0,0.0,0.0,0.0,0.0,0.0,0.0,0.0,0.0,0.0,0.0,0.0,0.0,0.0,0.0,0.0,0.0,0.0,0.0,0.0,0.0,0.0,0.0,0.0,0.0,0.0,0.0,0.0,0.0,0.0,0.0,0.0,0.0,0.0,0.0,0.0,0.0,0.0,0.0,0.0,0.0,0.0,0.0,0.0,0.0,0.0,0.0,0.0,0.0,0.0,0.0,0.0,0.0,0.0,0.0,0.0,0.0,0.0,0.0,0.0,0.0,0.0,0.0,0.0,0.0,0.0,0.0,0.0,0.0,0.0,0.0,0.0,0.0,0.0,0.0,0.0,0.0,0.0,0.0,0.0,0.0,0.0,0.0,0.0,0.0,0.0,0.0,0.0,0.0,0.0,0.0,0.0,0.0,0.0,0.0,0.0,0.0,0.0,0.0,0.0,0.0,0.0,0.0,0.0,0.0,0.0,0.0,0.0,0.0,0.0,0.0,0.0,0.0,0.0,0.0,0.0,0.0,0.0,0.0,0.0,0.0,0.0,0.0,0.0,0.0,0.0,0.0,0.0,0.0,0.0,0.0,0.0,0.0,0.0,0.0,0.0,0.0,0.0,0.0,0.0,0.0,0.0,0.0,0.0,0.0,0.0,0.0,0.0,0.0,0.0,0.0,0.0,0.0,0.0,0.0,0.0,0.0,0.0,0.0,0.0,0.0,0.0,0.0,0.0,0.0,0.0,0.0,0.0,0.0,0.0,0.0,0.0,0.0,0.0,0.0,0.0,0.0,0.0,0.0,0.0,0.0,0.0,0.0,0.0,0.0,0.0,0.0,0.0,0.0,0.0,0.0,0.0,0.0,0.0,0.0,0.0,0.0,0.0,0.0,0.0,0.0,0.0,0.0,0.0,0.0,0.0,0.0,0.0,0.0,0.0,0.0,0.0,0.0,0.0,0.0,0.0,0.0,0.0,0.0,0.0,0.0,0.0,0.0,0.0,0.0,0.0,0.0,0.0,0.0,0.0,0.0,0.0,0.0,0.0,0.0,0.0,0.0,0.0,0.0,0.0,0.0,0.0,0.0,0.0,0.0,0.0,0.0,0.0,0.0,0.0,0.0,0.0,0.0,0.0,0.0,0.0,0.0,0.0,0.0,0.0,0.0,0.0,0.0,0.0,0.0,0.0,0.0,0.0,0.0,0.0,0.0,0.0,0.0,0.0,0.0,0.0,0.0,0.0,0.0,0.0,0.0,0.0,0.0,0.0,0.0,0.0,0.0,0.0,0.0,0.0,0.0,0.0,0.0,0.0,0.0,0.0,0.0,0.0,0.0,0.0,0.0,0.0,0.0,0.0,0.0,0.0,0.0,0.0,0.0,0.0,0.0,0.0,0.0,0.0,0.0,0.0,0.0,0.0,0.0,0.0,0.0,0.0,0.0,0.0,0.0,0.0,0.0,0.0,0.0,0.0,0.0,0.0,0.0,0.0,0.0,0.0,0.0,0.0,0.0,0.0,0.0,0.0,0.0,0.0,0.0,0.0,0.0,0.0,0.0,0.0,0.0,0.0,0.0,0.0,0.0,0.0,0.0,0.0,0.0,0.0,0.0,0.0,0.0,0.0,0.0,0.0,0.0,0.0,0.0,0.0,0.0,0.0,0.0,0.0,0.0,0.0,0.0,0.0,0.0,0.0,0.0,0.0,0.0,0.0,0.0,0.0,0.0,0.0,0.0,0.0,0.0,0.0,0.0,0.0,0.0,0.0,0.0,0.0,0.0,0.0,0.0,0.0,0.0,0.0,0.0,0.0,0.0,0.0,0.0,0.0,0.0,0.0,0.0,0.0,0.0,0.0,0.0,0.0,0.0,0.0,0.0,0.0,0.0,0.0,0.0,0.0,0.0,0.0,0.0,0.0,0.0,0.0,0.0,0.0,0.0,0.0,0.0,0.0,0.0,0.0,0.0,0.0,0.0,0.0,0.0,0.0,0.0,0.0,0.0,0.0,0.0,0.0,0.0,0.0,0.0,0.0,0.0,0.0,0.0,0.0,0.0,0.0,0.0,0.0,0.0,0.0,0.0,0.0,0.0,0.0,0.0,0.0,0.0,0.0,0.0,0.0,0.0,0.0,0.0,0.0,0.0,0.0,0.0,0.0,0.0,0.0,0.0,0.0,0.0,0.0,0.0,0.0,0.0,0.0,0.0,0.0,0.0,0.0,0.0,0.0,0.0,0.0,0.0,0.0,0.0,0.0,0.0,0.0,0.0,0.0,0.0,0.0,0.0,0.0,0.0,0.0,0.0,0.0,0.0,0.0,0.0,0.0,0.0,0.0,0.0,0.0,0.0,0.0,0.0,0.0,0.0,0.0,0.0,0.0,0.0,0.0,0.0,0.0,0.0,0.0,0.0,0.0,0.0,0.0,0.0,0.0,0.0,0.0,0.0,0.0,0.0,0.0,0.0,0.0,0.0,0.0,0.0,0.0,0.0,0.0,0.0,0.0,0.0,0.0,0.0,0.0,0.0,0.0,0.0,0.0,0.0,0.0,0.0,0.0,0.0,0.0,0.0,0.0,0.0,0.0,0.0,0.0,0.0,0.0,0.0,0.0,0.0,0.0,0.0,0.0,0.0,0.0,0.0,0.0,0.0,0.0,0.0,0.0,0.0,0.0,0.0,0.0,0.0,0.0,0.0,0.0,0.0,0.0,0.0,0.0,0.0,0.0,0.0,0.0,0.0,0.0,0.0,0.0,0.0,0.0,0.0,0.0,0.0,0.0,0.0,0.0,0.0,0.0,0.0,0.0,0.0,0.0,0.0,0.0,0.0,0.0,0.0,0.0,0.0,0.0,0.0,0.0,0.0,0.0,0.0,0.0,0.0,0.0,0.0,0.0,0.0,0.0,0.0,0.0,0.0,0.0,0.0,0.0,0.0,0.0,0.0,0.0,0.0,0.0,0.0,0.0,0.0,0.0,0.0,0.0,0.0,0.0,0.0,0.0,0.0,0.0,0.0,0.0,0.0,0.0,0.0,0.0,0.0,0.0,0.0,0.0,0.0,0.0,0.0,0.0,0.0,0.0,0.0,0.0,0.0,0.0,0.0,0.0,0.0,0.0,0.0,0.0,0.0,0.0,0.0,0.0,0.0,0.0,0.0,0.0,0.0,0.0,0.0,0.0,0.0,0.0,0.0,0.0,0.0,0.0,0.0,0.0,0.0,0.0,0.0,0.0,0.0,0.0,0.0,0.0,0.0,0.0,0.0,0.0,0.0,0.0,0.0,0.0,0.0,0.0,0.0,0.0,0.0,0.0,0.0,0.0,0.0,0.0,0.0,0.0,0.0,0.0,0.0,0.0,0.0,0.0,0.0,0.0,0.0,0.0,0.0,0.0,0.0,0.0,0.0,0.0,0.0,0.0,0.0,0.0,0.0,0.0,0.0,0.0,0.0,0.0,0.0,0.0,0.0,0.0,0.0,0.0,0.0,0.0,0.0,0.0,0.0,0.0,0.0,0.0,0.0,0.0,0.0,0.0,0.0,0.0,0.0,0.0,0.0,0.0,0.0,0.0,0.0,0.0,0.0,0.0,0.0,0.0,0.0,0.0,0.0,0.0,0.0,0.0,0.0,0.0,0.0,0.0,0.0,0.0,0.0,0.0,0.0,0.0,0.0,0.0,0.0,0.0,0.0,0.0,0.0,0.0,0.0,0.0,0.0,0.0,0.0,0.0,0.0,0.0,0.0,0.0,0.0,0.0,0.0,0.0,0.0,0.0,0.0,0.0,0.0,0.0,0.0,0.0,0.0,0.0,0.0,0.0,0.0,0.0,0.0,0.0,0.0,0.0,0.0,0.0,0.0,0.0,0.0,0.0,0.0,0.0,0.0,0.0,0.0,0.0,0.0,0.0,0.0,0.0,0.0,0.0,0.0,0.0,0.0,0.0,0.0,0.0,0.0,0.0,0.0,0.0,0.0,0.0,0.0,0.0,0.0,0.0,0.0,0.0,0.0,0.0,0.0,0.0,0.0,0.0,0.0,0.0,0.0,0.0,0.0,0.0,0.0,0.0,0.0,0.0,0.0,0.0,0.0,0.0,0.0,0.0,0.0,0.0,0.0,0.0,0.0,0.0,0.0,0.0,0.0,0.0,0.0,0.0,0.0,0.0,0.0,0.0,0.0,0.0,0.0,0.0,0.0,0.0,0.0,0.0,0.0,0.0,0.0,0.0,0.0,0.0,0.0,0.0,0.0,0.0,0.0,0.0,0.0,0.0,0.0,0.0,0.0,0.0,0.0,0.0,0.0,0.0,0.0,0.0,0.0,0.0,0.0,0.0,0.0,0.0,0.0,0.0,0.0,0.0,0.0,0.0,0.0,0.0,0.0,0.0,0.0,0.0,0.0,0.0,0.0,0.0,0.0,0.0,0.0,0.0,0.0,0.0,0.0,0.0,0.0,0.0,0.0,0.0,0.0,0.0,0.0,0.0,0.0,0.0,0.0,0.0,0.0,0.0,0.0,0.0,0.0,0.0,0.0,0.0,0.0,0.0,0.0,0.0,0.0,0.0,0.0,0.0,0.0,0.0,0.0,0.0,0.0,0.0,0.0,0.0,0.0,0.0,0.0,0.0,0.0,0.0,0.0,0.0,0.0,0.0,0.0,0.0,0.0,0.0,0.0,0.0,0.0,0.0,0.0,0.0,0.0,0.0,0.0,0.0,0.0,0.0,0.0,0.0,0.0,0.0,0.0,0.0,0.0,0.0,0.0,0.0,0.0,0.0,0.0,0.0,0.0,0.0,0.0,0.0,0.0,0.0,0.0,0.0,0.0,0.0,0.0,0.0,0.0,0.0,0.0,0.0,0.0,0.0,0.0,0.0,0.0,0.0,0.0,0.0,0.0,0.0,0.0,0.0,0.0,0.0,0.0,0.0,0.0,0.0,0.0,0.0,0.0,0.0,0.0,0.0,0.0,0.0,0.0,0.0,0.0,0.0,0.0,0.0,0.0,0.0,0.0,0.0,0.0,0.0,0.0,0.0,0.0,0.0,0.0,0.0,0.0,0.0,0.0,0.0,0.0,0.0,0.0,0.0,0.0,0.0,0.0,0.0,0.0,0.0,0.0,0.0,0.0,0.0,0.0,0.0,0.0,0.0,0.0,0.0,0.0,0.0,0.0,0.0,0.0,0.0,0.0,0.0,0.0,0.0,0.0,0.0,0.0,0.0,0.0,0.0,0.0,0.0,0.0,0.0,0.0,0.0,0.0,0.0,0.0,0.0,0.0,0.0,0.0,0.0,0.0,0.0,0.0,0.0,0.0,0.0,0.0,0.0,0.0,0.0,0.0,0.0,0.0,0.0,0.0,0.0,0.0,0.0,0.0,0.0,0.0,0.0,0.0,0.0,0.0,0.0,0.0,0.0,0.0,0.0,0.0,0.0,0.0,0.0,0.0,0.0,0.0,0.0,0.0,0.0,0.0,0.0,0.0,0.0,0.0,0.0,0.0,0.0,0.0,0.0,0.0,0.0,0.0,0.0,0.0,0.0,0.0,0.0,0.0,0.0,0.0,0.0,0.0,0.0,0.0,0.0,0.0,0.0,0.0,0.0,0.0,0.0,0.0,0.0,0.0,0.0,0.0,0.0,0.0,0.0,0.0,0.0,0.0,0.0,0.0,0.0,0.0,0.0,0.0,0.0,0.0,0.0,0.0,0.0,0.0,0.0,0.0,0.0,0.0,0.0,0.0,0.0,0.0,0.0,0.0,0.0,0.0,0.0,0.0,0.0,0.0,0.0,0.0,0.0,0.0,0.0,0.0,0.0,1.6342,1.5321,0.0,0.0,0.0,0.0,0.0,0.0,0.0,0.0,0.0,0.0,0.0,0.0,0.0,0.0,0.0,0.0,0.0,0.0,0.0,0.0,0.0,0.0,0.0,0.9758,0.9934,0.9934,1.0131,1.0163,0.9947,0.0,0.0,0.0,0.0,0.0,0.9729,0.9729,1.0272,1.1365,1.1787,1.2564,1.3654,1.2954,1.2377,1.1893,0.0,0.0,0.0,0.0,0.0,0.0,0.0,0.0,0.0,0.0,0.0,0.0,0.0,0.0,0.0,0.0,0.0,0.0,0.0,0.0,0.0,0.0,0.0,0.0,0.0,0.0,0.0,0.0,0.0,0.0,0.0,0.0,0.0,0.0,0.0,0.0,0.0,0.0,0.0,0.0,0.0,0.0,0.0,0.0,0.0,0.0,0.0,0.0,0.0,0.0,0.0,0.0,0.0,0.0,0.0,0.0,0.0,0.0,0.0,0.0,0.0,0.0,0.0,0.0,0.0,0.0,0.0,0.0,0.0,0.0,1.895,1.7912,0.0,0.0,0.0,0.0,0.0,0.0,0.0,0.0,0.0,0.0,0.0,0.0,0.0,0.0,0.0,0.0,0.0,0.0,0.0,0.0,0.0,0.9314,0.947,1.0015,1.0469,1.0726,1.107,1.1114,1.0767,1.0499,0.0,0.0,0.0,0.9743,1.0334,1.0489,1.1548,1.3577,1.4131,1.5133,1.6507,1.6578,1.6133,1.5235,1.4331,0.0,0.0,0.0,0.0,0.0,0.0,0.0,0.0,0.0,0.0,0.0,0.0,0.0,0.0,0.0,0.0,0.0,0.0,0.0,0.0,0.0,0.0,0.0,0.0,0.0,0.0,0.0,0.0,0.0,0.0,0.0,0.0,0.0,0.0,0.0,0.0,0.0,0.0,0.0,0.0,0.0,0.0,0.0,0.0,0.0,0.0,0.0,0.0,0.0,0.0,0.0,0.0,0.0,0.0,0.0,0.0,0.0,0.0,0.0,0.0,0.0,0.0,0.0,2.4318,2.4711,2.5381,2.5381,2.5398,2.5249,2.203,2.1242,2.2098,2.0557,0.0,0.0,0.0,0.0,0.0,0.0,0.0,0.0,0.0,0.0,0.0,0.0,0.0,0.0,0.0,0.0,0.0,0.0,0.0,0.9411,1.0173,1.0232,1.0734,1.2013,1.1524,1.14,1.2092,1.1404,0.0,0.0,1.0892,1.0876,1.0978,1.1666,1.248,1.3421,1.6,1.7697,1.854,1.9379,1.9722,1.9482,1.7089,1.6074,1.6126,0.0,0.0,0.0,0.0,0.0,0.0,0.0,0.0,0.0,0.0,0.0,0.0,0.0,0.0,0.0,0.0,0.0,0.0,0.0,0.0,0.0,0.0,0.0,0.0,0.0,0.0,0.0,0.0,0.0,0.0,0.0,0.0,0.0,0.0,0.0,0.0,0.0,0.0,0.0,0.0,0.0,1.5821,1.8009,0.0,0.0,0.0,0.0,0.0,0.0,0.0,0.0,0.0,0.0,0.0,0.0,0.0,2.3971,2.4761,2.6176,2.6977,2.7219,2.7926,2.8331,2.8423,2.8423,2.8524,2.8646,2.8137,0.0,2.4239,2.3492,0.0,0.0,0.0,0.0,0.0,0.0,0.0,0.0,0.0,0.0,0.0,0.0,0.0,0.0,0.0,0.0,0.0,0.0,0.0,0.0,0.0,1.1879,1.3037,1.411,1.4617,1.4497,1.3642,1.3218,1.248,1.1244,1.1138,1.1509,1.2372,1.3143,1.4706,1.7107,1.9688,2.1109,2.1448,2.2296,2.2709,2.2655,2.167,2.0266,1.8489,1.6541,0.0,0.0,0.0,0.0,0.0,0.0,0.0,0.0,0.0,0.0,0.0,0.0,0.0,0.0,0.0,0.0,0.0,0.0,0.0,0.0,0.0,0.0,0.0,0.0,0.0,0.0,0.0,0.0,0.0,0.0,0.0,0.0,0.0,0.0,0.0,0.0,0.0,0.0,0.0,1.548,1.7751,1.9182,1.9209,1.913,0.0,0.0,0.0,0.0,0.0,0.0,0.0,0.0,0.0,2.4577,2.5843,2.7025,2.8081,2.9248,3.0044,3.0522,3.1311,3.1463,3.1023,3.1023,3.1066,3.1137,3.0688,2.9972,2.8973,2.6618,2.5446,2.4968,0.0,0.0,0.0,0.0,2.3176,2.2915,0.0,0.0,0.0,0.0,0.0,0.0,0.0,0.0,0.0,0.0,0.0,0.0,1.1857,1.3641,1.523,1.6339,1.7287,1.7174,1.5721,1.5095,1.4013,1.2338,1.2077,1.2545,1.378,1.5262,1.7467,2.0398,2.2606,2.3678,2.3695,2.4237,2.4491,2.4506,2.4761,2.3479,2.1007,1.8956,1.7687,0.0,0.0,0.0,0.0,0.0,0.0,0.0,0.0,0.0,0.0,0.0,0.0,0.0,0.0,0.0,0.0,0.0,0.0,0.0,0.0,0.0,0.0,0.0,0.0,0.0,0.0,0.0,0.0,0.0,0.0,0.0,0.0,0.0,0.0,0.0,0.0,0.0,0.0,1.7497,1.9367,2.0274,2.0627,2.0695,0.0,0.0,0.0,0.0,0.0,0.0,2.3805,2.5337,2.6603,2.7586,2.8934,3.0096,3.1043,3.1838,3.2602,3.3351,3.3949,3.3991,3.355,3.355,3.355,3.35,3.2908,3.2981,3.3264,2.9504,2.7968,2.7837,2.6437,2.589,2.5965,2.661,2.6432,2.6065,0.0,0.0,0.0,0.0,0.0,0.0,0.0,0.0,0.0,0.0,0.0,1.1874,1.4098,1.5071,1.6407,1.8538,1.8155,1.8048,0.0,1.6712,1.5494,1.5375,1.4689,1.4513,1.4913,1.8394,2.0624,2.1528,2.3481,2.444,2.444,2.4474,2.4491,2.4491,2.4521,2.422,2.3645,2.2565,2.1291,1.9781,0.0,0.0,0.0,0.0,0.0,0.0,0.0,0.0,0.0,0.0,0.0,0.0,0.0,0.0,0.0,0.0,0.0,0.0,0.0,0.0,0.0,0.0,0.0,0.0,0.0,0.0,0.0,0.0,0.0,0.0,0.0,0.0,0.0,0.0,0.0,0.0,0.0,0.0,0.0,2.2374,2.3382,0.0,0.0,0.0,0.0,2.4976,2.4591,2.5219,2.7335,2.8595,2.9447,2.982,3.205,3.3264,3.3317,3.4129,3.4814,3.5349,3.5403,3.5659,3.6101,3.6101,3.6101,3.6101,3.6064,3.6083,3.5817,3.192,3.0336,3.0265,2.9608,2.9344,2.9344,2.941,2.9391,2.9372,0.0,0.0,0.0,0.0,0.0,0.8897,0.8897,0.9309,0.9703,0.9967,1.1917,1.3777,1.5071,1.7141,1.8961,2.0276,2.0568,2.0279,1.9282,1.8291,1.726,1.6229,1.5758,1.6306,1.7985,1.9818,2.1327,2.2502,2.3661,2.4237,2.4271,2.5076,2.5462,2.5479,2.5781,2.557,2.4893,2.328,2.2209,2.1416,1.9108,1.7362,0.0,0.0,0.0,0.0,0.0,0.0,0.0,0.0,0.0,0.0,0.0,0.0,0.0,0.0,0.0,0.0,0.0,0.0,0.0,0.0,0.0,0.0,0.0,0.0,0.0,0.0,0.0,0.0,0.0,0.0,0.0,0.0,0.0,0.0,0.0,0.0,0.0,2.44,2.5295,0.0,2.544,2.5333,2.5951,2.7585,2.7521,2.8354,3.0532,3.1073,3.1701,3.2611,3.3447,3.4015,3.427,3.5065,3.5562,3.5758,3.6624,3.6877,3.657,3.69,3.707,3.7052,3.6505,3.6578,3.6923,3.5018,3.3902,3.3313,3.2582,3.2001,3.1527,3.1527,3.1205,3.0754,0.0,0.0,0.0,0.0,0.9027,0.8897,0.8897,0.9523,1.0187,1.0717,1.3042,1.5178,1.6566,1.8773,2.0488,2.127,2.1776,2.1454,2.0031,1.9259,1.8398,1.7314,1.7162,1.7977,1.9829,2.1105,2.2195,2.3125,2.4264,2.4821,2.4837,2.5891,2.6404,2.6423,2.6722,2.671,2.6335,2.4512,2.357,2.31,2.1127,1.9876,1.8997,0.0,0.0,0.0,0.0,0.0,0.0,0.0,0.0,0.0,0.0,0.0,0.0,0.0,0.0,0.0,0.0,0.0,0.0,0.0,0.0,0.0,0.0,0.0,0.0,0.0,0.0,0.0,0.0,0.0,0.0,0.0,0.0,0.0,0.0,2.3054,2.4695,2.6167,2.7232,2.7841,2.7841,2.8061,2.8756,3.0025,3.011,3.0871,3.2581,3.2919,3.3403,3.4209,3.4483,3.4849,3.5397,3.566,3.6125,3.681,3.7664,3.7863,3.7498,3.8063,3.8153,3.7878,3.7331,3.7404,3.786,3.7331,3.678,3.6142,3.5055,3.4321,3.3862,3.3862,3.3513,3.3036,0.0,0.0,0.0,0.8952,0.8902,0.8897,0.8897,0.954,1.0582,1.2094,1.3927,1.605,1.861,1.9874,2.0823,2.1532,2.1582,2.1414,2.0991,1.9635,1.8842,1.8843,1.9028,1.949,2.025,2.2334,2.3413,2.3444,2.5277,2.6181,2.6197,2.6845,2.7179,2.7179,2.7185,2.7517,2.7974,2.6492,2.5564,2.4991,2.3678,2.3342,2.3289,0.0,0.0,0.0,0.0,0.0,0.0,0.0,0.0,0.0,0.0,0.0,0.0,0.0,0.0,0.0,0.0,0.0,0.0,0.0,0.0,0.0,0.0,0.0,0.0,0.0,0.0,0.0,0.0,0.0,0.0,0.0,0.0,0.0,2.2431,2.4342,2.6269,2.7739,2.9261,3.019,3.019,3.0852,3.1562,3.231,3.2361,3.2679,3.344,3.4167,3.4556,3.4556,3.5301,3.6062,3.6829,3.6062,3.6638,3.8567,3.845,3.8608,3.9013,3.9621,3.9465,3.8716,3.8765,3.8747,3.8713,3.8728,3.8726,3.856,3.6982,3.6358,3.634,3.634,3.6321,3.6303,0.0,0.0,0.9237,0.9068,0.8968,0.8897,0.8897,0.9986,1.1164,1.2162,1.5069,1.7399,1.836,2.016,2.1263,2.1165,2.1166,2.0959,2.0516,1.9925,1.9657,1.9806,2.0102,2.0824,2.1993,2.3009,2.3785,2.4277,2.5279,2.5757,2.5773,2.6351,2.662,2.6642,2.7031,2.7305,2.7439,2.7457,2.737,2.7101,2.5227,2.4301,2.3814,0.0,0.0,0.0,0.0,0.0,0.0,0.0,0.0,0.0,0.0,0.0,0.0,0.0,0.0,0.0,0.0,0.0,0.0,0.0,0.0,0.0,0.0,0.0,0.0,0.0,0.0,0.0,0.0,0.0,0.0,0.0,2.4274,2.61,2.5575,2.7435,2.9211,3.0159,3.1579,3.2493,3.2493,3.2679,3.3102,3.385,3.3901,3.4218,3.4957,3.574,3.6169,3.6169,3.6891,3.7381,3.7601,3.7381,3.7553,3.8091,3.8394,3.8601,3.8751,3.9695,3.9788,3.9258,4.0081,3.9871,3.895,3.9406,3.9239,3.867,3.8212,3.7679,3.718,3.718,3.6813,3.6303,0.0,0.9358,0.9233,0.9042,0.8952,0.8897,0.8897,1.0155,1.1509,1.2626,1.5556,1.7854,1.8664,2.0321,2.1181,2.0732,2.0715,2.0407,1.9674,1.9735,1.9982,2.039,2.1136,2.2024,2.3041,2.3699,2.4335,2.5023,2.5689,2.6019,2.6019,2.6645,2.6893,2.6916,2.7226,2.7522,2.7759,2.8061,2.8339,2.8454,2.7182,2.6383,2.5757,2.389,2.3005,2.2546,2.1276,2.0405,1.9745,1.8943,0.0,0.0,0.0,0.0,0.0,0.0,0.0,0.0,0.0,0.0,0.0,0.0,0.0,0.0,0.0,0.0,0.0,0.0,0.0,0.0,0.0,0.0,0.0,0.0,2.6945,2.8821,2.9027,3.0176,3.141,3.2459,3.3339,3.3981,3.4281,3.4641,3.4996,3.5419,3.574,3.6113,3.6529,3.7009,3.7246,3.7246,3.7686,3.8058,3.8362,3.8058,3.821,3.8802,3.9009,3.9091,3.9096,3.9972,4.0012,3.9451,4.0091,3.9932,3.9224,3.9784,3.9753,3.9279,0.0,0.0,0.0,0.0,3.7698,3.7312,0.0,0.9298,0.9189,0.8946,0.8897,0.8897,0.8897,1.0155,1.1645,1.3193,1.5579,1.7691,1.9123,2.0228,2.0686,2.0223,2.02,1.9857,0.0,0.0,2.0139,2.0882,2.2074,2.3017,2.3699,2.4365,2.5038,2.5719,2.6378,2.6692,2.6746,2.733,2.76,2.76,2.76,2.791,2.8408,2.8334,2.8678,2.9214,2.9082,2.8764,2.8108,2.5986,2.531,2.5415,2.4537,2.3355,2.2083,2.1371,0.0,0.0,0.0,0.0,0.0,0.0,0.0,0.0,0.0,0.0,0.0,0.0,0.0,0.0,0.0,0.0,0.0,0.0,0.0,0.0,0.0,0.0,0.0,0.0,2.9413,3.097,3.2361,3.2615,3.3139,3.4336,3.4641,3.5013,3.5667,3.6451,3.6931,3.6931,3.7533,3.7905,3.7905,3.799,0.0,0.0,0.0,3.8464,3.9106,3.8481,3.8802,4.0096,3.9907,3.9796,3.9773,4.0359,4.0246,3.9576,3.9717,3.9724,3.9676,4.0217,4.0384,4.0203,3.9211,3.8781,3.8707,3.8707,3.8707,3.8707,0.0,0.9208,0.9083,0.893,0.8897,0.8897,0.8897,1.0155,1.1645,1.3193,1.5377,1.7232,1.8385,1.9473,1.9909,1.9443,1.9661,1.9963,0.0,0.0,2.1051,2.2269,2.2568,2.3236,2.438,2.5053,2.5749,2.6408,2.7091,2.7405,2.7405,2.754,2.76,2.76,2.76,2.766,2.7795,2.8276,2.8807,2.9355,2.9227,2.8659,2.7793,2.6774,2.6041,2.5475,2.4722,2.4247,2.3977,2.3809,2.3419,2.2864,2.2098,0.0,0.0,0.0,0.0,0.0,0.0,0.0,0.0,0.0,0.0,0.0,0.0,0.0,0.0,0.0,0.0,0.0,0.0,0.0,0.0,2.9328,3.141,3.3068,3.3947,3.459,3.4861,3.4523,3.5611,3.6423,3.6535,3.7246,3.7686,3.7686,3.7821,3.7905,3.7905,3.8464,3.8785,3.8785,3.9343,3.9757,3.9893,3.9757,3.9825,4.0096,4.0051,0.0,4.0033,4.0596,4.0769,4.0657,4.1655,4.1655,4.1064,4.1667,4.151,4.0851,3.9997,3.9276,3.8707,3.8707,3.8707,3.8707,0.9218,0.9139,0.9073,0.9017,0.9006,0.9006,0.9006,1.0251,1.1605,1.2702,1.5107,1.697,1.7666,1.8548,1.8996,1.8717,1.8696,0.0,0.0,2.0494,2.1306,2.2643,2.331,2.4118,2.5068,2.5764,2.6422,2.7106,2.7435,2.76,2.76,2.76,2.76,2.76,2.76,2.76,2.765,2.8222,2.885,2.9419,2.9667,2.9423,2.8821,2.7672,2.7012,2.659,2.5862,2.5371,2.505,2.505,2.465,2.4086,2.3725,2.2737,2.1567,0.0,0.0,0.0,0.0,0.0,0.0,0.0,0.0,0.0,0.0,0.0,0.0,0.0,0.0,2.5964,0.0,0.0,3.0243,3.2489,3.3774,3.4912,3.6045,3.6518,3.6485,3.5723,3.6338,3.6948,3.7313,3.8007,3.8447,3.8447,3.8785,3.8988,3.8988,3.9368,3.9554,3.9554,3.991,4.0096,4.0096,4.0096,4.0096,4.0096,4.0096,4.0096,4.0096,4.0368,4.0497,4.0552,4.1402,4.1541,4.1215,4.2137,4.2173,4.1662,4.1258,4.0359,3.9239,3.8854,3.8707,3.8707,0.9114,0.9093,0.9093,0.9093,0.9114,0.9134,0.9134,1.0256,1.137,1.2215,1.4506,1.6269,1.6825,1.7486,1.7896,0.0,0.0,0.0,0.0,2.0528,2.1485,2.2823,2.3977,2.4903,2.56,2.6258,2.6941,2.76,2.76,2.76,2.76,2.76,2.76,2.76,2.76,2.76,2.7625,2.8116,2.8662,2.9271,2.987,3.0129,2.9972,2.8565,2.7942,2.7705,2.6962,2.6234,2.5625,2.5778,2.5321,2.4711,2.4711,2.4045,2.3179,2.2749,2.144,0.0,0.0,0.0,0.0,0.0,0.0,0.0,0.0,0.0,2.4745,2.5625,2.7334,2.9092,3.0497,3.1461,3.2882,3.5414,3.5938,3.6479,3.7736,3.7905,3.7736,3.7286,3.7235,3.7472,3.8058,3.8768,3.9208,3.9208,3.9774,4.0096,4.0096,4.0096,4.0096,4.0096,4.0096,4.0096,4.0096,4.0096,4.0096,4.0096,4.0096,4.0096,4.0096,4.0096,4.0171,4.0286,4.0967,4.1296,4.1495,4.2444,4.2723,4.2525,4.2359,4.1515,4.0267,3.946,3.9166,3.9166,0.0,0.9093,0.9093,0.9093,0.9194,0.9284,0.9284,0.9866,1.0824,1.2204,1.3191,1.4276,1.563,1.6116,1.6577,1.7161,0.0,0.0,2.0468,2.1216,2.2158,2.343,2.4201,2.4903,2.56,2.6258,2.6941,2.76,2.76,2.76,2.76,2.76,2.76,2.76,2.76,2.76,2.7585,2.766,2.8042,2.8654,2.9248,2.98,3.0174,2.9229,2.8416,2.7705,2.6962,2.6234,2.571,2.6353,2.6082,2.549,2.549,2.5371,2.4894,2.2912,0.0,2.1851,2.1202,2.1481,2.2287,2.3644,2.4,2.4897,0.0,0.0,2.8773,3.0161,3.1176,3.2056,3.2882,3.4163,3.5453,3.6508,3.7212,3.7702,3.7889,3.7905,3.8108,3.8684,3.8734,3.8785,3.887,3.9529,3.9977,3.9977,4.0045,4.0096,4.0096,4.0096,4.0096,4.0096,4.0096,4.0096,4.0096,4.0096,4.0096,4.0096,4.0096,4.0096,4.0096,4.0096,4.0343,4.0856,4.2018,4.2771,4.3232,4.3356,4.3389,4.3277,4.258,4.2194,4.1937,4.1132,4.082,4.082,0.0,0.9159,0.9233,0.9326,0.9381,0.9412,0.9412,0.9923,1.0668,1.1634,1.272,1.3794,1.4851,1.5292,1.5629,1.5914,0.0,0.0,1.9737,2.1001,2.2099,2.3047,2.4036,2.4903,2.56,2.6258,2.6941,2.76,2.76,2.76,2.76,2.76,2.76,2.76,2.76,2.76,2.76,2.76,2.7959,2.8559,2.9157,2.9502,2.9613,2.916,2.823,2.7063,2.6319,2.5862,0.0,0.0,2.5218,2.4965,2.4965,2.4661,2.4137,2.3207,2.2936,0.0,2.3613,2.3738,2.4147,2.5966,2.619,2.667,2.9484,2.9889,3.0119,3.1536,3.2784,3.3795,3.4535,3.5571,3.6688,0.0,3.8328,3.8684,3.9106,3.8802,3.865,3.8954,3.8616,3.87,3.9571,3.9926,4.0096,4.0096,4.0096,4.0096,4.0096,4.0096,4.0096,4.0096,4.0096,4.0096,4.0096,4.0096,4.0096,4.0096,4.0096,4.0096,4.0096,4.0096,4.0392,4.0949,4.1793,4.2501,4.305,4.3375,4.3515,4.3478,4.313,4.3002,4.2837,4.1572,4.1095,4.1095,0.0,0.9203,0.9345,0.9483,0.953,0.955,0.955,0.9859,1.0392,1.1234,1.2187,1.3134,1.409,1.446,1.4761,1.5074,1.6343,0.0,0.0,2.071,2.1908,2.2658,2.3744,2.4634,2.5307,2.6153,2.6761,2.7061,2.742,2.751,2.733,2.751,2.76,2.76,2.76,2.76,2.76,2.76,2.7754,2.8018,2.8644,2.8795,2.8633,2.8302,2.7568,2.659,2.5862,2.5339,0.0,0.0,2.4203,2.4203,2.4203,2.3966,2.3697,2.3697,2.3849,2.4208,2.511,2.5458,2.595,2.7516,2.8041,2.8699,3.0616,3.1212,3.1715,3.2967,3.4049,3.503,3.5791,3.6569,3.7516,3.8785,3.9157,3.9503,4.0028,3.9486,3.8988,3.8988,3.8345,3.8396,3.9673,3.9808,3.9893,4.0079,4.0096,4.0096,4.0096,4.0096,4.0096,4.0096,4.0096,4.0096,4.0096,4.0096,4.0096,4.0096,4.0096,4.0096,4.0096,4.0096,4.0392,4.0926,4.1534,4.2142,4.275,4.3268,4.3515,4.3515,4.3515,4.3515,4.3368,4.2194,4.1772,4.1772,0.0,0.0,0.9345,0.9483,0.9609,0.9694,0.9694,0.9492,0.9845,1.1294,1.1297,1.1746,1.3278,1.3439,1.3889,1.4996,1.6385,1.7765,1.9118,2.0539,2.1743,2.2664,2.3295,2.3954,2.4619,2.5929,2.6288,2.5674,2.6971,2.727,2.6632,2.73,2.76,2.76,2.76,2.76,2.76,2.76,2.7225,2.6714,2.7319,2.7473,2.7249,2.6421,2.633,2.659,2.5862,0.0,0.0,0.0,2.3427,2.3427,2.3427,2.3915,0.0,2.4457,2.4966,2.5428,2.4874,2.6239,2.785,2.8041,2.9642,3.1555,3.3054,3.3896,3.4585,3.5346,3.5532,3.5825,3.6626,3.7364,3.8125,3.887,3.9605,4.0079,4.0096,3.9486,3.8988,3.8988,3.8345,3.821,3.8954,3.9022,3.9326,4.0045,4.0096,4.0096,4.0096,4.0096,4.0096,4.0096,4.0096,4.0096,4.0096,4.0096,4.0096,4.0096,4.0096,4.0096,4.0096,4.0096,4.0392,4.0926,4.1534,4.2142,4.275,4.3268,4.3515,4.3515,4.3515,4.3515,4.3496,4.346,4.3441,4.3441,0.0,0.0,0.0,0.9613,0.9679,0.9702,0.9702,0.9879,1.0378,1.1364,1.2228,0.0,0.0,0.0,0.0,0.0,0.0,1.6873,1.7802,1.9577,2.0711,2.1039,2.1878,2.2847,2.3924,2.4388,2.4926,2.5615,2.6048,2.6153,2.5944,2.6168,2.6273,2.6273,2.6273,2.6273,2.6273,2.6273,2.6393,2.6585,2.628,2.6277,2.6422,2.6157,2.543,2.4475,0.0,0.0,0.0,0.0,2.2274,2.2682,2.2682,0.0,0.0,2.4203,2.5017,2.5881,2.7209,2.8497,2.9827,3.1264,3.1892,3.2648,3.4485,3.4731,3.4774,3.5464,3.5216,3.5098,3.5859,3.6214,3.6783,3.8075,3.8886,3.9529,4.0028,3.9486,3.8819,3.8328,3.8058,0.0,0.0,3.87,3.9292,4.0045,4.0096,4.0096,4.0096,4.0096,4.0096,4.0096,4.0096,4.0096,4.0096,4.0096,4.0096,4.0096,4.0096,4.0096,4.0096,4.0096,4.0204,4.0392,4.0967,4.1556,4.2142,4.2732,4.3178,4.3515,4.3515,4.3515,4.3515,4.3515,4.3515,4.3515,0.0,0.0,0.0,0.0,0.0,0.0,0.0,0.0,0.0,0.0,0.0,0.0,0.0,0.0,0.0,0.0,0.0,0.0,0.0,0.0,1.9813,2.0416,2.0788,2.155,2.2753,2.2758,2.3113,2.3864,2.4328,2.4567,2.4567,2.4777,2.4896,2.4896,2.4896,2.4896,2.4896,2.5063,2.5236,2.5394,2.5061,2.5037,2.5142,2.4932,2.408,0.0,0.0,0.0,0.0,2.1177,2.1278,2.1877,0.0,0.0,2.3217,2.4927,2.6101,2.7266,2.9309,3.0427,3.1385,3.2774,3.3233,3.364,3.4951,3.5098,3.4991,3.5178,3.4624,3.4252,3.4721,3.4607,3.5098,3.7178,3.7889,3.8674,3.9926,3.9486,3.8819,3.8345,3.8075,3.8007,0.0,0.0,3.9292,4.0045,4.0096,4.0096,4.0096,4.0096,4.0096,4.0096,4.0096,4.0096,4.0096,4.0096,4.0096,4.0096,4.0096,4.0096,4.0096,4.0096,4.0096,4.0121,4.0679,4.1133,4.1534,4.2362,4.2902,4.3232,4.3427,4.3515,4.3515,4.3515,4.3515,4.3515,0.0,0.0,0.0,0.0,0.0,0.0,0.0,0.0,0.0,0.0,0.0,0.0,0.0,0.0,0.0,0.0,0.0,0.0,0.0,0.0,0.0,2.0639,2.0035,2.0144,2.1197,2.1155,2.0999,2.0764,2.2029,2.2695,2.274,2.3284,2.3533,2.3533,2.3511,2.3505,2.3526,2.3983,2.385,2.3339,2.367,2.374,2.3572,2.2833,0.0,0.0,0.0,0.0,0.0,0.0,0.0,0.0,0.0,0.0,2.4413,2.6541,2.8068,2.9473,3.1099,3.2067,3.261,3.2773,3.3738,3.4648,3.4615,3.5094,3.5312,3.4539,3.3795,3.3271,0.0,0.0,3.3258,3.6152,3.6761,3.7625,3.9791,3.9503,3.9039,0.0,0.0,0.0,0.0,0.0,3.9368,4.0045,4.0096,4.0096,4.0096,4.0096,4.0096,4.0096,4.0096,4.0096,4.0096,4.0096,4.0096,4.0096,4.0096,4.0096,4.0096,4.0096,4.0096,4.0121,4.0631,4.088,4.1041,4.2183,4.2692,4.2788,4.3303,4.3515,4.3515,4.3515,4.3515,4.3515,0.0,0.0,0.0,0.0,0.0,0.0,0.0,0.0,0.0,0.0,0.0,0.0,0.0,0.0,0.0,0.0,0.0,0.0,0.0,0.0,0.0,0.0,0.0,1.9371,2.0098,2.0082,0.0,0.0,0.0,2.2345,2.2929,2.2709,2.2646,2.2627,2.232,2.2173,2.2214,2.2627,2.3006,2.3262,0.0,2.2616,2.2736,0.0,0.0,0.0,0.0,0.0,0.0,0.0,0.0,0.0,0.0,2.4095,2.5642,2.7339,2.9168,3.1086,3.3157,3.4236,3.4947,3.5569,3.5555,3.5188,3.4656,3.4649,3.4421,3.3139,3.2256,3.1427,0.0,0.0,0.0,3.4049,3.6146,0.0,3.9876,3.9943,0.0,3.9056,0.0,3.9394,3.9039,3.9503,3.991,4.0096,4.0096,4.0096,4.0096,4.0096,4.0096,4.0096,4.0096,4.0096,4.0096,4.0096,4.0096,4.0096,4.0096,4.0096,4.0096,4.0096,4.0096,4.0096,4.0237,4.0791,4.1599,4.1895,4.2541,4.3303,4.3444,4.3515,4.3515,4.3515,4.3515,4.3515,0.0,0.0,0.0,0.0,0.0,0.0,0.0,0.0,0.0,0.0,0.0,0.0,0.0,0.0,0.0,0.0,0.0,0.0,0.0,0.0,0.0,0.0,0.0,1.828,1.9119,1.9135,0.0,0.0,0.0,0.0,0.0,2.0898,2.0764,2.0747,2.0537,2.0415,2.045,0.0,0.0,0.0,0.0,0.0,0.0,0.0,0.0,0.0,0.0,0.0,0.0,0.0,0.0,2.4783,2.5256,2.6312,2.7726,2.9543,0.0,3.3068,3.5001,3.5808,3.6231,3.6694,3.5943,3.4844,3.3778,3.3292,3.2527,3.07,2.9736,2.8958,2.8147,2.901,3.0533,0.0,0.0,0.0,3.9292,3.991,3.996,0.0,3.9859,0.0,3.9512,3.9859,4.0096,4.0096,4.0096,4.0096,4.0096,4.0096,4.0096,4.0096,4.0096,4.0096,4.0096,4.0096,4.0096,4.0096,4.0096,4.0096,4.0096,4.0096,4.0096,4.0096,4.0096,4.0466,4.1099,4.1578,4.2185,4.2791,4.3303,4.3515,4.3515,4.3515,4.3515,4.3515,0.0,0.0,0.0,0.0,0.0,0.0,0.0,0.0,0.0,0.0,0.0,0.0,0.0,0.0,0.0,0.0,0.0,0.0,0.0,0.0,0.0,0.0,0.0,1.721,1.8294,1.8327,0.0,0.0,0.0,0.0,0.0,0.0,0.0,0.0,0.0,0.0,0.0,0.0,0.0,0.0,0.0,0.0,0.0,0.0,0.0,0.0,0.0,0.0,0.0,0.0,2.5565,2.6502,2.734,2.8611,3.0195,3.2161,3.3645,3.4979,3.6541,3.6948,3.6948,3.6948,3.5774,3.4201,3.253,3.1562,3.0378,2.7993,0.0,2.6488,2.6302,2.6573,2.7977,3.1447,0.0,3.5537,3.8565,3.9554,3.9994,4.0096,4.0096,4.0096,4.0096,4.0096,4.0096,4.0096,4.0096,4.0096,4.0096,4.0096,4.0096,4.0096,4.0096,4.0096,4.0096,4.0096,4.0096,4.0096,4.0096,4.0096,4.0096,4.0096,4.0096,4.0096,4.0096,4.0146,4.0286,4.1353,4.1853,4.2021,4.3087,4.3515,4.3515,4.3515,4.3515,4.3515,0.0,0.0,0.0,0.0,0.0,0.0,0.0,0.0,0.0,0.0,1.4763,1.4453,0.0,0.0,0.0,0.0,0.0,0.0,0.0,0.0,0.0,0.0,0.0,0.0,0.0,0.0,0.0,0.0,0.0,0.0,0.0,0.0,0.0,0.0,0.0,0.0,0.0,0.0,0.0,0.0,0.0,0.0,0.0,0.0,0.0,0.0,0.0,0.0,0.0,0.0,2.6562,2.7922,2.8828,3.0434,3.2161,3.3135,3.4353,3.5735,3.7297,3.7719,3.7719,3.7719,3.6552,3.4687,3.2002,3.0818,0.0,0.0,2.5896,2.5423,2.4188,2.5981,2.8229,3.0176,3.2747,3.5537,3.8565,3.9106,3.9436,0.0,4.0096,4.0096,4.0096,4.0096,4.0096,4.0096,4.0096,4.0096,4.0096,4.0096,4.0096,4.0096,4.0096,4.0096,4.0096,4.0096,4.0096,4.0096,4.0096,4.0096,4.0096,4.0096,4.0096,4.0096,4.0096,4.0343,4.0827,4.1512,4.2101,4.2616,4.325,4.3515,4.3515,4.3515,4.3515,4.3515,0.0,0.0,0.0,0.0,0.0,0.0,0.0,1.4029,1.5386,1.6468,1.6338,1.5898,1.5203,1.4666,1.4362,0.0,0.0,0.0,0.0,0.0,0.0,0.0,0.0,0.0,0.0,0.0,0.0,0.0,0.0,0.0,0.0,0.0,0.0,0.0,0.0,0.0,0.0,0.0,0.0,0.0,0.0,0.0,0.0,0.0,0.0,0.0,0.0,0.0,0.0,0.0,2.638,2.8239,2.9938,3.1891,3.3606,3.3963,3.5368,3.6952,3.7702,3.7905,3.7905,3.7905,3.5876,3.3203,3.0632,0.0,0.0,0.0,2.3868,2.368,2.297,2.4611,0.0,2.8095,3.0514,3.3389,3.6772,3.7584,3.842,3.9926,4.0096,4.0096,4.0096,4.0096,4.0096,4.0096,4.0096,4.0096,4.0096,4.0096,4.0096,4.0096,4.0096,4.0096,4.0096,4.0096,4.0096,4.0096,4.0096,4.0096,4.0096,4.0096,4.0096,4.0138,4.0392,4.0655,4.0972,4.1895,4.244,4.2751,4.3286,4.3515,4.3515,4.3515,4.3515,4.3515,0.0,0.0,0.0,0.0,0.0,0.0,0.0,1.4552,1.5947,1.7595,1.7993,1.7623,1.6271,1.5453,1.4879,0.0,0.0,0.0,0.0,0.0,0.0,0.0,0.0,0.0,0.0,0.0,0.0,0.0,0.0,0.0,0.0,0.0,0.0,0.0,0.0,0.0,0.0,0.0,0.0,0.0,0.0,0.0,0.0,0.0,0.0,0.0,0.0,0.0,0.0,0.0,2.5659,2.7467,2.9706,3.206,3.4049,3.4218,3.5757,3.7449,3.7618,3.7787,3.7872,3.7702,3.5081,3.1921,2.9534,2.7232,0.0,2.2753,2.2296,2.2296,2.2296,2.3376,2.4795,0.0,2.8484,3.1157,3.4839,3.618,3.7557,0.0,4.0011,0.0,4.0096,4.0096,4.0096,4.0096,4.0096,4.0096,4.0096,4.0096,4.0096,4.0096,4.0096,4.0096,4.0096,4.0096,4.0096,4.0096,4.0096,4.0096,4.0096,4.0096,4.0171,4.0286,4.0726,4.0972,4.1178,4.2262,4.2711,4.2751,4.3286,4.3515,4.3515,4.3515,4.3515,4.3515,0.0,0.0,0.0,0.0,0.0,0.0,0.0,1.4763,1.6922,1.8003,1.8951,1.9007,1.7657,1.7013,1.6083,0.0,0.0,0.0,0.0,0.0,0.0,0.0,0.0,0.0,0.0,0.0,0.0,0.0,0.0,0.0,0.0,0.0,0.0,0.0,0.0,0.0,0.0,0.0,0.0,0.0,0.0,0.0,0.0,0.0,0.0,0.0,0.0,0.0,0.0,0.0,0.0,2.5083,2.6641,2.9616,3.2632,3.3305,0.0,0.0,3.6688,3.7381,3.7736,3.7083,3.5081,3.2544,2.967,0.0,2.4967,2.2753,2.2296,2.2296,2.2296,2.297,2.4188,2.6336,0.0,3.0398,3.4066,3.5881,3.7371,3.8903,0.0,0.0,4.0096,4.0096,4.0096,4.0096,4.0096,4.0096,4.0096,4.0096,4.0096,4.0096,4.0096,4.0096,4.0096,4.0096,4.0096,4.0096,4.0096,4.0096,4.0096,4.0096,4.0368,4.0827,4.088,4.1223,4.1771,4.244,4.2711,4.2751,4.3286,4.3515,4.3515,4.3515,4.3515,4.3515,0.0,0.0,0.0,0.0,0.0,0.0,1.3388,1.4631,1.6203,1.8564,1.9429,1.9483,1.858,1.8393,1.7307,1.4714,0.0,0.0,0.0,0.0,0.0,0.0,0.0,0.0,0.0,0.0,0.0,0.0,0.0,0.0,0.0,0.0,0.0,0.0,0.0,0.0,0.0,0.0,0.0,0.0,0.0,0.0,0.0,0.0,0.0,0.0,0.0,0.0,0.0,0.0,0.0,0.0,2.4586,2.6336,0.0,0.0,3.3102,3.5115,3.5876,3.6654,3.7185,3.688,3.4404,3.1529,2.9467,0.0,2.4441,2.2651,2.2296,2.2296,2.2296,2.2533,2.3325,2.51,2.5895,2.7588,3.1326,3.2747,3.4493,3.7354,3.8328,0.0,0.0,4.0096,4.0096,4.0096,4.0096,4.0096,4.0096,4.0096,4.0096,4.0096,4.0096,4.0096,4.0096,4.0096,4.0096,4.0096,4.0096,4.0096,4.0096,4.0096,4.0392,4.0926,4.1273,4.1578,4.1874,4.2809,4.2995,4.2751,4.3286,4.3515,4.3515,4.3515,4.3515,4.3515,0.0,0.0,0.0,0.0,0.0,1.194,1.3608,1.4588,1.6037,1.8531,1.937,1.9611,1.9255,1.8776,1.7606,1.5405,1.4769,0.0,0.0,0.0,0.0,0.0,0.0,0.0,0.0,0.0,0.0,0.0,0.0,0.0,0.0,0.0,0.0,0.0,0.0,0.0,0.0,0.0,0.0,0.0,0.0,0.0,0.0,0.0,0.0,0.0,0.0,0.0,0.0,0.0,0.0,0.0,0.0,0.0,0.0,0.0,3.1207,3.3457,3.4619,3.5368,3.5864,3.6084,3.3474,3.0518,2.9102,2.6571,2.4098,2.2705,2.2363,2.2296,2.2296,2.2296,2.2716,2.3966,2.4541,2.598,2.9313,3.0784,3.2682,3.5763,0.0,3.8058,3.9326,3.9842,4.0096,4.0096,4.0096,4.0096,4.0096,4.0096,4.0096,4.0096,4.0096,4.0096,4.0096,4.0096,4.0096,4.0096,4.0096,4.0096,4.0096,4.0096,4.0392,4.0926,4.1534,4.181,4.1895,4.3014,4.3178,4.2751,4.3286,4.3515,4.3515,4.3515,4.3515,4.3515,0.0,0.0,0.0,0.0,0.0,0.0,1.2195,1.4793,1.6942,1.7726,1.8736,1.9479,1.9676,1.7867,1.6697,1.6858,1.5423,0.0,0.0,0.0,0.0,0.0,0.0,0.0,0.0,0.0,0.0,1.9686,0.0,0.0,0.0,0.0,0.0,0.0,0.0,0.0,0.0,0.0,0.0,0.0,0.0,0.0,0.0,0.0,0.0,0.0,0.0,0.0,0.0,0.0,0.0,0.0,0.0,0.0,0.0,0.0,2.8922,3.0632,3.2831,3.344,3.3609,3.4336,3.2307,2.9795,2.8578,2.6324,2.4156,2.2945,2.2473,2.2296,2.2296,2.2296,2.2533,2.3291,2.4644,2.6387,2.8688,3.0905,3.2835,0.0,3.5881,3.7117,3.7855,3.9225,4.0096,4.0096,4.0096,4.0096,4.0096,4.0096,4.0096,4.0096,4.0096,4.0096,4.0096,4.0096,4.0096,4.0096,4.0096,4.0096,4.0096,4.0096,4.0392,4.0926,4.1534,4.181,4.1895,4.3014,4.3178,4.2751,4.3286,4.3515,4.3515,4.3515,4.3515,4.3515,0.0,0.0,0.0,0.0,0.0,0.0,0.0,1.3523,1.4894,1.6136,1.6912,1.7577,1.8127,1.7351,1.7055,1.766,1.6261,0.0,0.0,0.0,0.0,0.0,0.0,0.0,0.0,0.0,1.9737,1.9697,2.0436,2.0521,0.0,0.0,0.0,0.0,0.0,0.0,0.0,0.0,0.0,0.0,0.0,0.0,0.0,0.0,0.0,0.0,0.0,0.0,0.0,0.0,0.0,0.0,0.0,0.0,0.0,0.0,0.0,0.0,2.9379,3.0342,3.1089,3.0821,2.9245,2.7538,2.6655,2.5044,2.3505,2.2616,2.2363,2.2296,2.2296,2.2296,2.304,2.5287,2.6048,0.0,2.9431,0.0,0.0,3.437,3.7202,3.9148,3.9377,3.9842,4.0096,4.0096,4.0096,4.0096,4.0096,4.0096,4.0096,4.0096,4.0096,4.0096,4.0096,4.0096,4.0096,4.0096,4.0096,4.0096,4.0096,4.0096,4.0618,4.1534,4.1725,4.181,4.1895,4.3014,4.294,4.2183,4.3142,4.3515,4.3515,4.3515,4.3515,4.3515,0.0,0.0,0.0,0.0,0.0,0.0,0.0,1.2982,1.4176,1.5166,1.5584,1.6259,1.7459,1.6566,1.6481,1.7979,1.6922,0.0,0.0,0.0,0.0,0.0,0.0,0.0,0.0,1.9741,2.0065,2.0301,2.1033,2.1331,2.1216,2.119,2.0807,0.0,0.0,0.0,0.0,0.0,0.0,0.0,0.0,0.0,0.0,0.0,0.0,0.0,0.0,0.0,0.0,0.0,0.0,0.0,0.0,0.0,0.0,0.0,2.4731,2.6483,0.0,2.8095,2.8772,2.8586,2.7402,2.6115,2.5512,2.4362,2.3233,2.261,2.2391,2.2296,2.2296,2.2296,2.2888,2.4746,2.5507,2.6657,2.8906,0.0,3.3271,3.5154,3.7669,3.9377,3.9673,3.9943,4.0096,4.0096,4.0096,4.0096,4.0096,4.0096,4.0096,4.0096,4.0096,4.0096,4.0096,4.0096,4.0096,4.0096,4.0096,4.0096,4.0096,4.0096,4.0594,4.1468,4.1686,4.181,0.0,4.3014,4.2959,4.2223,4.3123,4.3515,4.3515,4.3515,4.3515,4.3515,0.0,0.0,0.0,0.0,0.0,0.0,0.0,1.2957,1.4423,1.4676,1.4718,1.5416,1.7225,1.5497,1.5238,1.7781,0.0,0.0,0.0,0.0,0.0,0.0,0.0,0.0,0.0,1.9613,2.0271,2.1252,2.1273,2.1923,2.3117,2.1889,2.1566,2.1958,0.0,0.0,0.0,0.0,0.0,0.0,0.0,0.0,0.0,0.0,0.0,0.0,0.0,0.0,0.0,0.0,0.0,0.0,0.0,0.0,0.0,0.0,0.0,0.0,0.0,2.6437,2.6623,2.7249,2.637,2.5265,2.4893,2.4032,0.0,2.2828,2.2525,2.2313,2.2364,2.233,2.2381,2.2651,2.3833,2.554,2.7807,3.0125,3.2933,3.6609,3.7635,3.8328,3.9005,3.9706,4.0096,4.0096,4.0096,4.0096,4.0096,4.0096,4.0096,4.0096,4.0096,4.0096,4.0096,4.0096,4.0096,4.0096,4.0096,4.0096,4.0096,4.0146,4.0449,4.0995,4.1556,4.1814,4.1958,4.3014,4.316,4.2751,4.3286,4.3515,4.3515,4.3515,4.3515,4.3515,0.0,0.0,0.0,0.0,0.0,0.0,0.0,0.0,0.0,0.0,1.3816,1.4102,1.4737,1.4439,1.5014,0.0,0.0,0.0,0.0,0.0,0.0,0.0,0.0,0.0,0.0,2.0131,2.0661,2.0919,2.1674,2.219,2.2508,2.2401,2.2022,2.14,2.1106,0.0,0.0,0.0,0.0,0.0,0.0,0.0,0.0,0.0,0.0,0.0,2.1452,2.1942,0.0,0.0,0.0,0.0,0.0,0.0,0.0,0.0,2.2786,2.3032,2.3274,0.0,2.4086,2.3682,2.3327,2.3052,0.0,2.2739,2.2527,2.2439,2.2349,2.2465,2.3038,2.2682,2.3226,2.6049,2.6793,2.801,3.0835,3.3698,3.644,3.9029,3.9486,3.9656,3.9825,3.9994,4.0096,4.0096,4.0096,4.0096,4.0096,4.0096,4.0096,4.0096,4.0096,4.0096,4.0096,4.0096,4.0096,4.0096,4.0096,4.0096,4.0121,4.0528,4.1018,4.1599,4.1729,4.2059,4.25,4.277,4.2826,4.2751,4.3286,4.3515,4.3515,4.3515,4.3515,4.3515,0.0,0.0,0.0,0.0,0.0,0.0,0.0,0.0,0.0,0.0,0.0,0.0,0.0,0.0,0.0,0.0,0.0,0.0,0.0,0.0,0.0,0.0,0.0,0.0,1.9297,2.0282,2.0888,2.1024,2.2014,2.2647,2.2938,2.294,2.2798,2.2558,2.2043,0.0,0.0,0.0,0.0,0.0,0.0,0.0,0.0,0.0,0.0,0.0,2.0099,2.0795,0.0,2.2607,2.3289,2.3703,0.0,0.0,0.0,0.0,2.281,2.284,2.2415,2.2835,2.3291,2.2902,2.2801,2.2801,2.2801,0.0,0.0,0.0,0.0,2.2415,2.2818,2.2852,2.3579,2.5913,2.7131,2.921,3.3254,3.5825,3.8014,3.9876,4.0096,4.0096,4.0096,4.0096,4.0096,4.0096,4.0096,4.0096,4.0096,4.0096,4.0096,4.0096,4.0096,4.0096,4.0096,4.0096,4.0096,4.0096,4.0096,4.0096,4.0096,4.0417,4.0844,4.138,4.138,4.1895,4.2711,4.2711,4.2845,4.3105,4.3392,4.3515,4.3515,4.3515,4.3515,4.3515,0.0,0.0,0.0,0.0,0.0,0.0,0.0,0.0,0.0,0.0,0.0,0.0,0.0,0.0,0.0,0.0,0.0,0.0,0.0,0.0,0.0,0.0,0.0,1.9282,1.9352,2.0315,2.0994,2.1421,2.2405,2.3209,2.3808,2.3559,2.3703,2.4057,2.2643,0.0,0.0,0.0,0.0,0.0,0.0,0.0,0.0,0.0,0.0,0.0,0.0,0.0,0.0,2.1491,2.2527,2.3386,2.3448,0.0,0.0,0.0,0.0,0.0,2.2607,2.3004,2.3511,2.3291,2.3308,2.3359,2.3257,0.0,0.0,0.0,0.0,0.0,0.0,2.3241,2.4036,2.5032,2.7232,3.0495,3.5278,3.7155,3.8565,3.9943,4.0096,4.0096,4.0096,4.0096,4.0096,4.0096,4.0096,4.0096,4.0096,4.0096,4.0096,4.0096,4.0096,4.0096,4.0096,4.0096,4.0096,4.0096,4.0096,4.0096,4.0096,4.0179,4.0473,4.0903,4.0995,4.1664,4.2711,4.2711,4.3014,4.3515,4.3515,4.3515,4.3515,4.3515,4.3515,4.3515,0.0,0.0,0.0,0.0,0.0,0.0,0.0,0.0,0.0,0.0,0.0,0.0,0.0,0.0,0.0,0.0,0.0,0.0,0.0,0.0,0.0,0.0,1.8922,1.9228,1.9631,2.0406,2.1163,2.189,2.3177,2.3981,2.4295,2.4526,2.4331,2.3727,2.23,2.1553,0.0,0.0,0.0,0.0,0.0,0.0,0.0,0.0,0.0,0.0,0.0,0.0,0.0,2.0373,2.1266,2.196,2.2255,0.0,0.0,0.0,0.0,0.0,2.3221,2.378,2.4034,2.2784,2.2936,2.3241,2.2615,0.0,0.0,0.0,0.0,0.0,0.0,2.4763,2.593,2.7977,3.1207,3.4421,3.7178,3.8294,3.914,3.9994,4.0096,4.0096,4.0096,4.0096,4.0096,4.0096,4.0096,4.0096,4.0096,4.0096,4.0096,4.0096,4.0096,4.0096,4.0096,4.0096,4.0096,4.0096,4.0096,4.0096,4.0138,4.0577,4.0827,4.0926,4.1446,4.2059,4.2711,4.2711,4.3014,4.3515,4.3515,4.3515,4.3515,4.3515,4.3515,4.3515,0.0,0.0,0.0,0.0,0.0,0.0,0.0,0.0,0.0,0.0,0.0,0.0,0.0,0.0,0.0,0.0,0.0,0.0,0.0,0.0,0.0,1.9176,1.9174,1.9333,1.9697,2.1097,2.1998,2.2389,2.4011,2.4866,2.5002,2.5116,2.4649,2.3674,2.3017,2.2623,2.2416,0.0,0.0,0.0,0.0,0.0,0.0,0.0,0.0,0.0,0.0,0.0,0.0,0.0,2.0651,2.1671,2.1999,0.0,0.0,0.0,0.0,0.0,2.2824,2.3342,2.3731,2.3054,2.3748,2.4611,2.4661,2.4374,0.0,0.0,0.0,0.0,0.0,2.6657,2.8416,3.1481,3.4104,3.6406,3.8227,3.8785,3.9259,4.0011,4.0096,4.0096,4.0096,4.0096,4.0096,4.0096,4.0096,4.0096,4.0096,4.0096,4.0096,4.0096,4.0096,4.0096,4.0096,4.0096,4.0096,4.0096,4.0096,4.0096,4.0096,4.036,4.0473,4.0497,4.1082,4.1643,4.2223,4.2577,4.3014,4.3515,4.3515,4.3515,4.3515,4.3515,4.3515,4.3515,0.0,0.0,0.0,0.0,0.0,0.0,0.0,0.0,0.0,0.0,0.0,0.0,0.0,0.0,0.0,0.0,0.0,0.0,0.0,0.0,1.8621,1.9577,1.9578,1.9714,2.0031,2.1789,2.279,2.2976,2.4879,2.5793,2.5761,2.5714,2.5006,2.3816,2.3742,2.3555,2.33,0.0,0.0,0.0,0.0,0.0,0.0,0.0,0.0,0.0,0.0,0.0,0.0,0.0,0.0,0.0,0.0,0.0,0.0,2.2784,2.2708,2.2669,2.2578,2.297,2.3427,2.3613,2.4374,2.5372,2.6437,2.6133,2.5913,0.0,0.0,0.0,0.0,2.8773,3.1193,3.4709,3.6417,3.7777,3.9056,3.9242,3.9486,4.0028,4.0096,4.0096,4.0096,4.0096,4.0096,4.0096,4.0096,4.0096,4.0096,4.0096,4.0096,4.0096,4.0096,4.0096,4.0096,4.0096,4.0096,4.0096,4.0096,4.0096,4.0096,4.0096,4.0096,4.0146,4.0821,4.138,4.1874,4.2598,4.3142,4.3515,4.3515,4.3515,4.3515,4.3515,4.3515,4.3515,0.0,0.0,0.0,0.0,0.0,0.0,0.0,0.0,0.0,0.0,0.0,0.0,0.0,0.0,0.0,0.0,0.0,0.0,0.0,0.0,1.8537,1.931,1.9964,2.0558,2.1083,2.2155,2.3075,2.3811,2.5768,2.6641,2.653,2.6518,2.5666,2.4151,2.3837,2.3692,0.0,0.0,0.0,0.0,0.0,0.0,0.0,0.0,0.0,0.0,0.0,0.0,0.0,0.0,0.0,0.0,0.0,0.0,2.2733,2.2708,2.2708,2.279,2.3206,2.3359,2.3562,2.4254,2.4,2.4103,2.6218,2.6133,0.0,2.84,0.0,0.0,0.0,3.1157,3.41,3.7161,3.8311,3.9106,3.991,4.0028,4.0045,4.0096,4.0096,4.0096,4.0096,4.0096,4.0096,4.0096,4.0096,4.0096,4.0096,4.0096,4.0096,4.0096,4.0096,4.0096,4.0096,4.0096,4.0096,4.0096,4.0096,4.0096,4.0096,4.0096,4.0096,4.0171,4.1263,4.175,4.1895,4.2977,4.348,4.3515,4.3515,4.3515,4.3515,4.3515,4.3515,4.3515,0.0,0.0,0.0,0.0,0.0,0.0,0.0,0.0,0.0,0.0,0.0,0.0,0.0,0.0,0.0,0.0,0.0,0.0,0.0,0.0,1.835,1.9249,1.9858,2.0246,2.045,2.2657,2.4196,2.4963,2.6146,2.655,2.6225,2.5978,2.5264,2.419,2.4074,0.0,0.0,0.0,0.0,0.0,0.0,0.0,0.0,0.0,0.0,0.0,0.0,0.0,0.0,0.0,1.9017,1.9993,0.0,2.1097,2.2364,2.19,2.1776,2.1907,2.2539,2.3054,2.3579,2.4321,2.4982,0.0,0.0,2.8619,2.9719,3.1952,3.2429,0.0,0.0,3.4121,3.6028,3.7652,3.8903,3.9791,4.0062,4.0096,4.0096,4.0096,4.0096,4.0096,4.0096,4.0096,4.0096,4.0096,4.0096,4.0096,4.0096,4.0096,4.0096,4.0096,4.0096,4.0096,4.0096,4.0096,4.0096,4.0096,4.0096,4.0096,4.0096,4.0096,4.0096,4.0171,4.1308,4.181,4.1895,4.3014,4.3515,4.3515,4.3515,4.3515,4.3515,4.3515,4.3515,4.3515,0.0,0.0,0.0,0.0,0.0,0.0,0.0,0.0,0.0,0.0,0.0,0.0,0.0,0.0,0.0,0.0,0.0,0.0,0.0,1.6993,1.8093,1.9249,1.9688,2.0167,2.0707,2.2833,2.4243,2.4915,2.6112,2.6347,2.5654,2.5468,2.497,2.419,0.0,0.0,0.0,0.0,0.0,0.0,0.0,0.0,0.0,0.0,0.0,0.0,0.0,0.0,0.0,0.0,1.8814,1.9642,0.0,0.0,0.0,2.1343,2.136,2.1613,2.187,2.2496,2.3291,2.4254,0.0,0.0,2.9247,3.0649,3.2256,3.473,3.5013,3.4912,3.5165,3.6101,3.7049,3.7787,3.914,4.0096,4.0096,4.0096,4.0096,4.0096,4.0096,4.0096,4.0096,4.0096,4.0096,4.0096,4.0096,4.0096,4.0096,4.0096,4.0096,4.0096,4.0096,4.0096,4.0096,4.0096,4.0096,4.0096,4.0096,4.0096,4.0096,4.0096,4.0179,4.0417,4.1375,4.1916,4.2162,4.3124,4.3515,4.3515,4.3515,4.3515,4.3515,4.3515,4.3515,4.3515,0.0,0.0,0.0,0.0,0.0,0.0,0.0,0.0,0.0,0.0,0.0,0.0,0.0,0.0,0.0,0.0,0.0,0.0,1.5931,1.6704,1.776,1.9225,1.9552,2.05,2.2226,2.2544,2.2935,2.341,2.5617,2.6063,2.4901,2.5223,2.497,2.4208,0.0,0.0,0.0,0.0,0.0,0.0,0.0,0.0,0.0,0.0,0.0,0.0,0.0,0.0,0.0,0.0,1.8894,1.9176,0.0,0.0,0.0,2.119,2.1718,2.2141,2.141,2.1752,2.2682,2.4152,0.0,0.0,3.0548,3.1816,3.3182,3.6203,3.6197,3.5853,3.666,3.6829,3.7066,3.7787,3.914,4.0096,4.0096,4.0096,4.0096,4.0096,4.0096,4.0096,4.0096,4.0096,4.0096,4.0096,4.0096,4.0096,4.0096,4.0096,4.0096,4.0096,4.0096,4.0096,4.0096,4.0096,4.0096,4.0096,4.0096,4.0096,4.0096,4.0113,4.0392,4.0926,4.1534,4.2142,4.275,4.3268,4.3515,4.3515,4.3515,4.3515,4.3515,4.3515,4.3515,4.3515,0.0,0.0,0.0,0.0,0.0,0.0,0.0,0.0,0.0,0.0,0.0,0.0,0.0,0.0,0.0,0.0,0.0,0.0,0.0,1.7188,1.7791,1.8223,1.9315,1.9911,1.9921,2.1739,2.3168,2.4169,2.5548,2.5511,2.419,2.444,2.4303,2.3837,0.0,0.0,0.0,0.0,0.0,0.0,0.0,0.0,0.0,0.0,0.0,0.0,0.0,0.0,0.0,0.0,0.0,0.0,1.9447,0.0,0.0,2.119,2.136,2.1583,2.1887,2.2885,2.4203,2.5692,0.0,0.0,0.0,3.41,0.0,0.0,3.8159,3.7905,3.7635,3.799,3.8413,3.8633,3.9486,4.0096,4.0096,4.0096,4.0096,4.0096,4.0096,4.0096,4.0096,4.0096,4.0096,4.0096,4.0096,4.0096,4.0096,4.0096,4.0096,4.0096,4.0096,4.0096,4.0096,4.0096,4.0096,4.0096,4.0096,4.0096,4.0121,4.0497,4.0733,4.0949,4.1979,4.2519,4.275,4.3268,4.3515,4.3515,4.3515,4.3515,4.3515,4.3515,4.3515,4.3515,0.0,0.0,0.0,0.0,0.0,0.0,0.0,0.0,0.0,0.0,0.0,0.0,0.0,0.0,0.0,0.0,0.0,0.0,0.0,0.0,1.7625,1.8217,1.9327,2.0045,2.0331,2.2459,2.3705,2.3974,2.5024,2.4878,2.3632,2.4186,2.4429,2.4369,0.0,2.4435,0.0,0.0,0.0,0.0,2.3555,2.3061,2.2294,0.0,0.0,0.0,0.0,0.0,0.0,0.0,0.0,0.0,1.8809,0.0,0.0,2.0636,2.0953,2.136,2.2107,2.3376,2.4998,2.7097,2.9414,3.2019,3.5131,0.0,0.0,0.0,3.9191,3.8853,3.8413,3.87,3.8988,3.8988,3.9622,4.0096,4.0096,4.0096,4.0096,4.0096,4.0096,4.0096,4.0096,4.0096,4.0096,4.0096,4.0096,4.0096,4.0096,4.0096,4.0096,4.0096,4.0096,4.0096,4.0096,4.0096,4.0096,4.0096,4.0096,4.0204,4.0441,4.0756,4.1041,4.1335,4.2521,4.3014,4.3032,4.3375,4.3515,4.3515,4.3515,4.3515,4.3515,4.3515,4.3515,4.3515,0.0,0.0,0.0,0.0,0.0,0.0,0.0,0.0,0.0,0.0,0.0,0.0,0.0,0.0,0.0,0.0,0.0,0.0,0.0,0.0,1.7433,1.8838,1.9586,2.0771,2.2488,2.4003,2.425,2.3153,2.4299,2.427,2.3183,0.0,2.5001,2.5278,0.0,2.5191,0.0,0.0,0.0,2.3671,2.3335,2.3403,2.3491,2.1597,0.0,0.0,0.0,0.0,0.0,0.0,0.0,0.0,1.8674,1.8894,1.9063,1.9879,2.0636,2.1393,2.226,2.3528,2.5337,2.8434,3.0533,3.2882,3.6975,3.8514,3.9276,3.996,3.9571,3.9089,3.9089,3.9089,3.9089,3.9089,3.9673,4.0096,4.0096,4.0096,4.0096,4.0096,4.0096,4.0096,4.0096,4.0096,4.0096,4.0096,4.0096,4.0096,4.0096,4.0096,4.0096,4.0096,4.0096,4.0096,4.0096,4.0096,4.0096,4.0096,4.0096,4.0368,4.0903,4.0949,4.1358,4.2021,4.3051,4.3515,4.3515,4.3515,4.3515,4.3515,4.3515,4.3515,4.3515,4.3515,4.3515,4.3515,0.0,0.0,0.0,0.0,0.0,0.0,0.0,0.0,0.0,0.0,0.0,0.0,0.0,0.0,0.0,0.0,0.0,0.0,0.0,0.0,1.7963,1.886,2.0378,2.1662,2.2635,2.3515,2.3582,2.281,2.4457,2.4417,0.0,0.0,0.0,2.4221,0.0,2.4559,0.0,0.0,2.33,2.3671,2.3335,2.3403,2.3469,2.1379,2.067,0.0,0.0,0.0,0.0,0.0,0.0,0.0,1.8674,1.8894,1.9176,2.0547,2.1055,2.1613,2.3509,2.4678,0.0,2.982,3.3609,3.6721,3.7686,3.892,3.991,4.0079,3.9977,3.9859,3.9859,3.9859,3.9859,3.9859,3.9994,4.0096,4.0096,4.0096,4.0096,4.0096,4.0096,4.0096,4.0096,4.0096,4.0096,4.0096,4.0096,4.0096,4.0096,4.0096,4.0096,4.0096,4.0096,4.0096,4.0096,4.0096,4.0096,4.0096,4.0096,4.0368,4.0926,4.1402,4.2167,4.316,4.3391,4.3515,4.3515,4.3515,4.3515,4.3515,4.3515,4.3515,4.3515,4.3515,4.3515,4.3515,0.0,0.0,0.0,0.0,0.0,0.0,0.0,0.0,0.0,0.0,0.0,0.0,0.0,0.0,0.0,0.0,0.0,0.0,0.0,0.0,1.8353,1.9618,2.1253,2.2384,2.293,2.2944,2.2938,2.2947,2.3518,2.3439,0.0,0.0,0.0,2.4672,0.0,2.4868,0.0,0.0,2.3111,2.3189,2.2895,2.2845,2.2747,2.1097,2.0349,2.0012,1.8687,0.0,0.0,0.0,0.0,0.0,0.0,0.0,1.8606,1.9769,2.0348,2.1126,2.3359,2.5033,0.0,3.1224,0.0,3.7466,3.7821,3.8768,3.9673,4.0028,4.0096,4.0096,4.0096,4.0096,4.0096,4.0096,4.0096,4.0096,4.0096,4.0096,4.0096,4.0096,4.0096,4.0096,4.0096,4.0096,4.0096,4.0096,4.0096,4.0096,4.0096,4.0096,4.0096,4.0096,4.0096,4.0096,4.0096,4.0096,4.0096,4.0096,4.0368,4.092,4.1771,4.2101,4.2714,4.3515,4.3515,4.3515,4.3515,4.3515,4.3515,4.3515,4.3515,4.3515,4.3515,4.3515,4.3515,4.3515,0.0,0.0,0.0,0.0,0.0,0.0,0.0,0.0,0.0,0.0,0.0,0.0,0.0,0.0,0.0,0.0,0.0,0.0,0.0,1.7918,1.8665,2.016,2.1574,2.2464,2.2729,2.2191,2.2244,2.2923,2.23,0.0,0.0,0.0,0.0,2.5331,0.0,0.0,0.0,0.0,2.285,2.2568,2.2085,2.1914,2.1784,2.0582,1.9848,1.937,1.8517,1.8068,1.7861,1.7861,0.0,0.0,0.0,0.0,1.7935,1.8674,1.9423,2.0471,2.2632,2.5101,2.8078,3.2188,3.4912,0.0,3.7533,3.8379,3.9157,3.9791,4.0011,4.0096,4.0096,4.0096,4.0096,4.0096,4.0096,4.0096,4.0096,4.0096,4.0096,4.0096,4.0096,4.0096,4.0096,4.0096,4.0096,4.0096,4.0096,4.0096,4.0096,4.0096,4.0096,4.0096,4.0096,4.0096,4.0096,4.0096,4.0096,4.0096,4.075,4.1621,4.2693,4.2807,4.3069,4.3515,4.3515,4.3515,4.3515,4.3515,4.3515,4.3515,4.3515,4.3515,4.3515,4.3515,4.3515,4.3515,0.0,0.0,0.0,0.0,0.0,0.0,0.0,0.0,0.0,0.0,0.0,1.5341,1.5443,1.6113,0.0,0.0,0.0,0.0,1.78,0.0,0.0,1.91,2.0188,2.0819,2.0866,2.1046,2.1364,2.1811,2.1724,0.0,0.0,0.0,0.0,2.4641,0.0,0.0,0.0,0.0,2.1755,2.2065,2.0805,2.0644,2.1001,1.9619,1.9376,1.9618,1.8561,1.8177,1.8146,1.8146,1.7992,0.0,0.0,0.0,1.7935,1.8674,1.9423,2.0356,2.1992,0.0,2.9297,0.0,3.4117,3.5977,0.0,0.0,3.9022,3.9123,3.9673,4.0096,4.0096,4.0096,4.0096,4.0096,4.0096,4.0096,4.0096,4.0096,4.0096,4.0096,4.0096,4.0096,4.0096,4.0096,4.0096,4.0096,4.0096,4.0096,4.0096,4.0096,4.0096,4.0096,4.0096,4.0096,4.0096,4.0096,4.0096,4.0121,4.1173,4.2041,4.2731,4.3178,4.3427,4.3515,4.3515,4.3515,4.3515,4.3515,4.3515,4.3515,4.3515,4.3515,4.3515,4.3515,4.3515,4.3515,0.0,0.0,0.0,0.0,0.0,0.0,0.0,0.0,0.0,0.0,0.0,1.5595,1.5595,1.6265,0.0,0.0,0.0,0.0,1.78,1.8488,0.0,0.0,1.975,2.0216,2.0216,1.9964,2.0326,2.1374,0.0,0.0,0.0,2.5422,2.5838,0.0,0.0,0.0,0.0,0.0,0.0,2.1917,2.0561,2.0915,2.2047,1.9768,1.974,2.0655,1.8672,1.7982,1.7982,1.7982,1.8166,1.8352,1.7918,0.0,0.0,0.0,1.8809,1.9993,2.2767,2.5879,2.8873,0.0,3.3034,3.467,3.5859,3.6975,3.7872,3.8294,3.8633,3.9106,3.996,4.0096,4.0096,4.0096,4.0096,4.0096,4.0096,4.0096,4.0096,4.0096,4.0096,4.0096,4.0096,4.0096,4.0096,4.0096,4.0096,4.0096,4.0096,4.0096,4.0096,4.0096,4.0096,4.0096,4.0096,4.0096,4.0434,4.1053,4.1573,4.2266,4.316,4.3392,4.3515,4.3515,4.3515,4.3515,4.3515,4.3515,4.3515,4.3515,4.3515,4.3515,4.3515,4.3515,4.3515,4.3515,0.0,0.0,0.0,0.0,0.0,0.0,0.0,0.0,0.0,0.0,0.0,0.0,1.6153,0.0,0.0,0.0,0.0,0.0,1.78,0.0,0.0,0.0,0.0,1.9427,1.9427,1.8899,1.9283,2.0615,0.0,0.0,2.5592,2.5795,2.6877,0.0,2.7382,2.6461,0.0,0.0,0.0,0.0,2.1092,2.1579,2.2849,2.102,2.122,2.218,1.9806,1.8932,1.8882,1.8493,1.8606,1.8792,1.8239,1.8335,0.0,0.0,0.0,1.9401,0.0,0.0,2.7046,2.9685,3.1461,3.3,0.0,3.5808,3.6705,3.7466,3.777,3.8244,3.9351,3.9706,3.9825,3.9825,3.9977,4.0096,4.0096,4.0096,4.0096,4.0096,4.0096,4.0096,4.0096,4.0096,4.0096,4.0096,4.0096,4.0096,4.0096,4.0096,4.0096,4.0096,4.0096,4.0096,4.0096,4.0096,4.0594,4.1578,4.1746,4.2344,4.3303,4.3427,4.3515,4.3515,4.3515,4.3515,4.3515,4.3515,4.3515,4.3515,4.3515,4.3515,4.3515,4.3515,4.3515,4.3515,0.0,0.0,0.0,0.0,0.0,0.0,0.0,0.0,0.0,0.0,0.0,0.0,0.0,0.0,0.0,0.0,0.0,0.0,0.0,0.0,0.0,0.0,0.0,0.0,0.0,1.7884,1.8251,0.0,0.0,0.0,2.5625,2.6319,2.8197,3.0954,2.9502,2.7435,2.4977,0.0,0.0,0.0,0.0,2.2257,2.2485,2.3727,2.4269,2.4149,2.2629,2.206,2.184,2.0386,1.9439,1.8894,1.8843,1.8386,1.785,0.0,0.0,0.0,0.0,2.2499,0.0,2.7063,2.9125,3.0833,0.0,3.4619,3.5887,3.6694,3.7398,3.7922,3.8007,3.8582,3.9056,3.9056,3.9656,4.0096,4.0096,4.0096,4.0096,4.0096,4.0096,4.0096,4.0096,4.0096,4.0096,4.0096,4.0096,4.0096,4.0096,4.0096,4.0096,4.0096,4.0096,4.0096,4.0096,4.0096,4.0392,4.0949,4.1534,4.2142,4.2769,4.3268,4.3515,4.3515,4.3515,4.3515,4.3515,4.3515,4.3515,4.3515,4.3515,4.3515,4.3515,4.3515,4.3515,4.3515,0.0,0.0,0.0,0.0,0.0,0.0,0.0,0.0,0.0,0.0,0.0,0.0,0.0,1.78,1.78,1.78,0.0,0.0,0.0,0.0,0.0,0.0,0.0,0.0,0.0,1.8268,0.0,0.0,0.0,2.0974,2.4205,2.5439,2.6573,2.7604,2.7776,2.7581,2.6901,2.3639,0.0,0.0,0.0,2.3422,2.508,2.4654,2.5758,2.718,2.4631,2.3269,2.2556,2.1759,2.0991,2.0217,1.9406,1.931,1.927,1.8332,1.8609,0.0,0.0,0.0,0.0,2.522,2.7537,2.9719,3.1004,3.3169,3.4979,3.525,3.591,3.6411,3.6411,3.7466,3.8447,3.892,3.9208,3.9571,4.0028,4.0096,4.0096,4.0096,4.0096,4.0096,4.0096,4.0096,4.0096,4.0096,4.0096,4.0096,4.0096,4.0096,4.0096,4.0096,4.0096,4.0096,4.0096,4.0096,4.0546,4.149,4.1703,4.2304,4.3214,4.341,4.3515,4.3515,4.3515,4.3515,4.3515,4.3515,4.3515,4.3515,4.3515,4.3515,4.3515,4.3515,4.3515,4.3515,0.0,0.0,0.0,0.0,0.0,0.0,0.0,0.0,0.0,1.7399,0.0,0.0,0.0,0.0,1.8442,1.8189,1.8166,0.0,0.0,0.0,0.0,0.0,0.0,0.0,0.0,1.8994,1.925,0.0,0.0,0.0,0.0,2.4289,2.527,2.598,2.6187,2.683,0.0,0.0,0.0,2.4313,2.4183,2.5326,2.7068,2.7112,2.8269,2.9561,2.7213,2.5762,2.4784,2.375,2.275,2.1691,2.0365,1.9809,1.948,1.8481,1.9021,0.0,1.9687,0.0,0.0,0.0,2.5828,2.7638,2.9651,3.163,3.3152,3.3643,3.4539,3.5228,3.5228,3.6259,3.7381,3.8125,3.8464,3.8886,3.9639,3.974,3.9825,4.0079,4.0096,4.0096,4.0096,4.0096,4.0096,4.0096,4.0096,3.9994,3.9757,3.974,3.9622,3.9385,3.9343,3.9343,3.9343,3.9343,3.9969,4.1125,4.1319,4.2056,4.3232,4.3427,4.3515,4.3515,4.3515,4.3515,4.3515,4.3515,4.3515,4.3515,4.3515,4.3515,4.3515,4.3515,4.3515,4.3515,0.0,0.0,0.0,0.0,0.0,0.0,0.0,0.0,1.8121,1.8843,0.0,0.0,0.0,0.0,0.0,1.8995,1.891,1.8589,1.7884,1.7817,0.0,0.0,0.0,0.0,0.0,1.9958,1.9992,1.8894,1.9642,2.0745,0.0,0.0,2.4509,2.6505,2.5134,2.532,2.6674,2.735,2.7249,2.6725,2.7452,2.779,2.8196,3.114,3.1853,3.1193,3.0463,2.9721,2.874,2.6488,2.4746,2.3238,2.1742,1.9886,1.8298,1.8298,1.9037,0.0,0.0,0.0,0.0,0.0,0.0,2.456,2.8941,2.9989,3.0446,3.1938,3.3393,3.4404,3.4455,3.5081,3.5802,3.6609,3.7364,3.8125,3.8853,3.8954,3.9225,3.9977,4.0079,4.0079,4.0096,4.0096,4.0096,4.0096,4.0096,3.9791,3.9039,3.8971,3.8633,3.7922,3.7905,3.7905,3.7929,3.7929,3.8549,3.9827,4.0437,4.1397,4.2714,4.325,4.3515,4.3515,4.3515,4.3515,4.3515,4.3515,4.3515,4.3515,4.3515,4.3515,4.3515,4.3515,4.3515,4.3515,0.0,0.0,0.0,0.0,0.0,0.0,1.9393,1.9393,1.9461,0.0,0.0,0.0,1.9985,2.0002,1.9917,1.971,1.9215,1.8809,1.8606,1.8099,1.78,1.78,1.9112,1.9549,1.8922,2.028,2.0297,1.8894,1.9642,1.9947,1.9875,2.1735,2.2936,2.3579,2.4763,2.522,2.5049,2.4188,2.4629,2.593,2.6116,2.7519,2.9599,3.097,3.2258,3.3233,3.2666,3.1884,3.0865,2.9373,2.7486,2.5416,2.3245,2.1629,2.0508,2.0508,2.0963,0.0,2.0316,0.0,0.0,0.0,0.0,0.0,2.5777,2.73,2.8872,3.0395,3.1461,3.2442,3.3508,3.4303,3.4878,3.5081,3.6231,3.7347,3.8108,3.821,3.8481,3.9208,3.9292,3.952,4.0045,4.0096,4.0096,4.0096,4.0096,3.9791,3.9039,3.8481,3.8108,3.7922,3.7905,3.8067,3.8396,3.8396,3.8955,4.0091,4.0857,4.1631,4.2446,4.317,4.3515,4.3515,4.3515,4.3515,4.3515,4.3515,4.3515,4.3515,4.3515,4.3515,4.3515,4.3515,4.3515,4.3515,0.0,0.0,0.0,0.0,0.0,2.0002,2.0002,2.0002,2.0132,0.0,0.0,0.0,2.135,2.1975,2.1958,2.1045,2.0568,1.9908,1.8961,1.8504,1.8268,1.8268,1.9517,2.0108,1.9853,2.1148,2.1011,1.9367,2.0128,1.9959,1.8944,2.0923,2.1667,2.1417,2.3038,2.3526,2.3069,2.2209,2.3308,2.571,2.6979,2.8721,3.0717,3.2053,3.3271,3.4227,3.3952,3.3271,3.2363,3.1356,2.9093,2.6316,2.4091,2.2729,0.0,2.1174,0.0,0.0,0.0,0.0,0.0,0.0,0.0,0.0,2.4694,2.5727,2.686,2.8383,2.9533,3.0632,3.1816,3.2882,3.3698,3.3981,3.5047,3.6237,3.728,3.7432,3.7702,3.8447,3.8531,3.87,3.914,3.9174,3.9174,3.9174,3.9174,3.8853,3.8132,3.7364,3.6935,3.6935,3.7155,3.7413,3.7672,3.791,3.86,3.9752,4.0221,4.1088,4.2323,4.2782,4.3167,4.3515,4.3515,4.3515,4.3515,4.3515,4.3515,4.3515,4.3515,4.3515,4.3515,4.3515,4.3515,4.3515,0.0,0.0,2.0119,2.0339,2.0386,2.0424,2.0593,2.0542,2.0809,0.0,2.1817,2.2307,2.3613,2.4864,2.4814,2.2837,2.2431,2.1448,1.9401,1.9029,1.8939,1.9012,1.994,2.069,2.1187,2.2159,2.1833,2.012,2.0754,2.0378,1.9046,2.0429,2.0686,2.0035,2.0839,2.119,2.1207,2.136,2.3088,2.5947,2.872,3.0497,3.1681,3.3812,3.4726,3.4878,3.4878,3.4404,3.3643,3.2733,3.0112,2.691,2.4923,2.3877,2.3063,2.1435,2.2151,0.0,0.0,0.0,0.0,0.0,2.2815,0.0,2.474,2.4862,2.4863,2.62,2.7554,2.8756,2.9567,3.092,3.2124,3.2696,3.3609,3.481,3.644,3.6677,3.6948,3.7702,3.7787,3.7821,3.7889,3.7905,3.7905,3.7905,3.7821,3.7483,3.6846,3.6045,3.56,3.56,3.6054,3.6354,3.6498,3.696,3.7809,3.9063,3.9153,4.0194,4.2047,4.2213,4.269,4.3369,4.346,4.3515,4.3515,4.3515,4.3515,4.3515,4.3515,4.3515,4.3515,4.3515,4.3515,4.3515,0.0,2.0665,2.0905,2.2456,2.2733,2.3139,2.4325,2.4002,2.4101,2.5455,2.5625,2.5743,2.6015,2.5778,2.5439,2.4984,2.3327,2.211,2.1671,1.9925,1.9164,1.9761,1.9992,2.0446,2.1173,2.1973,2.1905,2.097,2.0471,2.0082,1.9782,2.0099,2.0137,2.0035,2.0839,2.119,2.1275,2.2477,2.4323,2.659,2.7756,3.014,3.3152,3.4754,3.6163,3.7246,3.7246,3.6755,3.5847,3.3846,3.2083,3.0347,2.8112,2.7504,2.7201,2.513,2.5174,2.5643,2.4448,2.4423,0.0,2.4031,2.4562,0.0,2.3574,2.3915,2.4575,2.4863,2.5168,2.5777,2.7114,2.862,2.9484,2.8973,3.1055,3.3461,3.5554,3.5819,3.6129,3.6907,3.7015,3.7246,3.7838,3.7905,3.7905,3.7905,3.7347,3.6965,3.6812,3.6045,3.56,3.56,3.5694,3.6165,3.7038,3.7152,3.7721,3.8784,3.944,3.9965,4.0396,4.1717,4.2396,4.2561,4.3222,4.3515,4.3515,4.3515,4.3515,4.3515,4.3515,4.3515,4.3515,4.3515,4.3515,4.3515,0.0,2.1549,2.1742,2.2797,2.2997,2.3512,2.498,2.4896,2.528,2.7012,2.7926,2.8095,2.7317,2.7283,2.6843,2.5694,2.4255,2.2919,2.182,2.0683,2.0209,2.0585,2.0602,2.0957,2.1735,2.2124,2.1938,2.119,2.0788,2.02,1.9473,2.0247,2.0369,2.0035,2.0839,2.141,2.1769,2.2155,2.3577,2.5862,2.8839,3.1833,3.4653,3.6157,3.7466,3.8396,3.8041,3.7432,3.6457,3.4167,3.2768,3.1617,2.9347,2.9025,2.9023,2.6759,2.6623,2.6883,2.5391,2.5002,2.4999,2.5008,2.5023,0.0,0.0,2.3736,2.4026,2.4663,2.4484,2.466,2.6165,2.6926,2.7418,2.7756,2.9397,3.1176,3.2641,3.3808,3.4658,3.5047,3.5419,3.5814,3.6163,3.6552,3.6749,3.6749,3.6417,3.6197,3.6197,3.5802,3.56,3.56,3.5854,3.6395,3.7173,3.7433,3.7947,3.8707,3.9111,3.9515,3.9937,4.1148,4.1919,4.2341,4.3149,4.3515,4.3515,4.3515,4.3515,4.3515,4.3515,4.3515,4.3515,4.3515,4.3515,4.3515,0.0,2.2166,2.2178,2.2552,2.2654,2.3194,2.4668,2.4897,2.5595,2.7634,2.9441,3.0087,2.8824,2.9374,2.911,2.7249,2.6048,2.4541,2.2595,2.1935,2.1613,2.1613,2.1343,2.1613,2.2496,2.2364,2.2006,2.141,2.1123,2.0412,1.9379,2.0463,2.0619,2.0035,2.0991,0.0,0.0,2.1884,2.3323,2.6369,3.0601,3.3203,3.4771,3.6891,3.8058,3.8531,3.8227,3.7719,3.6897,3.459,3.3423,3.253,3.0178,3.0023,3.026,2.7841,2.7774,2.8063,2.6246,2.5721,2.573,2.6027,2.5574,2.493,0.0,0.0,0.0,2.458,2.422,2.4159,2.539,2.5435,2.5603,2.6656,2.7792,2.8671,2.8975,3.0937,3.2422,3.273,3.3541,3.4087,3.4087,3.4489,3.4923,3.5346,3.5126,3.5143,3.5583,3.56,3.56,3.56,3.6028,3.6542,3.7192,3.7578,3.8083,3.8707,3.8707,3.9038,3.9698,4.0671,4.1444,4.2121,4.3075,4.3515,4.3515,4.3515,4.3515,4.3515,4.3515,4.3515,4.3515,4.3515,4.3515,4.3515,2.2206,2.1691,2.1471,2.2504,2.2898,2.3544,2.5013,2.5204,2.5908,2.7986,3.0577,3.215,3.1896,3.2479,3.2797,3.2544,3.004,2.8096,2.7114,2.4611,2.3139,2.3139,2.1901,2.185,2.3241,2.2632,2.2245,2.2192,2.0809,2.0403,2.0936,2.0386,2.0099,2.0052,2.1519,2.2581,0.0,2.3204,2.6352,3.1464,3.2056,3.1684,3.119,3.5334,3.6981,3.7218,3.843,3.8819,3.8396,3.6129,3.5295,3.4721,3.185,3.1901,3.2459,2.9585,2.9719,3.0482,2.8963,2.9195,2.9299,2.6743,2.7718,2.826,2.4267,0.0,2.4895,2.3671,0.0,2.3324,2.3512,0.0,0.0,2.3373,2.5354,2.6522,2.532,2.7046,2.8939,3.0311,3.1698,3.2547,3.2547,3.2019,3.251,3.4472,3.341,3.3525,3.5498,3.56,3.56,3.56,3.565,3.6186,3.7173,3.7248,3.7773,3.8707,3.8707,3.8762,3.8891,4.0398,4.115,4.1315,4.2837,4.3515,4.3515,4.3515,4.3515,4.3515,4.3515,4.3515,4.3515,4.3515,4.3515,4.3515,2.1869,2.1415,0.0,2.1786,2.1979,2.2674,2.4544,2.7116,2.9006,2.9457,3.1597,3.2878,3.2386,3.2646,3.2796,3.2774,3.1241,2.977,2.8569,2.6488,0.0,2.5304,2.3492,2.2967,2.4017,2.2902,2.2296,2.2296,2.1228,2.0869,2.119,2.0839,2.116,2.204,2.353,2.4849,2.5947,2.5947,2.7148,2.9179,3.048,3.0395,3.0125,3.6355,3.8708,3.8809,3.9436,3.9343,3.8717,3.6907,3.5994,3.5295,3.3643,3.3254,3.3068,3.1413,3.1058,3.0869,2.9399,2.9646,2.979,2.7623,2.7891,2.7891,2.4921,2.4503,2.4638,2.4268,0.0,0.0,0.0,0.0,0.0,0.0,2.4452,2.4861,2.4242,2.5157,2.6437,2.796,2.9059,3.0209,3.1532,3.1376,3.1935,3.3728,3.2513,3.2628,3.4844,3.4962,3.5165,3.5583,3.56,3.6118,3.7173,3.7209,3.7703,3.8707,3.8707,3.8707,3.8744,3.9882,4.0396,4.0487,4.2103,4.28,4.2837,4.3296,4.3515,4.3515,4.3515,4.3515,4.3515,4.3515,4.3515,4.3515,2.1243,0.0,0.0,2.1,2.1239,2.2183,2.4451,2.7835,3.0217,3.0411,3.2246,3.3446,3.3214,3.3574,3.3917,3.4062,3.3223,3.2152,3.0903,2.8991,2.7926,2.7926,2.5592,2.4558,2.5083,2.3663,2.2699,2.2296,2.1563,2.119,2.119,2.119,2.1766,2.2885,2.4966,2.6742,2.8145,2.8551,2.9125,2.9871,3.1123,3.1782,3.2564,3.7371,3.9571,4.0096,4.0096,3.9757,3.9097,3.7608,3.6705,3.6056,3.5098,3.4438,3.3863,3.3123,3.253,3.1765,3.0313,3.0429,3.0427,2.8094,2.7763,2.7403,2.5031,2.4866,2.5167,2.5059,2.5107,0.0,0.0,0.0,0.0,0.0,0.0,2.4199,2.3781,2.4073,2.47,2.5675,2.6607,2.7925,2.9786,2.9583,3.0142,3.2053,3.0801,3.1106,3.3766,3.4083,3.4539,3.5284,3.5637,3.627,3.7173,3.7323,3.7843,3.8707,3.8707,3.8707,3.8726,3.9533,3.99,3.9989,4.1607,4.2304,4.2359,4.3167,4.3515,4.3515,4.3515,4.3515,4.3515,4.3515,4.3515,4.3515,2.0348,2.0331,0.0,2.0328,2.1071,2.2553,2.5174,2.6231,2.765,3.0158,3.2364,3.4128,3.5255,3.6679,3.7826,3.8521,3.7262,3.6133,3.5436,3.2679,3.1055,3.1055,2.818,2.6607,2.6623,2.5185,2.3729,2.2296,2.1563,2.119,2.119,0.0,0.0,0.0,2.5049,2.752,2.9061,3.0499,3.3592,3.7432,3.5988,3.7161,3.9537,3.7642,3.8251,4.0096,4.0096,4.0079,3.9842,3.8362,3.7855,3.7567,3.6039,3.5549,3.538,3.4641,3.4404,3.4066,3.2598,3.273,3.2239,2.7824,2.7762,2.7798,2.4108,2.5543,2.7236,2.5695,2.7226,2.837,2.683,0.0,0.0,0.0,0.0,0.0,0.0,2.3624,2.3829,2.3539,2.4797,2.5981,2.6759,2.5557,2.5946,2.8925,2.7706,2.8468,3.2175,3.3051,3.3778,3.4506,3.574,3.6643,3.7192,3.7649,3.815,3.8707,3.8707,3.8707,3.8726,3.9533,3.99,3.9989,4.1607,4.2304,4.2359,4.3167,4.3515,4.3515,4.3515,4.3515,4.3515,4.3515,4.3515,4.3515,0.0,0.0,0.0,2.0061,2.0535,2.2063,2.5113,2.7649,2.9819,3.1599,3.3231,3.4713,3.6012,3.7048,3.7917,3.8604,3.8752,3.8282,3.7078,3.5176,3.4095,3.4095,3.0801,2.9178,2.9668,2.7233,2.5235,2.3763,2.3018,2.2663,0.0,0.0,0.0,0.0,2.6218,2.8569,3.0584,3.2544,3.4252,3.5656,3.56,3.7415,4.0028,3.9266,3.9453,4.0096,4.0096,4.0096,4.0028,3.9512,3.9022,3.8531,3.8007,3.7178,3.6349,3.6101,3.5639,3.5131,3.4624,3.5047,3.4815,3.1295,3.0155,2.9069,2.5846,2.6336,2.7015,2.5394,2.7177,2.851,2.6895,0.0,0.0,0.0,0.0,0.0,0.0,2.3472,2.3393,2.3279,2.4227,2.4982,2.5218,2.4795,2.554,2.8027,2.7266,2.8147,3.1413,3.273,3.3744,3.4472,3.5744,3.6664,3.7192,3.7667,3.8167,3.8707,3.8707,3.8707,3.8707,3.8982,3.9405,3.9955,4.1038,4.1809,4.2359,4.3167,4.3515,4.3515,4.3515,4.3515,4.3515,4.3515,4.3515,4.3515,2.1476,2.1579,2.1425,2.0561,2.1545,2.349,2.6557,2.9415,3.1794,3.3365,3.4517,3.5731,3.7015,3.7594,3.8161,3.887,3.9485,3.9302,3.8171,3.7004,3.6374,3.6428,3.3605,3.2171,3.2357,2.9939,2.7706,2.5659,2.4932,2.4306,0.0,0.0,0.0,0.0,0.0,2.921,3.1749,3.4273,3.578,3.6541,3.7009,3.8362,4.0096,4.0096,4.0096,4.0096,4.0096,4.0096,4.0096,4.0096,3.9791,3.9402,3.9402,3.8572,3.7591,3.7591,3.7026,3.636,3.6113,3.64,3.6135,3.3393,3.2195,3.0849,2.7609,2.8148,2.8799,2.6953,2.8312,2.9714,2.9255,2.7989,0.0,0.0,0.0,0.0,0.0,2.3522,2.3335,2.3212,2.3702,0.0,0.0,2.3699,2.4398,2.6652,2.6011,2.6962,3.0226,3.1706,3.3048,3.4349,3.5782,3.6814,3.7451,3.7947,3.8366,3.8707,3.8707,3.8707,3.8707,3.8707,3.9148,3.9937,4.0763,4.157,4.2359,4.3167,4.3515,4.3515,4.3515,4.3515,4.3515,4.3515,4.3515,4.3515,2.1919,2.1904,2.2009,2.2084,2.4059,2.6572,2.9292,3.1285,3.326,3.5325,3.6178,3.7075,3.8347,3.8482,3.8801,3.9526,3.9678,3.9487,3.8946,3.829,3.7982,3.8094,3.6597,3.543,3.4726,3.3173,3.0903,2.7976,2.7114,2.5947,0.0,0.0,0.0,0.0,2.681,2.9448,3.2395,3.5458,3.8048,4.0096,4.0096,4.0096,4.0096,4.0096,4.0096,4.0096,4.0096,4.0096,4.0096,4.0096,4.0096,4.0096,4.0096,3.9622,3.9039,3.9039,3.8565,3.7855,3.7168,3.6965,3.644,3.4235,3.3826,3.3027,2.942,3.094,3.2463,3.0174,3.075,3.2056,3.3395,3.0546,2.8172,0.0,0.0,0.0,0.0,0.0,2.3617,2.3335,2.3283,0.0,0.0,2.224,2.2599,2.478,2.4035,2.5082,2.8756,3.0039,3.1738,3.4025,3.5759,3.7015,3.7825,3.8382,3.8658,3.8658,3.8692,3.8707,3.8707,3.8744,3.9203,3.9992,4.0802,4.1625,4.2415,4.3167,4.3515,4.3515,4.3515,4.3515,4.3515,4.3515,4.3515,4.3515,2.3146,2.4724,2.6402,2.7405,2.6886,2.7395,3.0524,3.1854,3.3574,3.6537,3.7494,3.8407,3.9738,3.9888,3.9751,3.947,4.0645,4.1087,4.0421,4.0839,4.1139,4.117,3.9225,3.8041,3.7838,3.4742,3.2205,3.0328,2.7892,2.6218,2.5304,0.0,0.0,0.0,0.0,2.8872,3.0886,3.4421,3.7533,4.0096,4.0096,4.0096,4.0096,4.0096,4.0096,4.0096,4.0096,4.0096,4.0096,4.0096,4.0096,4.0096,4.0096,3.9977,3.9825,3.9825,3.969,3.9503,3.93,3.9249,3.8979,3.7838,3.635,3.4771,3.3247,3.3857,3.405,3.1707,3.337,3.4491,3.196,3.0943,2.9751,0.0,0.0,0.0,0.0,0.0,0.0,2.4777,2.4312,0.0,2.2421,2.2594,2.3157,2.4033,2.4408,2.5619,2.7977,2.9457,3.103,3.2736,3.466,3.6034,3.6786,3.7667,3.8099,3.8099,3.8496,3.8707,3.8726,3.9313,4.0029,4.0838,4.1644,4.2451,4.3221,4.3423,4.3515,4.3515,4.3515,4.3515,4.3515,4.3515,4.3515,4.3515,2.5353,2.7255,2.9307,3.0627,3.0163,3.0432,3.2901,3.3829,3.5115,3.7524,3.8422,3.9125,3.9888,4.0487,4.0681,4.0307,4.1163,4.1336,4.0335,4.1432,4.1856,4.127,4.0744,4.029,3.9969,3.7567,3.5115,3.2628,2.9973,2.7774,2.6048,0.0,0.0,0.0,0.0,2.8535,3.0869,3.525,3.8244,4.0096,4.0096,4.0096,0.0,4.0096,4.0096,4.0096,4.0096,4.0096,4.0096,4.0096,4.0096,4.0096,4.0096,4.0096,4.0096,4.0096,4.0096,4.0096,4.0096,4.0096,4.0011,3.9588,3.8514,3.7212,3.5808,3.5852,3.5728,3.4138,3.455,3.5024,3.4431,3.2274,2.9581,0.0,0.0,0.0,0.0,0.0,0.0,0.0,2.4493,2.3744,2.254,2.2729,2.3088,2.3463,2.4126,2.5347,2.7233,2.8952,3.0735,3.2586,3.4225,3.5723,3.7041,3.7632,3.8013,3.8249,3.8562,3.8707,3.8726,3.9533,4.0341,4.1132,4.1956,4.2763,4.3515,4.3515,4.3515,4.3515,4.3515,4.3515,4.3515,4.3515,4.3515,4.3515,2.8079,2.9609,3.1285,3.2542,3.3455,3.4457,3.5818,3.6432,3.7225,3.8601,3.9379,3.9798,3.9798,4.0831,4.1512,4.1384,4.1483,4.11,3.9985,4.1446,4.1798,4.0524,4.1831,4.2202,4.1373,4.0426,3.8166,3.4489,3.2188,2.9499,2.6505,0.0,0.0,0.0,0.0,0.0,0.0,3.6738,3.9266,4.0096,4.0096,4.0096,4.0096,4.0096,4.0096,4.0096,4.0096,4.0096,4.0096,4.0096,4.0096,4.0096,4.0096,4.0096,4.0096,4.0096,4.0096,4.0096,4.0096,4.0096,4.0096,4.0096,4.0096,3.9605,3.7675,3.7462,3.748,3.687,3.5327,3.5011,3.8044,3.3831,2.9008,0.0,2.5778,2.5503,2.4905,0.0,0.0,0.0,0.0,0.0,2.3244,2.2955,2.289,2.3094,2.3536,2.4615,2.6471,2.8235,3.037,3.287,3.4091,3.5723,3.7789,3.7859,3.8132,3.8611,3.8768,3.8854,3.8891,3.979,4.0598,4.1297,4.2121,4.2837,4.3515,4.3515,4.3515,4.3515,4.3515,4.3515,4.3515,4.3515,4.3515,4.3515,3.0599,3.1988,3.3215,3.3993,3.5564,3.718,3.8491,3.8347,3.8721,4.0621,4.1467,4.1886,4.1886,4.2096,4.2006,4.1467,4.2071,4.2376,4.2149,4.3794,4.4405,4.3561,4.3958,4.3548,4.2134,4.0172,3.7635,3.4489,3.1664,2.8755,2.5778,0.0,0.0,0.0,0.0,0.0,3.4923,3.6502,3.8319,4.0096,4.0096,4.0096,4.0096,4.0096,4.0096,4.0096,4.0096,4.0096,4.0096,4.0096,4.0096,4.0096,4.0096,4.0096,4.0096,4.0096,4.0096,4.0096,4.0096,4.0096,4.0096,4.0096,4.0096,3.9994,3.9622,3.957,3.9423,3.8676,3.8076,3.7439,3.6602,3.404,3.1259,2.8773,2.7805,2.7548,2.8088,0.0,0.0,0.0,0.0,2.4879,2.4061,2.3959,2.3692,2.3135,2.3247,2.4046,2.5709,2.669,2.8716,3.2001,3.3552,3.5282,3.7305,3.7702,3.7946,3.8048,3.9173,3.968,3.9735,4.1203,4.1956,4.2139,4.2928,4.3369,4.3515,4.3515,4.3515,4.3515,4.3515,4.3515,4.3515,4.3515,4.3515,4.3515,3.3903,3.4607,3.5355,3.6327,3.7584,3.8901,4.0232,4.0726,4.1055,4.1339,4.1692,4.1886,4.1886,4.2462,4.2746,4.2417,4.278,4.2879,4.2582,4.3784,4.4435,4.4205,4.4354,4.4143,4.3504,4.166,3.9056,3.5695,3.2696,2.9499,2.615,2.5032,0.0,2.3579,0.0,3.1796,3.5701,3.7263,3.8792,4.0096,4.0096,4.0096,4.0096,4.0096,4.0096,4.0096,4.0096,4.0096,4.0096,4.0096,4.0096,4.0096,4.0096,4.0096,4.0096,4.0096,4.0096,4.0096,4.0096,4.0096,4.0096,4.0096,4.0096,4.0096,4.0096,4.0096,4.0011,3.9656,3.9042,3.8011,3.6061,3.3972,3.2187,3.1052,2.9314,2.8391,2.9197,2.7766,2.6695,0.0,0.0,0.0,2.4281,2.419,2.3822,2.2872,2.3395,2.4213,2.5238,2.6196,2.8202,3.1423,3.2623,3.4357,3.6766,3.7285,3.7864,3.8524,3.9451,4.012,4.0561,4.1754,4.2304,4.2341,4.3149,4.3515,4.3515,4.3515,4.3515,4.3515,4.3515,4.3515,4.3515,4.3515,4.3515,4.3515,3.6731,3.6896,3.7255,3.8407,3.9409,4.0382,4.1467,4.2821,4.3245,4.1968,4.1788,4.1788,4.1788,4.2716,4.329,4.329,4.329,4.312,4.2635,4.3425,4.3972,4.4024,4.4513,4.4605,4.4298,4.3287,4.0908,3.7032,3.4341,3.1089,2.7385,2.5912,2.5151,2.5253,2.9685,3.3322,3.6208,3.8007,3.9276,4.0113,4.0282,4.0333,4.0333,4.0333,4.0333,4.0316,4.0163,4.0096,4.0096,4.0096,4.0096,4.0096,4.0096,4.0096,4.0096,4.0096,4.0096,4.0096,4.0096,4.0096,4.0096,4.0096,4.0096,4.0096,4.0096,4.0096,4.0121,4.0254,3.9566,3.8242,3.5925,3.4582,3.355,3.2729,3.0875,2.9717,3.0161,2.8986,2.7759,0.0,0.0,0.0,2.453,2.4153,2.3645,2.2918,2.3601,2.4331,2.4968,2.5935,2.7826,3.0789,3.1913,3.3622,3.6058,3.7097,3.8114,3.9102,3.9981,4.0744,4.137,4.2194,4.2561,4.2598,4.3222,4.3515,4.3515,4.3515,4.3515,4.3515,4.3515,4.3515,4.3515,4.3515,4.3515,4.3515,3.7973,3.8212,3.8437,3.9185,4.0861,4.2171,4.2291,4.3883,4.4631,4.329,4.311,4.311,4.311,4.323,4.329,4.329,4.329,4.3275,4.32,4.4167,4.4409,4.3785,4.538,4.5334,4.3303,4.3999,4.2202,3.7804,3.6107,3.3385,2.9753,2.8213,2.8551,3.0548,3.2374,3.4878,3.7702,3.7922,3.8802,4.0163,4.0832,4.1102,4.1102,4.1102,4.1102,4.1018,4.035,4.0096,4.0096,4.0096,4.0096,4.0096,4.0096,4.0096,4.0096,4.0096,4.0096,4.0096,4.0096,4.0096,4.0096,4.0096,4.0096,4.0096,4.0096,4.0096,4.0254,4.0709,4.0411,3.9121,3.6058,3.6939,3.6911,3.3193,3.2991,3.3057,3.2402,3.0338,2.9104,2.9722,0.0,0.0,2.5374,2.3969,2.3364,2.3996,2.3573,2.3807,2.4933,2.5458,2.6957,2.9744,3.1913,3.3663,3.5031,3.7613,3.8994,3.912,4.1113,4.2103,4.2213,4.302,4.3404,4.3404,4.3478,4.3515,4.3515,4.3515,4.3515,4.3515,4.3515,4.3515,4.3515,4.3515,4.3515,4.3515,4.0718,4.0808,4.1153,4.2177,4.2686,4.321,4.4003,4.4796,4.511,4.4586,4.4167,4.3888,4.3888,4.3529,4.329,4.329,4.329,4.329,4.329,4.3669,4.4021,4.4335,4.4665,4.492,4.5139,4.4175,4.2451,3.9884,3.7915,3.5295,3.207,3.1461,3.1884,3.3254,3.5233,3.7026,3.865,3.9986,4.0882,4.1467,4.1728,4.1863,4.1863,4.1863,4.1863,4.1813,4.1525,4.1136,4.0747,4.0747,4.0485,4.0096,4.0096,4.0096,4.0096,4.0096,4.0096,4.0096,4.0096,4.0096,4.0096,4.0096,4.0096,4.0096,4.0096,4.0343,4.0631,4.0874,4.0306,3.9297,3.7705,3.6868,3.6385,3.6285,3.4717,3.3698,3.4324,3.2104,3.0271,2.9826,0.0,2.6282,2.5485,2.4373,2.4043,2.486,2.3404,2.3093,2.4506,2.481,2.6156,2.8844,3.1168,3.314,3.4748,3.7666,3.9336,3.9842,4.1515,4.2543,4.302,4.3349,4.3515,4.3515,4.3515,4.3515,4.3515,4.3515,4.3515,4.3515,4.3515,4.3515,4.3515,4.3515,4.3515,4.3515,4.2935,4.298,4.3284,4.4407,4.4392,4.4485,4.5454,4.5768,4.5888,4.5888,4.5304,4.4825,4.4631,4.4182,4.3798,4.3604,4.3589,4.3499,4.3305,4.329,4.363,4.4335,4.4161,4.4685,4.606,4.4798,4.3485,4.2202,4.0409,3.8091,3.5368,3.5148,3.5436,3.6237,3.8058,3.9276,4.007,4.1627,4.2286,4.2303,4.254,4.2625,4.2625,4.2625,4.2625,4.2591,4.2371,4.1965,4.1525,4.1525,4.117,4.0671,4.0248,4.0096,4.0096,4.0096,4.0096,4.0096,4.0096,4.0096,4.0096,4.0096,4.0096,4.0096,4.0096,4.0504,4.0856,4.0723,4.0173,3.9513,3.8823,3.7225,3.645,3.7772,3.5853,3.4382,3.4988,3.2949,3.0985,2.9847,2.7866,2.6282,2.5485,2.4677,2.463,2.5668,2.4158,2.3738,2.493,2.5026,2.6176,2.8707,3.115,3.3178,3.473,3.7882,3.9752,4.0312,4.1898,4.2947,4.3515,4.3515,4.3515,4.3515,4.3515,4.3515,4.3515,4.3515,4.3515,4.3515,4.3515,4.3515,4.3515,4.3515,4.3515,4.3515,4.4167,4.4287,4.4496,4.517,4.5843,4.6249,4.6264,4.686,4.7279,4.7279,4.6711,4.6037,4.5364,4.5274,4.5005,4.4362,4.4302,4.3992,4.3334,4.329,4.329,4.3329,4.4243,4.4898,4.5096,4.5994,4.5823,4.4564,4.3741,4.2202,4.0011,3.9259,3.9326,4.0079,4.0815,4.1576,4.2252,4.2286,4.2286,4.2354,4.3098,4.3375,4.3375,4.3375,4.3375,4.3274,4.2557,4.2286,4.2286,4.2286,4.2269,4.1999,4.057,4.0096,4.0096,4.0096,4.0096,4.0096,4.0096,4.0096,4.0096,4.0096,4.0096,4.0096,4.0096,4.0504,4.0769,4.0302,4.0202,3.9895,3.8889,3.8673,3.8141,3.6578,3.6285,3.5697,3.4064,3.2412,3.1103,3.0289,2.8069,2.6282,2.5485,2.4677,2.4869,2.6465,2.6252,2.623,2.6653,2.6422,2.7322,2.9618,3.2279,3.4074,3.4888,3.8492,4.0294,4.033,4.2464,4.3496,4.3515,4.3515,4.3515,4.3515,4.3515,4.3515,4.3515,4.3515,4.3515,4.3515,4.3515,4.3515,4.3515,4.3515,4.3515,4.3515,4.5607,4.6037,4.6411,4.6636,4.6845,4.6995,4.6995,4.7174,4.7309,4.7309,4.7115,4.6905,4.6696,4.5843,4.5214,4.5005,4.499,4.4885,4.4691,4.4257,4.3962,4.3962,4.3831,4.4425,4.5818,4.5631,4.5749,4.6092,4.5348,4.4079,4.2337,4.1593,4.1356,4.1627,4.2371,4.2817,4.3098,4.3623,4.3887,4.3904,4.4113,4.4215,4.4215,4.4215,4.4215,4.4181,4.3955,4.3521,4.3064,4.3064,4.2726,4.2202,4.1754,4.1238,4.0747,4.0248,4.0096,4.0096,4.0096,4.0096,4.0096,4.0096,4.0096,4.0096,4.0096,4.0504,4.1042,4.1524,4.0871,4.0058,3.9601,3.9074,3.8542,3.8028,3.7019,3.6101,3.5569,3.3605,3.1916,3.1109,2.9372,2.7923,2.7119,2.6806,2.6631,2.6602,2.6809,2.6971,2.7087,2.8375,2.9278,2.9687,3.3191,3.558,3.6667,3.944,4.1131,4.1679,4.2914,4.3515,4.3515,4.3515,4.3515,4.3515,4.3515,4.3515,4.3515,4.3515,4.3515,4.3515,4.3515,4.3515,4.3515,4.3515,4.3515,4.3515,4.6696,4.7025,4.7309,4.7309,4.7309,4.7309,4.7309,4.7309,4.7309,4.7309,4.7309,4.7309,4.7309,4.6546,4.5948,4.5708,4.5678,4.5574,4.5304,4.4915,4.4691,4.4691,4.4007,4.4572,4.6518,4.5866,4.606,4.7208,4.6464,4.5618,4.4671,4.4198,4.3978,4.3995,4.4468,4.4688,4.4722,4.5196,4.5444,4.5444,4.5444,4.5444,4.541,4.5111,4.4993,4.4976,4.4699,4.4265,4.3859,4.3859,4.3538,4.3098,4.2811,4.2405,4.1897,4.1136,4.0739,4.0493,4.0493,4.0316,4.0096,4.0096,4.0096,4.0204,4.0642,4.0821,4.1174,4.2103,4.1432,4.0492,3.9985,3.9478,3.9056,3.8762,3.7349,3.6303,3.6303,3.4174,3.2289,3.1507,3.0246,2.9133,2.8338,2.8796,2.8943,2.8448,2.9503,3.0054,2.9762,3.0287,3.0869,3.1478,3.4978,3.7317,3.8392,4.0506,4.1809,4.2304,4.3112,4.3515,4.3515,4.3515,4.3515,4.3515,4.3515,4.3515,4.3515,4.3515,4.3515,4.3515,4.3515,4.3515,4.3515,4.3515,4.3515,4.3515,4.7309,4.7309,4.7309,4.7309,4.7309,4.7309,4.7309,4.7309,4.7309,4.7309,4.7309,4.7309,4.7309,4.7309,4.7055,4.6399,4.6354,4.6112,4.5469,4.5394,4.5364,4.5364,4.4736,4.522,4.7059,4.657,4.6827,4.7973,4.7242,4.687,4.687,4.6819,4.6786,4.6786,4.6786,4.6786,4.6786,4.6786,4.6786,4.6786,4.6786,4.6786,4.6718,4.6041,4.5788,4.5686,4.4925,4.4682,4.4682,4.4632,4.4615,4.4479,4.3724,4.3477,4.3335,4.2523,4.1813,4.1271,4.1221,4.0696,4.0163,4.0113,4.0121,4.0466,4.1595,4.1402,4.124,4.2193,4.185,4.1126,4.0223,3.9974,3.9643,3.8909,3.7386,3.6303,3.6303,3.4266,3.2472,3.1672,3.0962,3.0216,2.9409,3.0687,3.1544,3.1488,3.361,3.4582,3.3844,3.2265,3.2389,3.464,3.7363,3.9203,4.0047,4.1552,4.2323,4.2396,4.313,4.3515,4.3515,4.3515,4.3515,4.3515,4.3515,4.3515,4.3515,4.3515,4.3515,4.3515,4.3515,4.3515,4.3515,4.3515,4.3515,4.3515,4.7309,4.7309,4.7309,4.7309,4.7309,4.7309,4.7309,4.7309,4.7309,4.7309,4.7309,4.7309,4.7309,4.7309,4.7249,4.7085,4.707,4.701,4.6845,4.6352,4.6082,4.6082,4.5424,4.5374,4.604,4.665,4.7543,4.8748,4.8003,4.7648,4.7648,4.7056,4.6786,4.6786,4.6786,4.6786,4.6786,4.6786,4.6786,4.6786,4.6786,4.6786,4.6769,4.6599,4.6532,4.643,4.5703,4.5432,4.5348,4.4801,4.4615,4.4581,4.4395,4.4316,4.4045,4.2692,4.2168,4.1914,4.1356,4.1068,4.0798,4.0248,4.0417,4.1036,4.2221,4.2021,4.1908,4.2994,4.225,4.1469,4.1689,4.0726,3.9827,3.9643,3.7753,3.6303,3.6303,3.5224,3.4124,3.333,3.361,3.3555,3.2742,3.2999,3.2981,3.2362,3.3421,3.4009,3.3807,3.5164,3.6197,3.6768,3.864,4.0304,4.1717,4.2103,4.2598,4.3222,4.3423,4.3515,4.3515,4.3515,4.3515,4.3515,4.3515,4.3515,4.3515,4.3515,4.3515,4.3515,4.3515,4.3515,4.3515,4.3515,4.3515,4.3515,4.7309,4.7309,4.7309,4.7309,4.7309,4.7309,4.7309,4.7309,4.7309,4.7309,4.7309,4.7309,4.7309,4.7309,4.7309,4.7309,4.7309,4.7309,4.7309,4.698,4.677,4.677,4.6127,4.604,4.6585,4.733,4.8276,4.9492,4.8765,4.8409,4.8409,4.7986,4.78,4.78,4.78,4.78,4.78,4.78,4.78,4.78,4.78,4.78,4.7767,4.7428,4.731,4.7208,4.6464,4.6194,4.6143,4.572,4.5365,4.5094,4.5094,4.4886,4.4445,4.3616,4.3081,4.2726,4.232,4.1711,4.1078,4.058,4.0679,4.1223,4.2422,4.246,4.2462,4.3321,4.2902,4.2358,4.2309,4.1295,4.0212,3.946,3.7936,3.6578,3.5807,3.5628,3.5279,3.4449,3.5078,3.5422,3.4981,3.5275,3.5147,3.4357,3.5385,3.6046,3.6046,3.7661,3.8429,3.8046,3.9955,4.1423,4.2286,4.2653,4.3057,4.3515,4.3515,4.3515,4.3515,4.3515,4.3515,4.3515,4.3515,4.3515,4.3515,4.3515,4.3515,4.3515,4.3515,4.3515,4.3515,4.3515,4.3515,4.3515,4.7309,4.7309,4.7309,4.7309,4.7309,4.7309,4.7309,4.7309,4.7309,4.7309,4.7309,4.7309,4.7309,4.7309,4.7309,4.7309,4.7309,4.7309,4.7309,4.7309,4.7309,4.7309,4.677,4.6788,4.7455,4.8013,4.8947,5.027,4.9526,4.9171,4.9171,4.9052,4.9001,4.9001,4.9001,4.9001,4.9001,4.9001,4.9001,4.9001,4.9001,4.9001,4.8934,4.8308,4.8058,4.7986,4.7225,4.6972,4.6938,4.6836,4.638,4.5872,4.5872,4.5348,4.4784,4.4784,4.4198,4.3544,4.3426,4.2373,4.1299,4.1125,4.1128,4.1446,4.246,4.2769,4.2939,4.341,4.3515,4.3277,4.2598,4.1735,4.06,3.9129,3.8102,3.6945,3.5408,3.5936,3.6248,3.5628,3.6321,3.689,3.7019,3.7529,3.7639,3.7074,3.8175,3.8927,3.9056,3.9827,3.9955,3.9258,4.124,4.2359,4.2488,4.3149,4.3515,4.3515,4.3515,4.3515,4.3515,4.3515,4.3515,4.3515,4.3515,4.3515,4.3515,4.3515,4.3515,4.3515,4.3515,4.3515,4.3515,4.3515,4.3515,4.3515,4.7309,4.7309,4.7309,4.7309,4.7309,4.7309,4.7309,4.7309,4.7309,4.7309,4.7309,4.7309,4.7309,4.7309,4.7309,4.7309,4.7309,4.7309,4.7309,4.7309,4.7309,4.7309,4.7204,4.6976,4.6518,4.7683,4.9192,5.1048,5.0287,4.9915,4.9915,4.9289,4.9001,4.9001,4.9001,4.9001,4.9001,4.9001,4.9001,4.9001,4.9001,4.9001,4.8984,4.8883,4.8832,4.8731,4.8003,4.775,4.7648,4.7005,4.6718,4.6616,4.6616,4.6109,4.5534,4.5534,4.4993,4.4265,4.3589,4.2697,4.1947,4.1929,4.2172,4.248,4.2673,4.305,4.3392,4.3479,4.3515,4.346,4.3332,4.2103,4.0802,3.9863,3.8484,3.718,3.6229,3.6813,3.7529,3.8065,3.8854,3.9606,4.0288,3.9845,3.9753,4.0306,3.9955,4.001,4.0691,4.1497,4.1864,4.1754,4.2103,4.2635,4.3296,4.3441,4.3515,4.3515,4.3515,4.3515,4.3515,4.3515,4.3515,4.3515,4.3515,4.3515,4.3515,4.3515,4.3515,4.3515,4.3515,4.3515,4.3515,4.3515,4.3515,4.3515,4.7309,4.7309,4.7309,4.7309,4.7309,4.7309,4.7309,4.7309,4.7309,4.7309,4.7309,4.7309,4.7309,4.7309,4.7309,4.7309,4.7309,4.7309,4.7309,4.7309,4.7309,4.7309,4.7309,4.767,4.8472,4.8735,4.9812,5.1792,5.1065,5.0693,5.0693,5.0355,4.9982,4.9593,4.9593,4.9373,4.9001,4.9001,4.9001,4.9001,4.9001,4.9001,4.9001,4.9001,4.9001,4.8968,4.8612,4.8494,4.8443,4.8105,4.7716,4.7394,4.7394,4.6887,4.621,4.5821,4.5179,4.4429,4.3639,4.311,4.2689,4.222,4.2466,4.2783,4.2724,4.3105,4.3515,4.3515,4.3515,4.3515,4.3515,4.2543,4.1479,4.0689,3.9551,3.8374,3.7125,3.8006,3.8762,3.8707,3.979,4.0689,4.1058,4.0763,4.0708,4.1058,4.0763,4.091,4.1699,4.2103,4.2506,4.2928,4.2947,4.3112,4.3515,4.3515,4.3515,4.3515,4.3515,4.3515,4.3515,4.3515,4.3515,4.3515,4.3515,4.3515,4.3515,4.3515,4.3515,4.3515,4.3515,4.3515,4.3515,4.3515,4.3515,4.3515,4.7309,4.7309,4.7309,4.7309,4.7309,4.7309,4.7309,4.7309,4.7309,4.7309,4.7309,4.7309,4.7309,4.7309,4.7309,4.7309,4.7309,4.7309,4.7309,4.7309,4.7309,4.7309,4.7538,4.8501,5.0374,5.008,5.0779,5.2587,5.1826,5.1471,5.1471,5.1302,5.0913,5.0355,5.0355,5.0033,4.9509,4.9509,4.9509,4.9509,4.9323,4.9255,4.9238,4.9069,4.9001,4.9001,4.9001,4.9001,4.9001,4.9001,4.8629,4.8173,4.8173,4.7665,4.6938,4.638,4.5568,4.4671,4.3893,4.3647,4.3411,4.2593,4.2655,4.2871,4.2774,4.3029,4.3357,4.3462,4.3515,4.3515,4.3515,4.2837,4.2047,4.1224,4.0579,3.968,3.8264,3.9276,4.001,3.9588,4.0634,4.1444,4.1644,4.1645,4.1645,4.1645,4.1645,4.1937,4.2543,4.258,4.2855,4.3478,4.3515,4.3515,4.3515,4.3515,4.3515,4.3515,4.3515,4.3515,4.3515,4.3515,4.3515,4.3515,4.3515,4.3515,4.3515,4.3515,4.3515,4.3515,4.3515,4.3515,4.3515,4.3515,4.3515,4.3515,4.7309,4.7309,4.7309,4.7309,4.7309,4.7309,4.7309,4.7309,4.7309,4.7309,4.7309,4.7309,4.7309,4.7309,4.7309,4.7309,4.7309,4.7309,4.7309,4.7309,4.7309,4.7309,4.8183,4.9231,5.0358,5.1255,5.2265,5.3416,5.2604,5.2232,5.2198,5.1539,5.1183,5.1133,5.1133,5.1099,5.1048,5.1048,5.1048,5.0997,5.0287,5.0016,4.9932,4.9255,4.9001,4.9001,4.9001,4.9001,4.9001,4.9001,4.8968,4.8934,4.8934,4.8426,4.7804,4.7736,4.6735,4.5466,4.4716,4.4363,4.4062,4.3457,4.3096,4.2904,4.2894,4.2823,4.2902,4.3392,4.3515,4.3515,4.3515,4.2837,4.2047,4.1224,4.104,4.0726,3.9827,4.0469,4.126,4.1956,4.2139,4.2506,4.324,4.3331,4.3331,4.3331,4.3331,4.3349,4.3423,4.3423,4.3441,4.3515,4.3515,4.3515,4.3515,4.3515,4.3515,4.3515,4.3515,4.3515,4.3515,4.3515,4.3515,4.3515,4.3515,4.3515,4.3515,4.3515,4.3515,4.3515,4.3515,4.3515,4.3515,4.3515,4.3515,4.3515,4.7309,4.7309,4.7309,4.7309,4.7309,4.7309,4.7309,4.7309,4.7309,4.7309,4.7309,4.7309,4.7309,4.7309,4.7309,4.7309,4.7309,4.7309,4.7309,4.7309,4.7309,4.7309,4.8252,4.9296,5.0374,5.1394,5.2435,5.3501,5.3196,5.3044,5.3044,5.2773,5.2367,5.1894,5.1894,5.164,5.1185,5.1185,5.1185,5.12,5.0896,5.0777,5.076,5.0473,5.0084,4.9678,4.9678,4.939,4.9001,4.9001,4.9001,4.9001,4.9001,4.8815,4.8494,4.8024,4.687,4.5652,4.5348,4.4901,4.4323,4.3593,4.3572,4.3733,4.3663,4.351,4.355,4.4125,4.3846,4.3515,4.3515,4.324,4.2928,4.2635,4.2176,4.1735,4.1423,4.1662,4.1974,4.2268,4.2745,4.3149,4.3478,4.3515,4.3515,4.3515,4.3515,4.3515,4.3515,4.3515,4.3515,4.3515,4.3515,4.3515,4.3515,4.3515,4.3515,4.3515,4.3515,4.3515,4.3515,4.3515,4.3515,4.3515,4.3515,4.3515,4.3515,4.3515,4.3515,4.3515,4.3515,4.3515,4.3515,4.3515,4.3515,4.3515,4.7309,4.7309,4.7309,4.7309,4.7309,4.7309,4.7309,4.7309,4.7309,4.7309,4.7309,4.7309,4.7309,4.7309,4.7309,4.7309,4.7309,4.7309,4.7309,4.7309,4.7309,4.7309,4.8252,4.9296,5.0374,5.1394,5.2435,5.3501,5.3501,5.3501,5.3501,5.3501,5.3213,5.2689,5.2689,5.2401,5.1928,5.1928,5.1928,5.1911,5.1657,5.1555,5.1539,5.1269,5.0896,5.0439,5.0439,4.9965,4.9357,4.9357,4.9187,4.9001,4.9001,4.9001,4.8866,4.8108,4.7162,4.6295,4.5838,4.5331,4.4756,4.3978,4.3897,4.4044,4.4137,4.3877,4.3751,4.4306,4.3981,4.3578,4.3517,4.3515,4.3515,4.3515,4.3039,4.2671,4.2671,4.2671,4.2671,4.2671,4.3149,4.3515,4.3515,4.3515,4.3515,4.3515,4.3515,4.3515,4.3515,4.3515,4.3515,4.3515,4.3515,4.3515,4.3515,4.3515,4.3515,4.3515,4.3515,4.3515,4.3515,4.3515,4.3515,4.3515,4.3515,4.3515,4.3515,4.3515,4.3515,4.3515,4.3515,4.3515,4.3515,4.3515,4.3515,4.3515,4.7309,4.7309,4.7309,4.7309,4.7309,4.7309,4.7309,4.7309,4.7309,4.7309,4.7309,4.7309,4.7309,4.7309,4.7309,4.7309,4.7309,4.7309,4.7309,4.7309,4.7294,4.7294,4.8293,4.9296,5.0397,5.1394,5.2435,5.3501,5.3501,5.3501,5.3501,5.3501,5.3501,5.3501,5.3501,5.3501,5.3501,5.3501,5.3501,5.3433,5.2638,5.2317,5.2232,5.1505,5.1202,5.1217,5.1217,5.0727,5.0101,5.0101,4.961,4.9018,4.9001,4.9001,4.8866,4.8108,4.7889,4.7567,4.6126,4.572,4.5517,4.4801,4.3995,4.3566,4.4191,4.3739,4.333,4.3745,4.3806,4.3749,4.3539,4.3497,4.3515,4.3515,4.3515,4.3515,4.3515,4.3515,4.3515,4.3515,4.3515,4.3515,4.3515,4.3515,4.3515,4.3515,4.3515,4.3515,4.3515,4.3515,4.3515,4.3515,4.3515,4.3515,4.3515,4.3515,4.3515,4.3515,4.3515,4.3515,4.3515,4.3515,4.3515,4.3515,4.3515,4.3515,4.3515,4.3515,4.3515,4.3515,4.3515,4.3515,4.3515,4.3515,4.3515,4.3515,4.7309,4.7309,4.7309,4.7309,4.7309,4.7309,4.7309,4.7309,4.7309,4.7309,4.7309,4.7309,4.7309,4.7309,4.7309,4.7309,4.7309,4.7309,4.7309,4.7309,4.7609,4.8335,4.9336,5.0397,5.1431,5.247,5.3179,5.3501,5.3501,5.3501,5.3501,5.3501,5.3501,5.3501,5.3501,5.3501,5.3501,5.3501,5.3501,5.3484,5.3247,5.3145,5.3129,5.2909,5.2469,5.1978,5.1978,5.1505,5.0879,5.0879,5.0388,4.9678,4.9171,4.9001,4.8968,4.8748,4.8325,4.7787,4.7348,4.6498,4.5517,4.4801,4.4736,4.5036,4.5656,4.5163,4.4763,4.5357,4.5016,4.4464,4.3843,4.4054,4.4158,4.3589,4.3515,4.3515,4.3515,4.3515,4.3515,4.3515,4.3515,4.3515,4.3515,4.3515,4.3515,4.3515,4.3515,4.3515,4.3515,4.3515,4.3515,4.3515,4.3515,4.3515,4.3515,4.3515,4.3515,4.3515,4.3515,4.3515,4.3515,4.3515,4.3515,4.3515,4.3515,4.3515,4.3515,4.3515,4.3515,4.3515,4.3515,4.3515,4.3515,4.3515,4.3515,4.3515,4.7309,4.7309,4.7309,4.7309,4.7309,4.7309,4.7309,4.7309,4.7309,4.7309,4.7309,4.7309,4.7309,4.7309,4.7309,4.7309,4.7309,4.7309,4.7309,4.7679,4.8335,4.9376,5.0435,5.1266,5.1885,5.2557,5.3076,5.3501,5.3501,5.3501,5.3501,5.3501,5.3501,5.3501,5.3501,5.3501,5.3501,5.3501,5.3501,5.3501,5.3501,5.3501,5.3501,5.3501,5.3196,5.2773,5.2773,5.2283,5.1657,5.1657,5.115,5.0405,4.9661,4.9441,4.9373,4.9086,4.8697,4.8291,4.7973,4.7229,4.6397,4.5635,4.5295,4.5232,4.5597,4.5491,4.5345,4.5437,4.5263,4.4825,4.4035,4.4144,4.4181,4.3688,4.3558,4.3515,4.3515,4.3515,4.3515,4.3515,4.3515,4.3515,4.3515,4.3515,4.3515,4.3515,4.3515,4.3515,4.3515,4.3515,4.3515,4.3515,4.3515,4.3515,4.3515,4.3515,4.3515,4.3515,4.3515,4.3515,4.3515,4.3515,4.3515,4.3515,4.3515,4.3515,4.3515,4.3515,4.3515,4.3515,4.3515,4.3515,4.3515,4.3515,4.3515,4.3515,4.7309,4.7309,4.7309,4.7309,4.7309,4.7309,4.7309,4.7309,4.7309,4.7309,4.7309,4.7309,4.7309,4.7309,4.7309,4.7309,4.7309,4.7309,4.7309,4.8252,4.9296,5.0358,5.1357,5.1957,5.2046,5.2029,5.2522,5.3501,5.3501,5.3501,5.3501,5.3501,5.3501,5.3501,5.3501,5.3501,5.3501,5.3501,5.3501,5.3501,5.3501,5.3501,5.3501,5.3501,5.3501,5.3501,5.3501,5.3044,5.2401,5.2317,5.186,5.1183,5.0422,5.0135,4.9965,4.9306,4.9052,4.8849,4.8189,4.7939,4.772,4.7073,4.585,4.4784,4.4783,4.5177,4.538,4.4628,4.4962,4.5143,4.4337,4.4145,4.4066,4.3994,4.3834,4.3698,4.3608,4.3625,4.3588,4.3515,4.3515,4.3515,4.3515,4.3515,4.3515,4.3515,4.3515,4.3515,4.3515,4.3515,4.3515,4.3515,4.3515,4.3515,4.3515,4.3515,4.3515,4.3515,4.3515,4.3515,4.3515,4.3515,4.3515,4.3515,4.3515,4.3515,4.3515,4.3515,4.3515,4.3515,4.3515,4.3515,4.3515,4.3515,4.3515,4.3515,4.7309,4.7309,4.7309,4.7309,4.7309,4.7309,4.7309,4.7309,4.7309,4.7309,4.7309,4.7309,4.7309,4.7309,4.7309,4.7309,4.7309,4.7309,4.7309,4.8252,4.9296,5.0358,5.1357,5.2277,5.3144,5.3144,5.3264,5.3501,5.3501,5.3501,5.3501,5.3501,5.3501,5.3501,5.3501,5.3501,5.3501,5.3501,5.3501,5.3501,5.3501,5.3501,5.3501,5.3501,5.3501,5.3501,5.3501,5.3399,5.3145,5.252,5.2198,5.1944,5.12,5.0574,5.005,4.9898,4.9458,4.8968,4.8798,4.8359,4.7855,4.7716,4.6989,4.6316,4.6175,4.6176,4.6156,4.598,4.6461,4.6669,4.5875,4.6096,4.6193,4.5553,4.5407,4.5149,4.4525,4.4452,4.4213,4.357,4.3515,4.3515,4.3515,4.3515,4.3515,4.3515,4.3515,4.3515,4.3515,4.3515,4.3515,4.3515,4.3515,4.3515,4.3515,4.3515,4.3515,4.3515,4.3515,4.3515,4.3515,4.3515,4.3515,4.3515,4.3515,4.3515,4.3515,4.3515,4.3515,4.3515,4.3515,4.3515,4.3515,4.3515,4.3515,4.3515,4.7309,4.7309,4.7309,4.7309,4.7309,4.7309,4.7309,4.7309,4.7309,4.7309,4.7309,4.7309,4.7309,4.7309,4.7309,4.7309,4.7309,4.7309,4.7309,4.8733,4.9813,5.0374,5.1865,5.2921,5.3501,5.3501,5.3501,5.3501,5.3501,5.3501,5.3501,5.3501,5.3501,5.3501,5.3501,5.3501,5.3501,5.3501,5.3501,5.3501,5.3501,5.3501,5.3501,5.3501,5.3501,5.3501,5.3501,5.3501,5.345,5.301,5.2875,5.2739,5.1978,5.1471,5.0997,5.0304,4.9813,4.9441,4.9103,4.8731,4.8443,4.8443,4.7885,4.7111,4.6338,4.6352,4.6302,4.5666,4.6039,4.6277,4.5572,4.5615,4.5731,4.5575,4.5515,4.5422,4.5297,4.5278,4.4966,4.4176,4.4066,4.392,4.3551,4.3515,4.3515,4.3515,4.3515,4.3515,4.3515,4.3515,4.3515,4.3515,4.3515,4.3515,4.3515,4.3515,4.3515,4.3515,4.3515,4.3515,4.3515,4.3515,4.3515,4.3515,4.3515,4.3515,4.3515,4.3515,4.3515,4.3515,4.3515,4.3515,4.3515,4.3515,4.3515,4.3515,4.7309,4.7309,4.7309,4.7309,4.7309,4.7309,4.7309,4.7309,4.7309,4.7309,4.7309,4.7309,4.7309,4.7309,4.7309,4.7309,4.7309,4.7309,4.7309,4.9247,5.0397,5.0397,5.2381,5.3501,5.3501,5.3501,5.3501,5.3501,5.3501,5.3501,5.3501,5.3501,5.3501,5.3501,5.3501,5.3501,5.3501,5.3501,5.3501,5.3501,5.3501,5.3501,5.3501,5.3501,5.3501,5.3501,5.3501,5.3501,5.3501,5.3501,5.3501,5.3382,5.2723,5.2418,5.2063,5.0828,5.0287,4.9965,4.9357,4.9103,4.9001,4.9001,4.8545,4.772,4.6397,4.6353,4.6278,4.5175,4.5406,4.5673,4.5169,4.4932,4.4988,4.5503,4.5477,4.5542,4.59,4.6048,4.581,4.5002,4.4911,4.4635,4.3956,4.3919,4.3863,4.3718,4.3699,4.3662,4.3515,4.3515,4.3515,4.3515,4.3515,4.3515,4.3515,4.3515,4.3515,4.3515,4.3515,4.3515,4.3515,4.3515,4.3515,4.3515,4.3515,4.3515,4.3515,4.3515,4.3515,4.3515,4.3515,4.3515,4.3515,4.3515,4.3515,4.3515,4.7309,4.7309,4.7309,4.7309,4.7309,4.7309,4.7309,4.7309,4.7309,4.7309,4.7309,4.7309,4.7309,4.7309,4.7309,4.7309,4.7309,4.7309,4.7309,4.9247,5.0397,5.0397,5.2381,5.3501,5.3501,5.3501,5.3501,5.3501,5.3501,5.3501,5.3501,5.3501,5.3501,5.3501,5.3501,5.3501,5.3501,5.3501,5.3501,5.3501,5.3501,5.3501,5.3501,5.3501,5.3501,5.3501,5.3501,5.3501,5.3501,5.3501,5.3501,5.3484,5.3382,5.2858,5.2266,5.2063,5.1099,5.0067,4.9965,4.9492,4.9001,4.9001,4.8934,4.8646,4.777,4.709,4.655,4.6366,4.6764,4.7128,4.7039,4.6994,4.701,4.7075,4.7089,4.6847,4.6241,4.6625,4.6636,4.5828,4.5736,4.5681,4.559,4.5571,4.5296,4.4599,4.4544,4.4232,4.3551,4.3515,4.3515,4.3515,4.3515,4.3515,4.3515,4.3515,4.3515,4.3515,4.3515,4.3515,4.3515,4.3515,4.3515,4.3515,4.3515,4.3515,4.3515,4.3515,4.3515,4.3515,4.3515,4.3515,4.3515,4.3515,4.3515,4.3515,4.7309,4.7309,4.7309,4.7309,4.7309,4.7309,4.7309,4.7309,4.7309,4.7309,4.7309,4.7309,4.7309,4.7309,4.7309,4.7309,4.7309,4.7538,4.8099,4.9551,5.0665,5.1192,5.2679,5.3501,5.3501,5.3501,5.3501,5.3501,5.3501,5.3501,5.3501,5.3501,5.3501,5.3501,5.3501,5.3501,5.3501,5.3501,5.3501,5.3501,5.3501,5.3501,5.3501,5.3501,5.3501,5.3501,5.3501,5.3501,5.3501,5.3501,5.3501,5.3501,5.3501,5.3264,5.2892,5.2435,5.1843,5.115,5.0304,4.9847,4.9509,4.9103,4.9001,4.8917,4.8595,4.7886,4.721,4.68,4.6583,4.6555,4.6892,4.6612,4.6566,4.7281,4.7406,4.7383,4.7383,4.7602,4.7461,4.6673,4.6177,4.5902,4.5902,4.5902,4.5755,4.5406,4.5369,4.5223,4.4856,4.4837,4.4837,4.4837,4.4397,4.4176,4.4176,4.3718,4.3515,4.3515,4.3515,4.3515,4.3515,4.3515,4.3515,4.3515,4.3515,4.3515,4.3515,4.3515,4.3515,4.3515,4.3515,4.3515,4.3515,4.3515,4.3515,4.3515]}]]